[[{"header":{"parameterUnit":"m.s-1","parameterCategory":1,"la1":31.0,"la2":29.5877,"lo1":-88.7671,"lo2":-86.6584,"dx":0.0162,"dy":0.0185,"nx":115,"ny":88,"refTime":"2022-11-21T06:00:00:Z","depth":0,"parameterNumber":2,"parameterNumberName":"U-component_of_WINDS"},"data":[0.0,0.0,0.0,0.0,0.0,0.0,0.0,0.0,0.0,0.0,0.0,0.0,0.0,0.0,0.0,0.0,0.0,0.0,0.0,0.0,0.0,0.0,0.0,0.0,0.0,0.0,0.0,0.0,0.0,0.0,0.0,0.0,0.0,0.0,0.0,0.0,0.0,0.0,0.0,0.0,0.0,0.0,0.0,0.0,0.0,0.0,0.0,0.0,0.0,0.0,0.0,0.0,0.0,0.0,0.0,0.0,0.0,0.0,0.0,0.0,0.0,0.0,0.0,0.0,0.0,0.0,0.0,0.0,0.0,0.0,0.0,0.0,0.0,0.0,0.0,0.0,0.0,0.0,0.0,0.0,0.0,0.0,0.0,0.0,0.0,0.0,0.0,0.0,0.0,0.0,0.0,0.0,0.0,0.0,0.0,0.0,0.0,0.0,0.0,0.0,0.0,0.0,0.0,0.0,0.0,0.0,0.0,0.0,0.0,0.0,0.0,0.0,0.0,0.0,0.0,0.0,0.0,0.0,0.0,0.0,0.0,0.0,0.0,0.0,0.0,0.0,0.0,0.0,0.0,0.0,0.0,0.0,0.0,0.0,0.0,0.0,0.0,0.0,0.0,0.0,0.0,0.0,0.0,0.0,0.0,0.0,0.0,0.0,0.0,0.0,0.0,0.0,0.0,0.0,0.0,0.0,0.0,0.0,0.0,0.0,0.0,0.0,0.0,0.0,0.0,0.0,0.0,0.0,0.0,0.0,0.0,0.0,0.0,0.0,0.0,0.0,0.0,0.0,0.0,0.0,0.0,0.0,0.0,0.0,0.0,0.0,0.0,0.0,0.0,0.0,0.0,0.0,0.0,0.0,0.0,0.0,0.0,0.0,0.0,0.0,0.0,0.0,0.0,0.0,0.0,0.0,0.0,0.0,0.0,0.0,0.0,0.0,0.0,0.0,0.0,0.0,0.0,0.0,0.0,0.0,0.0,0.0,0.0,0.0,0.0,0.0,0.0,0.0,0.0,0.0,0.0,0.0,0.0,0.0,0.0,0.0,0.0,0.0,0.0,0.0,0.0,0.0,0.0,0.0,0.0,0.0,0.0,0.0,0.0,0.0,0.0,0.0,0.0,0.0,0.0,0.0,0.0,0.0,0.0,0.0,0.0,0.0,0.0,0.0,0.0,0.0,0.0,0.0,0.0,0.0,0.0,0.0,0.0,0.0,0.0,0.0,0.0,0.0,0.0,0.0,0.0,0.0,0.0,0.0,0.0,0.0,0.0,0.0,0.0,0.0,0.0,0.0,0.0,0.0,0.0,0.0,0.0,0.0,0.0,0.0,0.0,0.0,0.0,0.0,0.0,0.0,0.0,0.0,0.0,0.0,0.0,0.0,0.0,0.0,0.0,0.0,0.0,0.0,0.0,0.0,0.0,0.0,0.0,0.0,0.0,0.0,0.0,0.0,0.0,0.0,0.0,0.0,0.0,0.0,0.0,0.0,0.0,0.0,0.0,0.0,0.0,0.0,0.0,0.0,0.0,0.0,0.0,0.0,0.0,0.0,0.0,0.0,0.0,0.0,0.0,0.0,0.0,0.0,0.0,0.0,0.0,0.0,0.0,0.0,0.0,0.0,0.0,0.0,0.0,0.0,0.0,0.0,0.0,0.0,0.0,0.0,0.0,0.0,0.0,0.0,0.0,0.0,0.0,0.0,0.0,0.0,0.0,0.0,0.0,0.0,0.0,0.0,0.0,0.0,0.0,0.0,0.0,0.0,0.0,0.0,0.0,0.0,0.0,0.0,0.0,0.0,0.0,0.0,0.0,0.0,0.0,0.0,0.0,0.0,0.0,0.0,0.0,0.0,0.0,0.0,0.0,0.0,0.0,0.0,0.0,0.0,0.0,0.0,0.0,0.0,0.0,0.0,0.0,0.0,0.0,0.0,0.0,0.0,0.0,0.0,0.0,0.0,0.0,0.0,0.0,0.0,0.0,0.0,0.0,0.0,0.0,0.0,0.0,0.0,0.0,0.0,0.0,0.0,0.0,0.0,0.0,0.0,0.0,0.0,0.0,0.0,0.0,0.0,0.0,0.0,0.0,0.0,0.0,0.0,0.0,0.0,0.0,0.0,0.0,0.0,0.0,0.0,0.0,0.0,0.0,0.0,0.0,0.0,0.0,0.0,0.0,0.0,0.0,0.0,0.0,0.0,0.0,0.0,0.0,0.0,0.0,0.0,0.0,0.0,0.0,0.0,0.0,0.0,0.0,0.0,0.0,0.0,0.0,0.0,0.0,0.0,0.0,0.0,0.0,0.0,0.0,0.0,0.0,0.0,0.0,0.0,0.0,0.0,0.0,0.0,0.0,0.0,0.0,0.0,0.0,0.0,0.0,0.0,0.0,0.0,0.0,0.0,0.0,0.0,0.0,0.0,0.0,0.0,0.0,0.0,0.0,0.0,0.0,0.0,0.0,0.0,0.0,0.0,0.0,0.0,0.0,0.0,0.0,0.0,0.0,0.0,0.0,0.0,0.0,0.0,0.0,0.0,0.0,0.0,0.0,0.0,0.0,0.0,0.0,0.0,0.0,0.0,0.0,0.0,0.0,0.0,0.0,0.0,0.0,0.0,0.0,0.0,0.0,0.0,0.0,0.0,0.0,0.0,0.0,0.0,0.0,0.0,0.0,0.0,0.0,0.0,0.0,0.0,0.0,0.0,0.0,0.0,0.0,0.0,0.0,0.0,0.0,0.0,0.0,0.0,0.0,0.0,0.0,0.0,0.0,0.0,0.0,0.0,0.0,0.0,0.0,0.0,0.0,0.0,0.0,0.0,0.0,0.0,0.0,0.0,0.0,0.0,0.0,0.0,0.0,0.0,0.0,0.0,0.0,0.0,0.0,0.0,0.0,0.0,0.0,0.0,0.0,0.0,0.0,0.0,0.0,0.0,0.0,0.0,0.0,0.0,0.0,0.0,0.0,0.0,0.0,0.0,0.0,0.0,0.0,0.0,0.0,0.0,0.0,0.0,0.0,0.0,0.0,0.0,0.0,0.0,0.0,0.0,0.0,0.0,0.0,0.0,0.0,0.0,0.0,0.0,0.0,0.0,0.0,0.0,0.0,0.0,0.0,0.0,0.0,0.0,0.0,0.0,0.0,0.0,0.0,0.0,0.0,0.0,0.0,0.0,0.0,0.0,0.0,0.0,0.0,0.0,0.0,0.0,0.0,0.0,0.0,0.0,0.0,0.0,0.0,0.0,0.0,0.0,0.0,0.0,0.0,0.0,0.0,0.0,0.0,0.0,0.0,0.0,0.0,0.0,0.0,0.0,0.0,0.0,0.0,0.0,0.0,0.0,0.0,0.0,0.0,0.0,0.0,0.0,0.0,0.0,0.0,0.0,0.0,0.0,0.0,0.0,0.0,0.0,0.0,0.0,0.0,0.0,0.0,0.0,0.0,0.0,0.0,0.0,0.0,0.0,0.0,0.0,0.0,0.0,0.0,0.0,0.0,0.0,0.0,0.0,0.0,0.0,0.0,0.0,0.0,0.0,0.0,0.0,0.0,0.0,0.0,0.0,0.0,0.0,0.0,0.0,0.0,0.0,0.0,0.0,0.0,0.0,0.0,0.0,0.0,0.0,0.0,0.0,0.0,0.0,0.0,0.0,0.0,0.0,0.0,0.0,0.0,0.0,0.0,0.0,0.0,0.0,0.0,0.0,0.0,0.0,0.0,0.0,0.0,0.0,0.0,0.0,0.0,0.0,0.0,0.0,0.0,0.0,0.0,0.0,0.0,0.0,0.0,0.0,0.0,0.0,0.0,0.0,0.0,0.0,0.0,0.0,0.0,0.0,0.0,0.0,0.0,0.0,0.0,0.0,0.0,0.0,0.0,0.0,0.0,0.0,0.0,0.0,0.0,0.0,0.0,0.0,0.0,0.0,0.0,0.0,0.0,0.0,0.0,0.0,0.0,0.0,0.0,0.0,0.0,0.0,0.0,0.0,0.0,0.0,0.0,0.0,0.0,0.0,0.0,0.0,0.0,0.0,0.0,0.0,0.0,0.0,0.0,0.0,0.0,0.0,0.0,0.0,0.0,0.0,0.0,0.0,0.0,0.0,0.0,0.0,0.0,0.0,0.0,0.0,0.0,0.0,0.0,0.0,0.0,0.0,0.0,0.0,0.0,0.0,0.0,0.0,0.0,0.0,0.0,0.0,0.0,0.0,0.0,0.0,0.0,0.0,0.0,0.0,0.0,0.0,0.0,0.0,0.0,0.0,0.6058,0.0,0.0,0.0,0.5352,0.0,0.0,0.0,0.0,0.0,0.0,0.0,0.0,0.0,0.0,0.0,0.0,0.0,0.0,0.0,0.0,0.0,0.0,0.0,0.0,0.0,0.0,0.0,0.0,0.0,0.0,0.0,0.0,0.0,0.0,0.0,0.0,0.0,0.0,0.0,0.0,0.0,0.0,0.0,0.0,0.0,0.0,0.0,0.0,0.0,0.0,0.0,0.0,0.0,0.0,0.0,0.0,0.0,0.0,0.0,0.0,0.0,0.0,0.0,0.0,0.0,0.0,0.0,0.0,0.0,0.0,0.0,0.0,0.0,0.0,0.0,0.0,0.0,0.0,0.0,0.0,0.0,0.0,0.0,0.0,0.0,0.0,0.0,0.0,0.0,0.0,0.0,0.0,0.0,0.0,0.0,0.0,0.0,0.0,0.0,0.0,0.0,0.0,0.0,0.0,0.0,0.0,0.0,0.0,0.0,0.0,0.0,0.0,0.0,0.0,0.6058,0.5156,0.6555,0.6639,0.518,0.0,0.0,0.0,0.0,0.0,0.0,0.0,0.0,0.0,0.0,0.0,0.0,0.0,0.0,0.0,0.0,0.0,0.0,0.0,0.0,0.0,0.0,0.0,0.0,0.0,0.0,0.0,0.0,0.0,0.0,0.0,0.0,0.0,0.0,0.0,0.0,0.0,0.0,0.0,0.0,0.0,0.0,0.0,0.0,0.0,0.0,0.0,0.0,0.0,0.0,0.0,0.0,0.0,0.0,0.0,0.0,0.0,0.0,0.0,0.0,0.0,0.0,0.0,0.0,0.0,0.0,0.0,0.0,0.0,0.0,0.0,0.0,0.0,0.0,0.0,0.0,0.0,0.0,0.0,0.0,0.0,0.0,0.0,0.0,0.0,0.0,0.0,0.0,0.0,0.0,0.0,0.0,0.0,0.0,0.0,0.0,0.0,0.0,0.0,0.0,0.0,0.0,0.0,0.0,0.0,0.0,0.0,0.0,0.0,0.0,0.0,0.0,0.6934,0.6966,0.5625,0.0,0.0,0.0,0.0,0.0,0.0,0.0,0.0,0.0,0.0,0.0,0.0,0.0,0.0,0.0,0.0,0.0,0.0,0.0,0.0,0.0,0.0,0.0,0.0,0.0,0.0,0.0,0.0,0.0,0.0,0.0,0.0,0.0,0.0,0.0,0.0,0.0,0.0,0.0,0.0,0.0,0.0,0.0,0.0,0.0,0.0,0.0,0.0,0.0,0.0,0.0,0.0,0.0,0.0,0.0,0.0,0.0,0.0,0.0,0.0,0.0,0.0,0.0,0.0,0.0,0.0,0.0,0.0,0.0,0.0,0.0,0.0,0.0,0.0,0.0,0.0,0.0,0.0,0.0,0.0,0.0,0.0,0.0,0.0,0.0,0.0,0.0,0.0,0.0,0.0,0.0,0.0,0.0,0.0,0.0,0.0,0.0,0.0,0.0,0.0,0.0,0.0,0.0,0.0,0.0,0.0,0.0,0.0,0.0,0.0,0.5934,0.7413,0.7211,0.0,0.6831,0.0,0.0,0.0,0.0,0.0,0.0,0.0,0.0,0.0,0.0,0.0,0.0,0.0,0.0,0.0,0.0,0.0,0.0,0.0,0.0,0.0,0.0,0.0,0.0,0.0,0.0,0.0,0.0,0.0,0.0,0.0,0.0,0.0,0.0,0.0,0.0,0.0,0.0,0.0,0.0,0.0,0.0,0.0,0.0,0.0,0.0,0.0,0.0,0.0,0.0,0.0,0.0,0.0,0.0,0.0,0.0,0.0,0.0,0.0,0.0,0.0,0.0,0.0,0.0,0.0,0.0,0.0,0.0,0.0,0.0,0.0,0.0,0.0,0.0,0.0,0.0,0.0,0.0,0.0,0.0,0.0,0.0,0.0,0.0,0.0,0.0,0.0,0.0,0.0,0.0,0.0,0.0,0.0,0.0,0.0,0.0,0.0,0.0,0.0,0.0,0.0,0.0,0.0,0.0,0.0,0.0,0.0,0.0,0.0,0.0,0.6607,0.7275,0.7099,0.702,0.0,0.0,0.0,0.0,0.0,0.0,0.0,0.0,0.0,0.0,0.0,0.0,0.0,0.0,0.0,0.0,0.0,0.0,0.0,0.0,0.0,0.0,0.0,0.0,0.0,0.0,0.0,0.0,0.0,0.0,0.0,0.0,0.0,0.0,0.0,0.0,0.0,0.0,0.0,0.0,0.0,0.0,0.0,0.0,0.0,0.0,0.0,0.0,0.0,0.0,0.0,0.0,0.0,0.0,0.0,0.0,0.0,0.0,0.0,0.0,0.0,0.0,0.0,0.0,0.0,0.0,0.0,0.0,0.0,0.0,0.0,0.0,0.0,0.0,0.0,0.0,0.0,0.0,0.0,0.0,0.0,0.0,0.0,0.0,0.0,0.0,0.0,0.0,0.0,0.0,0.0,0.0,0.0,0.0,0.0,0.0,0.0,0.0,0.0,0.0,0.0,0.0,0.0,0.0,0.0,0.0,0.0,0.0,0.0,0.0,0.666,0.7095,0.7466,0.7418,0.729,0.7082,0.0,0.0,0.0,0.0,0.0,0.0,0.0,0.0,0.0,0.0,0.0,0.0,0.0,0.0,0.0,0.0,0.0,0.0,0.0,0.0,0.0,0.0,0.0,0.0,0.0,0.0,0.0,0.0,0.0,0.0,0.0,0.0,0.0,0.0,0.0,0.0,0.0,0.0,0.0,0.0,0.0,0.0,0.0,0.0,0.0,0.0,0.0,0.0,0.0,0.0,0.0,0.0,0.0,0.0,0.0,0.0,0.0,0.0,0.0,0.0,0.0,0.0,0.0,0.0,0.0,0.0,0.0,0.0,0.0,0.0,0.0,0.0,0.0,0.0,0.0,0.0,0.0,0.0,0.0,0.0,0.0,0.0,0.0,0.0,0.0,0.0,0.0,0.0,0.0,0.0,0.0,0.0,0.0,0.0,0.0,0.0,0.0,0.0,0.0,0.0,0.0,0.0,0.0,0.0,0.0,0.0,0.0,0.0,0.8468,0.7207,0.7167,0.8654,0.8461,0.7925,0.0,0.0,0.0,0.0,0.0,0.0,0.0,0.0,0.0,0.0,0.0,0.0,0.0,0.0,0.0,0.0,0.0,0.0,0.0,0.0,0.0,0.0,0.0,0.0,0.0,0.0,0.0,0.0,0.0,0.0,0.0,0.0,0.0,0.0,0.0,0.0,0.0,0.0,0.0,0.0,0.0,0.0,0.0,0.0,0.0,0.0,0.0,0.0,0.0,0.0,0.0,0.0,0.0,0.0,0.0,0.0,0.0,0.0,0.0,0.0,0.0,0.0,0.0,0.0,0.0,0.0,0.0,0.0,0.0,0.0,0.0,0.0,0.0,0.0,0.0,0.0,0.0,0.0,0.0,0.0,0.0,0.0,0.0,0.0,0.0,0.0,0.0,0.0,0.0,0.0,0.0,0.0,0.0,0.0,0.0,0.0,0.0,0.0,0.0,0.0,0.0,0.0,0.0,0.0,0.0,0.0,0.0,0.0,0.0,0.5681,0.6403,0.7723,0.9556,0.8281,0.7602,0.0,0.0,0.0,0.0,0.0,0.0,0.0,0.0,0.0,0.0,0.0,0.0,0.0,0.0,0.0,0.0,0.0,0.0,0.0,0.0,0.0,0.0,0.0,0.0,0.0,0.0,0.0,0.0,0.0,0.0,0.0,0.0,0.0,0.0,0.0,0.0,0.0,0.0,0.0,0.0,0.0,0.0,0.0,0.0,0.0,0.0,0.0,0.0,0.0,0.0,0.0,0.0,0.0,0.0,0.0,0.0,0.0,0.0,0.0,0.0,0.0,0.0,0.0,0.0,0.0,0.0,0.0,0.0,0.0,0.0,0.0,0.0,0.0,0.0,0.0,0.0,0.0,0.0,0.0,0.0,0.0,0.0,0.0,0.0,0.0,0.0,0.0,0.0,0.0,0.0,0.0,0.0,0.0,0.0,0.0,0.0,0.0,0.0,0.0,0.0,0.0,0.0,0.0,0.0,0.0,0.0,0.0,0.0,0.0,0.5139,0.7131,0.878,0.9834,0.8168,0.7218,0.0,0.0,0.0,0.0,0.0,0.0,0.0,0.0,0.0,0.0,0.0,0.0,0.0,0.0,0.0,0.0,0.0,0.0,0.0,0.0,0.0,0.0,0.0,0.0,0.0,0.0,0.0,0.0,0.0,0.0,0.0,0.0,0.0,0.0,0.0,0.0,0.0,0.0,0.0,0.0,0.0,0.0,0.0,0.0,0.0,0.0,0.0,0.0,0.0,0.0,0.0,0.0,0.0,0.0,0.0,0.0,0.0,0.0,0.0,0.0,0.0,0.0,0.0,0.0,0.0,0.0,0.0,0.0,0.0,0.0,0.0,0.0,0.0,0.0,0.0,0.0,0.0,0.0,0.0,0.0,0.0,0.0,0.0,0.0,0.0,0.0,0.0,0.0,0.0,0.0,0.0,0.0,0.0,0.0,0.0,0.0,0.0,0.0,0.0,0.0,0.0,0.0,0.0,0.0,0.0,0.0,0.0,0.0,0.5144,0.7455,0.9507,1.0173,0.9501,0.8259,0.685,0.0,0.0,0.0,0.0,0.0,0.0,0.0,0.0,0.0,0.0,0.0,0.0,0.0,0.0,0.0,0.0,0.0,0.0,0.0,0.0,0.0,0.0,0.0,0.0,0.0,0.0,0.0,0.0,0.0,0.0,0.0,0.0,0.0,0.0,0.0,0.0,0.0,0.0,0.0,0.0,0.0,0.0,0.0,0.0,0.0,0.0,0.0,0.0,0.0,0.0,0.0,0.0,0.0,0.0,0.0,0.0,0.0,0.0,0.0,0.0,0.0,0.0,0.0,0.0,0.0,0.0,0.0,0.0,0.0,0.0,0.0,0.0,0.0,0.0,0.0,0.0,0.0,0.0,0.0,0.0,0.0,0.0,0.0,0.0,0.0,0.0,0.0,0.0,0.0,0.0,0.0,0.0,0.0,0.0,0.0,0.0,0.0,0.0,0.0,0.0,0.0,0.0,0.0,0.0,0.0,0.0,0.0,0.0,0.0,0.6019,0.8468,0.9703,0.9466,0.8217,0.7433,0.0,0.0,0.0,0.0,0.0,0.0,0.0,0.0,0.0,0.0,0.0,0.0,0.0,0.0,0.0,0.0,0.0,0.0,0.0,0.0,0.0,0.0,0.0,0.0,0.0,0.0,0.0,0.0,0.0,0.0,0.0,0.0,0.0,0.0,0.0,0.0,0.0,0.0,0.0,0.0,0.0,0.0,0.0,0.0,0.0,0.0,0.0,0.0,0.0,0.0,0.0,0.0,0.0,0.0,0.0,0.0,0.0,0.0,0.0,0.0,0.0,0.0,0.0,0.0,0.0,0.0,0.0,0.0,0.0,0.0,0.0,0.0,0.0,0.0,0.0,0.0,0.0,0.0,0.0,0.0,0.0,0.0,0.0,0.0,0.0,0.0,0.0,0.0,0.0,0.0,0.0,0.0,0.0,0.0,0.0,0.0,0.0,0.0,0.0,0.0,0.0,0.0,0.0,0.0,0.0,0.0,0.0,0.0,0.0,0.7575,0.9753,1.0838,1.0576,0.8866,0.7937,0.7875,0.0,0.0,0.0,0.0,0.0,0.0,0.0,0.0,0.0,0.0,0.0,0.0,0.0,0.0,0.0,0.0,0.0,0.0,0.0,0.0,0.0,0.0,0.0,0.0,0.0,0.0,0.0,0.0,0.0,0.0,0.0,0.0,0.0,0.0,0.0,0.0,0.0,0.0,0.0,0.0,0.0,0.0,0.0,0.0,0.0,0.0,0.0,0.0,0.0,0.0,0.0,0.0,0.0,0.0,0.0,0.0,0.0,0.0,0.0,0.0,0.0,0.0,0.0,0.0,0.0,0.0,0.0,0.0,0.0,0.0,0.0,0.0,0.0,0.0,0.0,0.0,0.0,0.0,0.0,0.0,0.0,0.0,0.0,0.0,0.0,0.0,0.0,0.0,0.0,0.0,0.0,0.0,0.0,0.0,0.0,0.0,0.0,0.0,0.0,0.0,0.0,0.0,0.0,0.0,0.0,0.0,0.0,0.0,1.1283,1.2852,1.3226,1.2382,1.0056,0.8409,0.0,0.0,0.0,0.0,0.0,0.0,0.0,0.0,0.0,0.0,0.0,0.0,0.0,0.0,0.0,0.0,0.0,0.0,0.0,0.0,0.0,0.0,0.0,0.0,0.0,0.0,0.0,0.0,0.0,0.0,0.0,0.0,0.0,0.0,0.0,0.0,0.0,0.0,0.0,0.0,0.0,0.0,0.0,0.0,0.0,0.0,0.0,0.0,0.0,0.0,0.0,0.0,0.0,0.0,0.0,0.0,0.0,0.0,0.0,0.0,0.0,0.0,0.0,0.0,0.0,0.0,0.0,0.0,0.0,0.0,0.0,0.0,0.0,0.0,0.0,0.0,0.0,0.0,0.0,0.0,0.0,0.0,0.0,0.0,0.0,0.0,0.0,0.0,0.0,0.0,0.0,0.0,0.0,0.0,0.0,0.0,0.0,0.0,0.0,0.0,0.0,0.0,0.0,0.0,0.0,0.0,0.0,0.0,0.0,1.2424,1.3675,1.3774,1.2575,1.0909,0.952,0.0,0.0,0.0,0.0,0.0,0.0,0.0,0.0,0.0,0.0,0.0,0.0,0.0,0.0,0.0,0.0,0.0,0.0,0.0,0.0,0.0,0.0,0.0,0.0,0.0,0.0,0.0,0.0,0.0,0.0,0.0,0.0,0.0,0.0,0.0,0.0,0.0,0.0,0.0,0.0,0.0,0.0,0.0,0.0,0.0,0.0,0.0,0.0,0.0,0.0,0.0,0.0,0.0,0.0,0.0,0.0,0.0,0.0,0.0,0.0,0.0,0.0,0.0,0.0,0.0,0.0,0.0,0.0,0.0,0.0,0.0,0.0,0.0,0.0,0.0,0.0,0.0,0.0,0.0,0.0,0.0,0.0,0.0,0.0,0.0,0.0,0.0,0.0,0.0,0.0,0.0,0.0,0.0,0.0,0.0,0.0,0.0,0.0,0.0,0.0,0.0,0.0,0.0,0.0,0.0,0.0,0.0,0.0,1.1718,1.3833,1.4344,1.4163,1.3259,1.1953,1.0623,0.0,0.0,0.0,0.0,0.0,0.0,0.0,0.0,0.0,0.0,0.0,0.0,0.0,0.0,0.0,0.0,0.0,0.0,0.0,0.0,0.0,0.0,0.0,0.0,0.0,0.0,0.0,0.0,0.0,0.0,0.0,0.0,0.0,0.0,0.0,0.0,0.0,0.0,0.0,0.0,0.0,0.0,0.0,0.0,0.0,0.0,0.0,0.0,0.0,0.0,0.0,0.0,0.0,0.0,0.0,0.0,0.0,0.0,0.0,0.0,0.0,0.0,0.0,0.0,0.0,0.0,0.0,0.0,0.0,0.0,0.0,0.0,0.0,0.0,0.0,0.0,0.0,0.0,0.0,0.0,0.0,0.0,0.0,0.0,0.0,0.0,0.0,0.0,0.0,0.0,0.0,0.0,0.0,0.0,0.0,0.0,0.0,0.0,0.0,0.0,0.0,0.0,0.0,0.0,0.0,0.0,0.0,0.0,1.3121,1.5287,1.497,1.4617,1.4275,1.3049,1.1576,0.0,0.0,0.0,0.0,0.0,0.0,0.0,0.0,0.0,0.0,0.0,0.0,0.0,0.0,0.0,0.0,0.0,0.0,0.0,0.0,0.0,0.0,0.0,0.0,0.0,0.0,0.0,0.0,0.0,0.0,0.0,0.0,0.0,0.0,0.0,0.0,0.0,0.0,0.0,0.0,0.0,0.0,0.0,0.0,0.0,0.0,0.0,0.0,0.0,0.0,0.0,0.0,0.0,0.0,0.0,0.0,0.0,0.0,0.0,0.0,0.0,0.0,0.0,0.0,0.0,0.0,0.0,0.0,0.0,0.0,0.0,0.0,0.0,0.0,0.0,0.0,0.0,0.0,0.0,0.0,0.0,0.0,0.0,0.0,0.0,0.0,0.0,0.0,0.0,0.0,0.0,0.0,0.0,0.0,0.0,0.0,0.0,0.0,0.0,0.0,0.0,0.0,0.0,0.0,0.0,0.0,0.0,0.0,1.4471,1.6303,1.5998,1.5738,1.5655,1.3794,1.1899,0.0,0.0,0.0,0.0,0.0,0.0,0.0,0.0,0.0,0.0,0.0,0.0,0.0,0.0,0.0,0.0,0.0,0.0,0.0,0.0,0.0,0.0,0.0,0.0,0.0,0.0,0.0,0.0,0.0,0.0,0.0,0.0,0.0,0.0,0.0,0.0,0.0,0.0,0.0,0.0,0.0,0.0,0.0,0.0,0.0,0.0,0.0,0.0,0.7437,0.0,0.0,0.0,0.0,0.0,0.0,0.0,0.0,0.0,0.0,0.0,0.0,0.0,0.0,0.0,0.0,0.0,0.0,0.0,0.0,0.0,0.0,0.0,0.0,0.0,0.0,0.0,0.0,0.0,0.0,0.0,0.0,0.0,0.0,0.0,0.0,0.0,0.0,0.0,0.0,0.0,0.0,0.0,0.0,0.0,0.0,0.0,0.0,0.0,0.0,0.0,0.0,0.0,0.0,0.0,0.0,0.0,0.0,0.0,1.4841,1.6157,1.5854,1.5665,1.5632,1.471,1.2971,0.0,0.0,0.0,0.0,0.0,0.0,0.0,0.0,0.0,0.0,0.0,0.0,0.0,0.0,0.0,0.0,0.0,0.0,0.0,0.0,0.0,0.0,0.0,0.0,0.0,0.0,0.0,0.0,0.0,0.0,0.0,0.0,0.0,0.0,0.0,0.0,0.0,0.0,0.0,0.0,0.0,0.0,0.0,0.0,0.0,0.0,0.0,0.0,0.0,0.0,0.0,0.0,0.0,0.0,0.0,0.0,0.0,0.0,0.0,0.0,0.0,0.0,0.0,0.0,0.0,0.0,0.0,0.0,0.0,0.0,0.0,0.0,0.0,0.0,0.0,0.0,0.0,0.0,0.0,0.0,0.0,0.0,0.0,0.0,0.0,0.0,0.0,0.0,0.0,0.0,0.0,0.0,0.0,0.0,0.0,0.0,0.0,0.0,0.0,0.0,0.0,0.0,0.0,0.0,0.0,0.0,0.0,1.3442,1.5154,1.5968,1.5829,1.5654,1.5445,1.5643,1.4155,1.0759,0.0,0.0,0.0,0.0,0.0,0.0,0.0,0.0,0.0,0.0,0.0,0.0,0.0,0.0,0.0,0.0,0.0,0.0,0.0,0.0,0.0,0.0,0.0,0.0,0.0,0.0,0.0,0.0,0.0,0.0,0.0,0.0,0.0,0.0,0.0,0.0,0.0,0.0,0.631,0.8053,0.0,0.0,0.0,0.0,0.0,0.0,0.0,0.0,0.866,0.0,0.0,0.0,0.0,0.0,0.0,0.0,0.0,0.0,0.0,0.0,0.0,0.0,0.0,0.0,0.0,0.0,0.0,0.0,0.0,0.0,0.0,0.0,0.0,0.0,0.0,0.0,0.0,0.0,0.0,0.0,0.0,0.0,0.0,0.0,0.0,0.0,0.0,0.0,0.0,0.0,0.0,0.0,0.0,0.0,0.0,0.0,0.0,0.0,0.0,0.0,0.0,0.0,0.0,0.0,0.0,1.2953,1.5176,1.6665,1.7368,1.7922,1.7661,1.6489,1.6236,1.4535,1.1306,0.0,0.0,0.0,0.0,0.0,0.0,0.0,0.0,0.0,0.0,0.0,0.0,0.0,0.0,0.0,0.0,0.0,0.0,0.0,0.0,0.0,0.0,0.0,0.0,0.0,0.0,0.0,0.0,0.0,0.0,0.0,0.0,0.0,0.0,0.0,0.0,0.0,0.0,0.0,1.0379,1.1404,0.0,0.0,0.0,0.0,0.0,0.0,0.0,0.0,0.9084,0.0,0.0,0.0,0.0,0.0,0.0,0.0,0.0,0.0,0.0,0.0,0.0,0.0,0.0,0.0,0.0,0.0,0.0,0.0,0.0,0.0,0.0,0.0,0.0,0.0,0.0,0.0,0.0,0.0,0.0,0.0,0.0,0.0,0.0,0.0,0.0,0.0,0.0,0.0,0.0,0.0,0.0,0.0,0.0,0.0,0.0,0.0,0.0,0.0,0.0,0.0,0.0,0.0,0.0,0.0,1.3094,1.5628,1.7303,1.7971,1.7647,1.7227,1.6722,1.6557,1.4898,0.0,0.0,0.0,0.0,0.0,0.0,0.0,0.0,0.0,0.0,0.0,0.0,0.0,0.0,0.0,0.0,0.0,0.0,0.0,0.0,0.0,0.0,0.0,0.0,0.0,0.0,0.0,0.0,0.0,0.0,0.0,0.0,0.0,0.0,0.0,0.0,0.0,0.0,0.0,0.0,1.123,1.2327,1.3164,0.0,0.0,0.0,0.0,0.0,0.0,1.0075,0.9199,0.0,0.0,0.0,0.0,0.0,0.0,0.0,0.0,0.0,0.0,0.0,0.0,0.0,0.0,0.0,0.0,0.0,0.0,0.0,0.0,0.0,0.0,0.0,0.0,0.0,0.0,0.0,0.0,0.0,0.0,0.0,0.0,0.0,0.0,0.0,0.0,0.0,0.0,0.0,0.0,0.0,0.0,0.0,0.0,0.0,0.0,0.0,0.0,0.0,0.0,0.0,0.0,0.0,0.0,0.0,1.2545,1.5446,1.733,1.8004,1.7127,1.6657,1.6689,1.6689,1.5088,0.0,0.0,0.0,0.0,0.0,0.0,0.0,0.0,0.0,0.0,0.0,0.0,0.0,0.0,0.0,0.0,0.0,0.0,0.0,0.0,0.0,0.0,0.0,0.0,0.0,0.0,0.0,0.0,0.0,0.0,0.0,0.0,0.0,0.0,0.0,0.0,0.0,0.0,0.0,0.0,0.0,1.304,1.3762,1.2845,0.0,0.0,0.0,0.0,1.2156,1.1039,0.0,0.0,0.0,0.0,0.0,0.0,0.0,0.0,0.0,0.0,0.0,0.0,0.0,0.0,0.0,0.0,0.0,0.0,0.0,0.0,0.0,0.0,0.0,0.0,0.0,0.0,0.0,0.0,0.0,0.0,0.0,0.0,0.0,0.0,0.0,0.0,0.0,0.0,0.0,0.0,0.0,0.0,0.0,0.0,0.0,0.0,0.0,0.0,0.0,0.0,0.0,0.0,0.0,0.0,0.0,0.0,1.1757,1.4694,1.6617,1.7377,1.7858,1.7635,1.6726,1.6689,1.4957,0.0,0.0,0.0,0.0,0.0,0.0,0.0,0.0,0.0,0.0,0.0,0.0,0.0,0.0,0.0,0.0,0.0,0.0,0.0,0.0,0.0,0.0,0.0,0.0,0.0,0.0,0.0,0.0,0.0,0.0,0.0,0.0,0.0,0.0,0.0,0.0,0.0,0.0,0.0,0.0,0.0,1.4115,1.3565,1.3389,1.3317,0.0,0.0,0.0,1.3785,1.3452,0.0,0.0,0.0,0.0,0.0,0.0,0.0,0.0,0.0,0.0,0.0,0.0,0.0,0.0,0.0,0.0,0.0,0.0,0.0,0.0,0.0,0.0,0.0,0.0,0.0,0.0,0.0,0.0,0.0,0.0,0.0,0.0,0.0,0.0,0.0,0.0,0.0,0.0,0.0,0.0,0.0,0.0,0.0,0.0,0.0,0.0,0.0,0.0,0.0,0.0,0.0,0.0,0.0,0.0,0.0,1.0896,1.2857,1.5447,1.7342,1.8433,1.8182,1.7811,1.7339,1.7143,1.5265,0.0,0.0,0.0,0.0,0.0,0.0,0.0,0.0,0.0,0.0,0.0,0.0,0.0,0.0,0.0,0.0,0.0,0.0,0.0,0.0,0.0,0.0,0.0,0.0,0.0,0.0,0.0,0.0,0.0,0.0,0.0,0.0,0.0,0.0,0.0,0.0,0.0,0.0,0.0,0.0,0.0,0.0,1.4935,1.4655,0.0,0.0,0.0,1.3914,1.4007,0.0,0.0,0.0,0.0,0.0,0.0,0.0,0.0,0.0,0.0,0.0,0.0,0.0,0.0,0.0,0.0,0.0,0.0,0.0,0.0,0.0,0.0,0.0,0.0,0.0,0.0,0.0,0.0,0.0,0.0,0.0,0.0,0.0,0.0,0.0,0.0,0.0,0.0,0.0,0.0,0.0,0.0,0.0,0.0,0.0,0.0,0.0,0.0,0.0,0.0,0.0,0.0,0.0,0.0,0.0,0.0,0.0,1.3561,1.6012,1.7932,1.9176,1.8287,1.7862,1.7912,1.7522,0.0,0.0,0.0,0.0,0.0,0.0,0.0,0.0,0.0,0.0,0.0,0.0,0.0,0.0,0.0,0.0,0.0,0.0,0.0,0.0,0.0,0.0,0.0,0.0,0.0,0.0,0.0,0.3361,0.0,0.0,0.0,0.0,0.0,0.0,0.0,0.0,0.0,0.0,0.0,0.0,0.0,0.0,1.4463,1.5595,1.5409,1.5243,0.0,0.0,1.47,1.4406,1.4339,1.3985,0.0,0.0,0.0,0.0,0.0,0.0,0.0,0.0,0.0,0.0,0.0,0.0,0.0,0.0,0.0,0.0,0.0,0.0,0.0,0.0,0.0,0.0,0.0,0.0,0.0,0.0,0.0,0.0,0.0,0.0,0.0,0.0,0.0,0.0,0.0,0.0,0.0,0.0,0.0,0.0,0.0,0.0,0.0,0.0,0.0,0.0,0.0,0.0,0.0,0.0,0.0,0.0,0.0,0.0,0.0,1.2911,1.5802,1.7793,1.877,1.8143,1.7952,1.824,1.7628,1.5332,0.0,0.0,0.0,0.0,0.0,0.0,0.0,0.0,0.0,0.0,0.0,0.0,0.0,0.0,0.0,0.0,0.0,0.0,0.0,0.0,0.0,0.0,0.0,0.0,0.0,0.0,0.0,0.0,0.0,0.0,0.0,0.0,0.0,0.0,0.0,0.0,0.0,0.0,0.0,0.0,0.0,1.4081,1.4469,1.4973,1.542,0.0,0.0,1.5205,1.5598,1.5668,1.5248,1.4008,0.0,0.0,0.0,0.0,0.0,0.0,0.0,0.0,0.0,0.0,0.0,0.0,0.0,0.0,0.0,0.0,0.0,0.0,0.0,0.0,0.0,0.0,0.0,0.0,0.0,0.0,0.0,0.0,0.0,0.0,0.0,0.0,0.0,0.0,0.0,0.0,0.0,0.0,0.0,0.0,0.0,0.0,0.0,0.0,0.0,0.0,0.0,0.0,0.0,0.0,0.0,0.0,0.0,1.1902,1.319,1.6297,1.8208,1.8765,1.8565,1.8486,1.8598,1.816,1.6481,0.0,0.0,0.0,0.0,0.0,0.0,0.0,0.0,0.0,0.0,0.0,0.0,0.0,0.0,0.0,0.0,0.0,0.0,0.0,0.0,0.0,0.0,0.0,0.0,0.0,0.0,0.0,0.0,0.8328,0.8704,0.7797,0.0,0.0,0.0,0.0,0.0,0.0,0.0,0.0,0.0,0.0,1.5309,1.549,1.606,0.0,0.0,1.6332,1.5961,1.5216,1.5674,1.5577,1.4089,1.4285,0.0,0.0,0.0,0.0,0.0,0.0,0.0,0.0,0.0,0.0,0.0,0.0,0.0,0.0,0.0,0.0,0.0,0.0,0.0,0.0,0.0,0.0,0.0,0.0,0.0,0.0,0.0,0.0,0.0,0.0,0.0,0.0,0.0,0.0,0.0,0.0,0.0,0.0,0.0,0.0,0.0,0.0,0.0,0.0,0.0,0.0,0.0,0.0,0.0,0.0,0.0,0.0,1.2189,1.3553,1.6782,1.8676,1.9129,1.9137,1.9066,1.8963,1.8645,1.7326,0.0,0.0,0.0,0.0,0.0,0.0,0.0,0.0,0.0,0.0,0.0,0.0,0.0,0.0,0.0,0.0,0.0,0.0,0.0,0.0,0.0,0.0,0.0,0.0,0.0,0.0,0.0,0.0,0.9308,0.9372,0.8415,0.0,0.0,0.0,0.0,0.0,0.0,0.0,0.0,0.0,0.0,1.5525,1.5497,1.6166,1.6587,1.6469,1.6681,1.635,1.4929,1.5466,1.5406,1.3645,0.0,0.0,0.0,0.0,0.0,0.0,0.0,0.0,0.0,0.0,0.0,0.0,0.0,0.0,0.0,0.0,0.0,0.0,0.0,0.0,0.0,0.0,0.0,0.0,0.0,0.0,0.0,0.0,0.0,0.0,0.0,0.0,0.0,0.0,0.0,0.0,0.0,0.0,0.0,0.0,0.0,0.0,0.0,0.0,0.0,0.0,0.0,0.0,0.0,0.0,0.0,0.0,0.0,1.2287,1.3918,1.7138,1.9145,1.9845,1.9861,1.9702,1.9399,1.901,1.7581,1.4979,0.0,0.0,0.0,0.0,0.0,0.0,0.0,0.0,0.0,0.0,0.0,0.0,0.0,0.0,0.0,0.0,0.0,0.0,0.0,0.0,0.0,0.0,0.0,0.0,0.0,0.0,0.6354,0.7433,0.8425,0.0,0.0,0.0,0.0,0.0,0.0,0.0,0.0,0.0,0.0,1.3964,1.4161,1.3927,1.477,1.5487,1.5449,1.6155,1.6252,1.4955,1.5134,1.4728,0.0,0.0,0.0,0.0,0.0,0.0,0.0,0.0,0.0,0.0,0.0,0.0,0.0,0.0,0.0,0.0,0.0,0.0,0.0,0.0,0.0,0.0,0.0,0.0,0.0,0.0,0.0,0.7989,0.7565,0.0,0.0,0.0,0.0,0.0,0.0,0.0,0.0,0.0,0.0,0.0,1.5842,1.5931,0.0,0.0,0.0,0.0,0.0,0.0,0.0,0.0,0.0,0.0,0.0,0.0,1.2787,1.4798,1.7702,1.9407,1.9893,1.9909,1.9948,2.0067,1.9519,1.7954,1.5309,0.0,0.0,0.0,0.0,0.0,0.0,0.0,0.0,0.0,0.0,0.0,0.0,0.0,0.0,0.0,0.0,0.0,0.0,0.0,0.0,0.0,0.0,0.0,0.0,0.0,0.9453,0.0,0.0,0.0,0.0,0.0,0.0,0.0,0.0,0.0,0.0,0.0,1.2969,1.3177,1.3975,1.4521,1.4512,1.4997,1.5398,0.0,0.0,0.0,0.0,0.0,0.0,0.0,0.0,0.0,0.0,0.0,0.0,0.0,0.0,1.0144,0.9626,0.9038,0.8623,0.8623,0.0,0.0,0.0,0.0,0.0,0.0,0.0,0.0,0.0,0.0,0.0,0.0,0.0,0.0,0.0,0.0,0.9572,0.0,0.0,0.0,0.0,0.0,0.0,0.0,0.0,1.4807,1.6411,1.7508,1.7569,1.7363,0.0,1.7332,1.6026,0.0,0.0,0.0,0.0,0.0,0.0,0.0,0.0,1.3942,1.608,1.8495,1.9884,2.0242,2.0386,2.0472,2.0559,1.9932,1.8712,1.6858,1.5566,1.4375,0.0,0.0,0.0,0.0,0.0,0.0,0.0,0.0,0.0,0.0,0.0,0.0,0.0,0.0,0.0,0.0,0.0,0.0,0.0,0.0,0.0,0.0,0.0,1.1175,0.0,0.0,0.0,0.0,0.0,0.0,0.0,0.0,0.0,1.1362,1.2598,1.3391,1.3119,1.379,1.4291,1.418,0.0,0.0,0.0,0.0,0.0,0.0,0.0,1.3749,1.2566,1.29,1.3134,1.2643,1.2486,1.2233,1.1532,0.0,0.0,1.1151,1.048,1.0026,1.0031,1.0029,1.0042,1.0118,1.0283,1.0604,0.0,0.0,0.0,0.0,0.0,0.0,0.0,0.0,1.1138,1.1335,0.0,1.1876,0.0,0.0,0.0,0.0,0.0,0.0,0.0,0.0,1.7002,1.799,1.831,1.8045,1.7878,1.7902,1.819,1.8217,1.7854,1.5376,0.0,0.0,0.0,0.0,0.0,0.0,1.5672,1.7669,1.9477,2.0567,2.0875,2.1214,2.1238,2.0856,2.0231,1.9708,1.9336,1.7565,1.6265,1.5431,1.1586,0.0,0.0,0.0,0.0,0.0,0.0,0.0,0.0,0.0,0.0,0.0,0.0,0.0,0.0,0.0,0.0,0.0,0.0,0.0,0.0,1.1452,0.0,0.0,0.0,0.0,0.0,0.0,0.0,0.0,0.0,0.0,1.3058,1.3235,1.3303,1.3252,0.0,0.0,0.0,0.0,1.4375,1.4396,1.4803,1.479,1.3833,1.3799,1.3487,1.234,0.0,0.0,1.2247,1.2674,1.281,1.1998,1.2519,1.2838,1.1983,1.1524,1.1249,1.1235,1.1264,1.1326,1.1548,1.1907,1.2319,1.5903,0.0,0.0,0.0,0.0,1.271,1.35,1.5309,1.5025,1.4608,1.4143,1.4215,0.0,0.0,0.0,0.0,0.0,0.0,1.4396,1.6583,1.713,1.8101,1.9423,1.9359,1.9288,1.9296,1.9391,1.9399,1.9323,1.858,1.6441,1.313,0.0,0.0,0.0,0.0,1.6721,1.8191,1.9886,2.0821,2.0899,2.1505,2.1435,2.0628,2.0019,1.9531,1.9203,1.8121,1.7166,1.6337,1.4369,0.0,0.0,0.0,0.0,0.0,0.0,0.0,0.0,0.0,0.0,0.0,0.0,0.0,0.0,0.0,0.0,0.0,0.0,0.0,1.1663,1.3308,1.3534,0.0,0.0,0.0,0.0,0.0,0.0,0.0,0.0,0.0,1.3399,1.35,1.3257,0.0,0.0,1.3027,1.3008,1.3389,1.3723,1.3868,0.0,0.0,0.0,1.328,1.3051,1.2851,1.298,1.3027,1.2824,1.2961,1.3008,1.2763,1.2909,1.298,1.2686,1.2587,1.2516,1.2445,1.2487,1.2572,1.2625,1.2804,1.2885,1.9234,1.7498,1.5508,1.5083,1.5643,1.5128,1.5906,1.7553,1.7466,1.7214,1.6861,1.6977,1.5913,1.3991,1.3441,0.0,0.0,0.0,1.6401,1.8429,1.8582,1.9165,2.0067,2.0242,2.0314,2.0289,2.0289,2.0361,2.0496,2.0496,1.9098,1.6474,0.0,0.0,1.5839,1.6949,1.8226,1.9546,2.0338,2.0998,2.151,2.1976,2.1898,2.131,2.083,2.0275,1.9691,1.919,1.8496,1.7529,1.6189,1.4969,0.0,0.0,0.0,0.0,0.0,0.0,0.0,0.0,0.0,0.0,0.0,0.7811,0.0,0.0,0.0,0.0,1.1863,1.2975,1.4448,1.5005,0.0,0.0,0.0,0.0,0.0,0.0,0.0,1.3349,1.3023,1.2913,1.3352,1.3532,1.339,1.2691,1.2852,1.3117,1.3316,0.0,1.3551,1.3674,1.3589,1.3538,1.3504,1.333,1.3202,1.3321,1.3344,1.3344,1.3344,1.3344,1.3344,1.3344,1.334,1.3316,1.3235,1.3292,1.3278,1.3093,1.307,1.3093,1.3093,1.3164,1.3216,2.192,2.1642,1.8642,1.7313,1.7161,1.7409,1.7846,1.8438,1.8764,1.9105,1.9455,1.9734,1.893,1.7321,1.6055,0.0,0.0,1.8335,1.9231,2.0545,2.0804,2.0805,2.0543,2.0828,2.0953,2.0901,2.0953,2.1127,2.136,2.1402,2.0919,1.9918,1.916,1.8902,1.9136,1.9223,1.9954,2.1317,2.081,2.1106,2.236,2.2364,2.2328,2.23,2.1994,2.1348,2.0445,2.0374,1.9877,1.8793,1.7337,1.6234,1.5575,0.0,0.0,0.0,0.0,0.0,0.0,0.0,0.0,0.0,0.0,0.0,0.0,0.0,0.0,0.0,1.5484,0.0,1.7997,1.6312,0.0,0.0,0.0,1.2476,1.3408,1.2612,1.2441,1.3472,0.0,0.0,0.0,0.0,1.3633,1.3438,1.3444,1.3476,1.3671,1.3665,1.3688,1.3688,1.3688,1.3688,1.367,1.3676,1.3666,1.3646,1.3688,1.3695,1.3695,1.3695,1.3709,1.366,1.3684,1.3674,1.3684,1.3655,1.3638,1.3373,1.324,1.3155,1.3183,1.3316,1.3391,2.1159,2.1102,2.0305,2.0,1.9952,1.9478,1.9382,1.9519,1.9606,1.9686,1.9805,2.0127,2.015,1.9973,1.963,1.987,2.0498,2.0332,2.0754,2.1571,2.1375,2.1417,2.1618,2.1698,2.1498,2.1098,2.1525,2.1545,2.1221,2.1624,2.1853,2.1806,2.1373,2.0628,1.9621,2.0272,2.0791,2.116,2.0821,2.092,2.1475,2.1064,2.0815,2.0808,2.0295,1.9911,1.9664,1.9416,1.9327,1.9436,1.8886,1.8681,1.8898,1.5854,0.0,0.0,0.0,0.0,0.0,0.0,0.0,0.0,0.0,1.2158,1.1683,0.0,1.4623,0.0,1.7004,1.7367,1.5805,1.5602,0.0,0.0,1.3227,1.2966,1.2731,1.2932,1.3189,1.3406,1.3203,1.316,1.3499,1.3495,1.3499,1.3628,1.3652,1.3609,1.3485,1.3594,1.3688,1.3688,1.3688,1.3688,1.3698,1.3688,1.3698,1.3688,1.3693,1.3688,1.3693,1.3688,1.3688,1.3688,1.3688,1.3688,1.3728,1.3688,1.3704,1.3633,1.359,1.3572,1.3572,1.3584,1.3613,2.1385,2.1377,2.1385,2.1408,2.1402,2.0822,2.0575,2.0583,2.0751,2.0848,2.0856,2.1056,2.1221,2.1412,2.1377,2.1576,2.1859,2.1677,2.1749,2.1998,2.1919,2.1927,2.1993,2.2045,2.2002,2.1974,2.2141,2.2134,2.1974,2.2289,2.2273,2.1951,2.1996,2.1353,2.0081,2.0974,2.1364,2.1101,2.0998,2.0892,2.0809,2.0752,2.0701,2.0694,2.0357,2.0075,1.9786,1.9636,1.9411,1.9179,1.9131,1.9216,1.936,1.759,1.6934,0.0,0.0,0.0,0.0,0.0,0.0,0.0,0.0,0.0,0.0,0.0,1.6109,0.0,1.7351,0.0,1.6025,1.5438,1.4731,1.372,1.3409,1.3173,1.2861,1.3112,1.3375,1.3516,1.3339,1.3358,1.3671,1.3624,1.359,1.3674,1.3688,1.368,1.3556,1.3652,1.3688,1.3688,1.3688,1.3731,1.3816,1.3558,1.3499,1.3822,1.3723,1.3626,1.3906,1.3967,1.3967,1.3967,1.3967,1.3944,1.3896,1.3934,1.3981,1.4033,1.4005,1.3934,1.3854,1.3901,1.3967,2.2011,2.2011,2.193,2.1905,2.1877,2.1539,2.1418,2.1492,2.1842,2.2025,2.2055,2.2029,2.2035,2.2055,2.204,2.2175,2.243,2.2466,2.2286,2.2038,2.2345,2.2365,2.2078,2.217,2.2447,2.2868,2.2617,2.2625,2.2831,2.287,2.2345,2.1392,2.183,2.1549,2.0543,2.1509,2.1643,2.0903,2.1009,2.078,2.022,2.0752,2.1038,2.0974,2.0974,2.0723,2.0213,2.0191,1.969,1.87,1.8816,1.8865,1.8645,1.8726,1.8331,0.0,1.719,0.0,0.0,0.0,0.0,0.0,0.0,0.0,0.0,1.6723,1.7151,1.6989,1.6996,1.7027,1.6963,1.5457,1.4502,1.4543,1.3716,1.3216,1.3353,1.3268,1.3316,1.3651,1.3537,1.3529,1.366,1.3688,1.3688,1.3736,1.3625,1.3579,1.3648,1.3699,1.3715,1.3641,1.3544,1.3422,1.355,1.3181,1.3075,1.3725,1.3618,1.3488,1.4007,1.4207,1.4274,1.4298,1.4303,1.4279,1.413,1.4222,1.4336,1.4411,1.4342,1.4274,1.4114,1.4166,1.4303,2.2086,2.203,2.1564,2.1341,2.1341,2.1275,2.149,2.1898,2.1968,2.2146,2.2392,2.2123,2.2148,2.2395,2.2175,2.2127,2.2186,2.2186,2.2164,2.2097,2.2353,2.2458,2.2418,2.2712,2.263,2.2273,2.2415,2.2276,2.1853,2.2142,2.2164,2.1956,2.2038,2.1818,0.0,0.0,0.0,0.0,2.0214,2.0155,1.9626,2.0162,2.0213,1.9764,1.9729,0.0,1.9562,1.9569,1.9486,1.9241,1.9281,0.0,0.0,0.0,0.0,0.0,0.0,0.0,0.0,0.0,0.0,0.0,1.5381,1.5259,1.5714,1.5988,1.6034,1.5857,1.6299,1.624,1.5365,1.495,1.4376,1.3514,1.336,1.3343,1.3391,1.3524,1.3638,1.3704,1.368,1.3641,1.3658,1.3688,1.3759,1.3803,1.3424,1.3176,1.3345,1.3638,1.3673,1.3184,1.2793,1.2538,1.253,1.2408,1.2255,1.2611,1.3052,1.3245,1.3375,1.3831,1.4115,1.4177,1.4402,1.4403,1.424,1.4262,1.4251,1.4355,1.4441,1.4474,1.4267,1.4284,1.4312,2.2364,0.0,2.1788,2.1472,0.0,2.1206,2.1442,2.1853,2.1825,2.1983,2.2305,2.2109,2.2148,2.2282,2.1671,2.1408,2.1394,2.0975,2.0929,2.1195,2.1336,2.1657,2.205,2.2043,2.2068,2.2103,2.2082,2.197,2.1861,2.2022,2.1952,2.1615,2.1645,2.1387,2.0881,2.1057,2.0791,2.0041,2.0041,1.9856,1.943,1.9707,1.9707,1.9395,0.0,0.0,0.0,0.0,0.0,0.0,0.0,0.0,0.0,0.0,0.0,1.8846,1.7787,1.7199,1.7336,1.6381,1.5884,1.6196,1.5455,1.5266,1.6035,1.6129,1.6115,1.5995,1.5895,1.5585,1.5007,1.4551,1.4045,1.3479,1.3471,1.3537,1.3547,1.3652,1.3688,1.3688,1.3688,1.3601,1.3341,1.3324,1.3227,1.3128,1.2817,1.257,1.2739,1.2943,1.2945,1.2625,1.2549,1.2228,1.1653,1.1143,1.092,1.0952,1.0952,1.1146,1.1429,1.2194,1.2631,1.223,1.3044,1.378,1.2979,1.3187,1.3677,1.4011,1.4185,1.4359,1.4505,1.4587,1.4583,2.2423,2.1911,2.1832,2.1489,2.1013,2.1013,2.1222,2.1522,0.0,0.0,0.0,2.2019,2.2009,2.1958,2.1133,2.0773,2.0723,2.0022,1.996,2.0432,2.0514,2.0914,2.1574,2.1361,2.1568,2.2078,2.1746,2.1737,2.2016,2.1969,2.1658,2.1136,2.1173,2.0906,2.0388,2.035,2.0385,2.0417,2.0161,1.9878,1.9555,1.9582,1.9591,1.9468,1.9415,1.9395,1.9395,1.9395,1.9252,1.9018,1.9005,1.8913,1.8742,1.8707,1.8754,1.8839,1.811,1.7636,1.7636,1.6779,1.619,1.6007,1.5157,1.5067,1.6179,1.6057,1.5963,1.6007,1.5308,1.4843,1.4848,1.4162,1.3688,1.3688,1.3688,1.3688,1.3693,1.3756,1.3755,1.375,1.3672,1.3494,1.3071,1.285,1.2675,1.23,1.196,1.1631,1.1518,1.1765,1.2044,1.182,1.1924,1.1813,1.0543,0.9539,0.9142,0.9216,0.8952,0.8834,0.9392,1.0154,1.0386,1.002,1.1344,1.1739,1.1208,1.1622,1.2413,1.3009,1.3144,1.3407,1.4235,1.4432,1.4446,2.1598,2.1204,2.0672,2.0414,2.0332,2.0325,2.0515,2.0893,2.1692,2.2063,2.2076,2.1801,2.1678,2.1647,2.1231,2.1044,2.1037,2.0916,2.0888,0.0,2.1265,2.1492,2.1597,2.1858,2.1986,2.2078,2.1746,2.1621,2.1645,2.1379,2.1202,2.1101,2.1115,2.1076,2.0982,2.0989,2.0435,1.9392,2.0433,2.072,2.0107,2.0365,2.0257,1.9762,1.9499,1.9395,1.9395,1.9401,1.9381,1.9334,1.9334,1.8945,1.8112,1.8025,1.7717,1.6979,1.6779,1.6685,1.6691,1.5841,1.4962,1.4187,1.3924,1.4277,1.5159,1.4409,1.3908,1.4073,1.4018,1.3898,1.3898,1.3788,1.3717,1.3707,1.3698,1.3693,1.3717,1.3833,1.3906,1.3906,1.3588,1.3305,1.2996,1.2574,1.2198,1.2118,1.0966,0.9769,0.9091,1.0169,1.1102,1.0711,1.0771,1.0116,0.853,0.7384,0.7182,0.7705,0.8143,0.8307,0.8402,0.8366,0.8526,0.9347,0.9118,0.9055,0.9516,0.9913,1.0227,1.0429,1.0469,1.0902,1.2444,1.284,1.3288,2.1562,2.1083,2.0825,2.05,2.0217,2.0408,2.0548,2.0748,2.1322,2.1559,2.1541,2.141,2.134,2.1275,2.0671,2.0401,2.0381,1.9907,1.9947,2.0405,2.0557,2.0876,2.133,2.1489,2.1544,2.1527,2.1403,2.1309,2.1322,2.1168,2.1102,2.1116,2.1263,2.1423,2.1577,2.1583,2.1297,2.0689,2.027,1.983,1.9376,1.8957,1.9129,1.9943,1.8864,1.8441,1.8992,1.8471,1.8135,1.8135,1.8165,1.7919,1.7498,1.7492,1.7282,1.6854,1.6351,1.6078,1.6084,1.5176,1.4479,1.4085,1.4029,1.4208,1.4632,1.4006,1.3619,1.3684,1.3788,1.3863,1.3868,1.3958,1.4024,1.4024,1.4024,1.4024,1.4007,1.3729,1.3612,1.3554,1.3063,1.2388,1.1549,1.118,1.0561,0.9946,0.8989,0.8254,0.7572,0.8469,0.9207,0.8834,0.8848,0.8315,0.688,0.5845,0.5478,0.5746,0.6046,0.6243,0.6276,0.6042,0.6207,0.6635,0.6804,0.7169,0.7638,0.8123,0.8585,0.9066,0.9086,0.9863,1.1333,1.2621,1.377,2.1644,2.1086,2.1086,2.0842,2.0417,2.0706,2.0806,2.0826,2.104,2.1102,2.1102,2.1102,2.1102,2.1036,2.0388,2.01,2.0,1.9392,1.9459,2.0047,2.0094,2.0454,2.1056,2.1102,2.1149,2.1203,2.1209,2.1243,2.1303,2.1303,2.1303,2.1336,2.1537,2.1796,2.201,2.2017,2.1753,2.1155,1.9734,1.9117,1.938,1.8005,1.8156,1.9771,1.8152,1.7484,1.8233,1.7545,1.7103,1.7103,1.7103,1.701,1.6806,1.6806,1.6676,1.6435,1.5789,1.5364,1.5333,1.4714,1.4312,1.4312,1.4312,1.4312,1.4284,1.3991,1.3797,1.384,1.3958,1.4038,1.4085,1.4172,1.4312,1.4281,1.4151,1.4034,1.4021,1.3496,1.314,1.3049,1.2322,1.1256,1.0237,0.9614,0.8801,0.7586,0.7147,0.708,0.688,0.678,0.678,0.688,0.7147,0.698,0.5811,0.491,0.4441,0.4307,0.4423,0.46,0.457,0.4439,0.4381,0.4726,0.5296,0.581,0.5738,0.6253,0.6975,0.7424,0.747,0.8238,1.0138,1.2437,1.4256,2.1427,2.1128,2.109,2.1054,2.1015,2.1056,2.1069,2.1076,2.1077,2.1102,2.1059,2.1071,2.1039,2.1096,2.0971,2.0848,2.0848,2.0864,2.0813,2.0886,2.0989,2.1036,2.1136,2.1091,2.1249,2.1515,2.1549,2.1662,2.1844,2.1871,2.1923,2.1904,2.1964,2.1924,2.1951,2.1958,2.0964,1.8883,1.8644,1.956,2.1398,1.8982,1.8218,1.9586,1.797,1.7134,1.7266,1.7139,1.7078,1.7103,1.7058,1.6687,1.596,1.5841,1.5462,1.4692,1.4509,1.4437,1.4442,1.4339,1.4331,1.4312,1.4331,1.4336,1.4326,1.418,1.4128,1.4182,1.4135,1.4135,1.4265,1.4286,1.4323,1.4243,1.3816,1.3389,1.3339,1.2912,1.2568,1.2568,1.1214,1.0274,0.9768,0.8577,0.7296,0.6209,0.6046,0.5811,0.5109,0.4941,0.4914,0.508,0.615,0.642,0.505,0.4409,0.432,0.432,0.4357,0.4384,0.4401,0.4427,0.4465,0.4478,0.4596,0.48,0.4763,0.4785,0.4925,0.5449,0.5595,0.5799,0.8023,1.0898,1.3309,2.1216,2.1102,2.1102,2.1102,2.1122,2.1296,2.1402,2.1338,2.0721,2.0464,2.0336,1.9614,1.9603,2.0183,2.0214,1.9896,1.9284,1.9252,1.969,2.0381,2.0464,2.0838,2.1584,2.163,2.1697,2.1836,2.1843,2.1897,2.1964,2.2017,2.1681,2.1238,2.1806,2.1553,2.0347,2.0946,2.0488,1.8766,1.7951,1.842,1.9609,1.7434,1.6861,1.8256,1.6802,1.6132,1.6604,1.6159,1.5813,1.5813,1.5782,1.5622,1.5248,1.5216,1.5061,1.4713,1.4676,1.4649,1.4644,1.4644,1.4644,1.4681,1.4644,1.4649,1.4644,1.4597,1.4459,1.4125,1.4219,1.4392,1.4428,1.4578,1.4515,1.4125,1.3803,1.3476,1.3025,1.1877,1.1141,1.1013,0.9669,0.8346,0.7646,0.6479,0.5512,0.501,0.4977,0.4775,0.4374,0.4307,0.4323,0.4455,0.5185,0.5253,0.4501,0.4338,0.4384,0.4407,0.4431,0.4451,0.4478,0.4452,0.4426,0.4474,0.4485,0.4511,0.455,0.4553,0.4571,0.4646,0.5319,0.6114,0.7467,0.9427,1.1427,2.1349,2.1349,2.1349,2.1136,2.0828,2.107,2.0948,2.0554,1.9771,1.9474,1.9364,1.8436,1.8253,1.874,1.9028,1.8714,1.8066,1.8001,1.8512,1.9403,1.948,2.0168,2.1346,2.1431,2.1687,2.2051,2.2104,2.2144,2.2165,2.1826,2.1301,2.0753,2.1156,2.0609,1.9185,1.9915,1.9705,1.8379,1.7355,1.7201,1.7487,1.5906,1.5799,1.7342,1.5896,1.5285,1.5991,1.5318,1.4903,1.4898,1.4903,1.4903,1.4903,1.4903,1.4903,1.4903,1.4903,1.4903,1.4903,1.4903,1.4903,1.4903,1.4735,1.4637,1.467,1.48,1.4502,1.3689,1.3537,1.3491,1.4097,1.4256,1.4104,1.3641,1.328,1.2667,1.2049,1.0538,0.9455,0.9321,0.8097,0.6648,0.5644,0.4876,0.4407,0.4374,0.434,0.4307,0.4311,0.4322,0.435,0.4392,0.4421,0.4469,0.4425,0.4443,0.4469,0.4476,0.4523,0.4518,0.4552,0.4506,0.4499,0.4585,0.4579,0.4576,0.4565,0.4622,0.463,0.4855,0.5493,0.6248,0.6479,0.7941,0.938,2.1984,2.1931,2.1937,2.115,2.0092,2.0065,1.9378,1.8425,1.817,1.81,1.8117,1.7916,1.748,1.6764,1.7609,1.8001,1.7937,1.784,1.7927,1.8128,1.8117,1.8809,2.0045,2.0097,2.0859,2.1957,2.201,2.2223,2.2535,2.1512,2.0943,2.0736,1.9754,1.9061,1.8719,1.8837,1.8301,1.7119,1.6835,1.6328,1.5358,1.5015,1.5541,1.6625,1.5616,1.4931,1.4996,1.4968,1.4903,1.4903,1.4903,1.4903,1.4903,1.4903,1.4903,1.4903,1.4903,1.4903,1.488,1.4852,1.4828,1.4758,1.4289,1.3958,1.3993,1.4356,1.4089,1.2997,1.1846,1.1663,1.2557,1.3017,1.2951,1.2684,1.1398,1.0632,1.0381,0.8798,0.7802,0.7578,0.6726,0.5649,0.4575,0.434,0.4307,0.4308,0.4308,0.4312,0.4324,0.436,0.4395,0.4417,0.445,0.4515,0.4482,0.45,0.4474,0.4526,0.4589,0.4571,0.4627,0.4646,0.467,0.4685,0.4678,0.4679,0.4689,0.4692,0.4688,0.4942,0.5481,0.5967,0.5604,0.691,0.81,2.2017,2.1898,2.109,2.0426,1.9948,1.9322,1.8746,1.8279,1.7582,1.7287,1.713,1.6421,1.5806,1.5481,1.5839,1.6001,1.6034,1.5996,1.6459,1.72,1.7315,1.8005,1.9191,1.9308,1.9552,2.006,2.0157,2.0206,2.0279,1.983,1.9163,1.8579,1.8781,1.81,1.6807,1.7201,1.696,1.5777,1.5626,1.5391,1.4978,1.4903,1.5165,1.5546,1.517,1.4903,1.4903,1.4903,1.4903,1.4903,1.4903,1.4903,1.4903,1.4903,1.4903,1.4903,1.4903,1.4763,1.4444,1.4367,1.4221,1.3903,1.368,1.3498,1.3436,1.3278,1.288,1.2348,1.1509,1.0995,1.0867,1.1888,1.2355,1.1266,1.0575,0.9634,0.8589,0.7302,0.646,0.6349,0.5559,0.4711,0.4475,0.4307,0.4307,0.4311,0.4341,0.4362,0.4373,0.4414,0.4497,0.4535,0.4563,0.4591,0.4634,0.4571,0.4565,0.4633,0.4659,0.4663,0.4678,0.4677,0.4693,0.4693,0.47,0.4701,0.4697,0.4697,0.4701,0.481,0.5389,0.5353,0.4773,0.5898,0.6547,2.2305,2.2091,2.0855,2.002,1.9546,1.8439,1.7736,1.7314,1.6576,1.6247,1.6057,1.5283,1.4903,1.4903,1.4903,1.4903,1.4903,1.4903,1.5395,1.6204,1.6247,1.696,1.8056,1.8256,1.8501,1.8837,1.8882,1.8916,1.8912,1.8553,1.7855,1.7158,1.7561,1.6803,1.5335,1.582,1.5744,1.5015,1.4903,1.4927,1.4974,1.4931,1.4936,1.4974,1.4931,1.4903,1.4903,1.4903,1.4903,1.4903,1.4903,1.4903,1.4903,1.4903,1.4903,1.4903,1.4903,1.4627,1.4163,1.4067,1.3856,1.3267,1.3062,1.2956,1.2902,1.2259,1.1901,1.1695,1.0903,0.9996,0.9793,1.0483,1.0625,0.9521,0.9071,0.8401,0.7161,0.609,0.5504,0.5319,0.4812,0.4374,0.4309,0.4327,0.4337,0.4338,0.4387,0.4424,0.4432,0.451,0.4557,0.4565,0.4624,0.4651,0.4674,0.4657,0.4646,0.4673,0.4681,0.4696,0.4701,0.4701,0.4701,0.4701,0.4701,0.4701,0.4701,0.4701,0.4701,0.4701,0.481,0.4918,0.4701,0.4701,0.5426,2.2873,2.2636,2.1442,2.0062,1.8892,1.7508,1.6148,1.5316,1.5096,1.5195,1.5251,1.4974,1.4974,1.4941,1.4979,1.4936,1.496,1.4969,1.5016,1.51,1.5091,1.5746,1.6871,1.6946,1.7523,1.8508,1.8748,1.8828,1.8789,1.7769,1.7123,1.6918,1.5994,1.5514,1.4927,1.5115,1.5049,1.4931,1.4931,1.5007,1.5148,1.5016,1.5012,1.5139,1.5016,1.4917,1.4903,1.4903,1.4903,1.4903,1.4903,1.4903,1.4903,1.4903,1.4903,1.4833,1.4833,1.4543,1.3923,1.389,1.3604,1.3006,1.2543,1.2251,1.2166,1.1625,1.118,1.099,0.9963,0.9033,0.9008,0.8519,0.7984,0.7556,0.7026,0.6411,0.5893,0.5076,0.4408,0.4423,0.4313,0.4311,0.4322,0.4362,0.4395,0.4406,0.4446,0.4519,0.4524,0.4571,0.4605,0.4623,0.4652,0.4686,0.4696,0.47,0.4699,0.47,0.4697,0.4701,0.4701,0.4701,0.4701,0.4701,0.4701,0.4701,0.4701,0.4701,0.4701,0.4701,0.4701,0.4701,0.4701,0.4701,0.4701,2.29,2.262,2.0591,1.9516,1.8829,1.692,1.5716,1.5399,1.5399,1.5399,1.5399,1.5399,1.5361,1.5361,1.5366,1.5395,1.5399,1.539,1.5215,1.4997,1.5224,1.5467,1.5734,1.5918,1.6228,1.6558,1.6636,1.6666,1.6683,1.6337,1.6099,1.5977,1.5692,1.5461,1.5376,1.5395,1.5304,1.5125,1.5111,1.5144,1.5195,1.5139,1.5139,1.5181,1.5134,1.5045,1.4908,1.4903,1.4903,1.4903,1.4903,1.4903,1.4903,1.4903,1.4702,1.4268,1.4207,1.3714,1.2777,1.2696,1.257,1.2073,1.1836,1.1786,1.1673,1.0834,1.0301,1.0152,0.907,0.8047,0.7411,0.7017,0.6698,0.658,0.626,0.5684,0.509,0.4601,0.4365,0.432,0.4345,0.4367,0.438,0.4421,0.449,0.4462,0.4542,0.4581,0.4589,0.4629,0.467,0.4677,0.4699,0.4701,0.4701,0.4701,0.4701,0.4701,0.4701,0.4701,0.4701,0.4701,0.4701,0.4701,0.4701,0.4701,0.4701,0.4701,0.4701,0.4701,0.4701,0.4701,0.4701,0.4701,0.4701,2.29,2.262,2.0243,1.9209,1.8914,1.6625,1.5598,1.5598,1.5598,1.5598,1.5594,1.5594,1.5598,1.5598,1.5598,1.5598,1.5603,1.5665,1.5523,1.5233,1.5447,1.5513,1.5371,1.5523,1.5598,1.5598,1.5598,1.5636,1.5707,1.5707,1.5707,1.5741,1.5707,1.5608,1.5508,1.5546,1.5456,1.5276,1.5309,1.5389,1.5432,1.5394,1.5389,1.5441,1.5394,1.5219,1.5035,1.512,1.5092,1.4936,1.4903,1.4903,1.487,1.467,1.4338,1.3973,1.3588,1.3062,1.2135,1.2191,1.1922,1.1493,1.1497,1.1328,1.0934,1.0075,0.9732,0.9123,0.8083,0.7065,0.6522,0.5899,0.5657,0.5581,0.5537,0.5226,0.4573,0.4357,0.4328,0.4342,0.4375,0.4405,0.4433,0.4478,0.4549,0.4525,0.4604,0.4644,0.4651,0.4674,0.4692,0.47,0.4701,0.4701,0.4701,0.4701,0.4701,0.4701,0.4701,0.4701,0.4701,0.4701,0.4701,0.4701,0.4701,0.4701,0.4701,0.4701,0.4701,0.4701,0.4701,0.4701,0.4701,0.4701,0.4701,2.2688,2.2408,2.013,1.9078,1.8782,1.6622,1.5679,1.5655,1.566,1.5674,1.5665,1.5693,1.5669,1.565,1.5698,1.5698,1.5674,1.583,1.5826,1.5674,1.5679,1.5669,1.5674,1.5698,1.5707,1.5688,1.5679,1.5755,1.5906,1.5916,1.5916,1.5916,1.5901,1.5736,1.5503,1.5551,1.5556,1.5342,1.5474,1.5688,1.5811,1.5698,1.5679,1.584,1.5688,1.5474,1.5314,1.5437,1.5371,1.4983,1.4969,1.4955,1.4772,1.4267,1.3983,1.3697,1.3108,1.2543,1.2086,1.1962,1.1856,1.1344,1.1421,1.1093,1.0117,0.9702,0.9097,0.81,0.6962,0.6271,0.6011,0.5382,0.4775,0.4635,0.4749,0.4652,0.4515,0.4382,0.4356,0.439,0.4407,0.4428,0.452,0.4576,0.4607,0.4623,0.466,0.4681,0.469,0.4694,0.47,0.4701,0.4701,0.4701,0.4701,0.4701,0.4701,0.4701,0.4701,0.4701,0.4701,0.4701,0.4701,0.4701,0.4701,0.4701,0.4701,0.4701,0.4701,0.4701,0.4701,0.4701,0.4701,0.4701,0.4701,2.0399,2.0213,1.883,1.8256,1.8036,1.6623,1.6048,1.6053,1.6043,1.6024,1.6043,1.6053,1.6029,1.6053,1.6043,1.6058,1.6048,1.6095,1.6114,1.6067,1.6023,1.6053,1.6053,1.6053,1.6043,1.6034,1.6015,1.6081,1.6129,1.6114,1.6084,1.6133,1.6114,1.6077,1.5961,1.5956,1.5815,1.5555,1.5712,1.5759,1.5717,1.5792,1.584,1.5873,1.5879,1.5712,1.5532,1.556,1.548,1.52,1.5314,1.5046,1.4412,1.4191,1.3658,1.2734,1.245,1.2014,1.1441,1.1486,1.1521,1.1415,1.1381,1.1093,0.9946,0.9025,0.8102,0.6934,0.5779,0.5136,0.5052,0.4753,0.4546,0.4537,0.4476,0.4462,0.4467,0.4424,0.4398,0.4451,0.4532,0.456,0.459,0.4631,0.467,0.4675,0.4688,0.4701,0.4701,0.4701,0.4701,0.4701,0.4701,0.4701,0.4701,0.4701,0.4701,0.4701,0.4701,0.4701,0.4701,0.4701,0.4701,0.4701,0.4701,0.4701,0.4701,0.4701,0.4701,0.4701,0.4701,0.4701,0.4701,0.4701,0.4701,1.95,1.939,1.8352,1.7896,1.7761,1.6673,1.6223,1.6223,1.6223,1.6223,1.6223,1.6223,1.6223,1.6223,1.6183,1.6219,1.6223,1.6223,1.6214,1.6214,1.6204,1.6204,1.6209,1.6219,1.6223,1.6223,1.6223,1.6214,1.6178,1.6223,1.6223,1.6214,1.6223,1.6136,1.6053,1.6171,1.6027,1.5816,1.5916,1.5963,1.5882,1.5963,1.6015,1.6029,1.6024,1.5958,1.5829,1.5463,1.5251,1.5277,1.517,1.4778,1.4204,1.3591,1.2952,1.2019,1.1806,1.1422,1.118,1.1209,1.1039,1.0719,1.0722,0.9891,0.8619,0.7675,0.691,0.5782,0.5024,0.471,0.4598,0.4534,0.4442,0.4412,0.4402,0.442,0.4477,0.4454,0.4465,0.4511,0.4586,0.4622,0.4642,0.4681,0.4696,0.47,0.4697,0.4701,0.4701,0.4701,0.4701,0.4701,0.4701,0.4701,0.4701,0.4701,0.4701,0.4701,0.4701,0.4701,0.4701,0.4701,0.4701,0.4701,0.4701,0.4701,0.4701,0.4701,0.4701,0.4701,0.4701,0.4701,0.4701,0.4701,0.4701,1.9186,1.9082,1.8147,1.7721,1.7515,1.6633,1.6223,1.6223,1.6223,1.6223,1.6223,1.6223,1.6223,1.6223,1.6223,1.6223,1.6223,1.6223,1.6223,1.6223,1.6223,1.6223,1.6223,1.6223,1.6223,1.6223,1.6223,1.6223,1.6223,1.6223,1.6223,1.6223,1.6223,1.6124,1.6062,1.6138,1.6056,1.5953,1.6072,1.6133,1.61,1.6133,1.6171,1.6141,1.5924,1.5974,1.5794,1.5317,1.492,1.5423,1.4729,1.4246,1.3891,1.2666,1.2101,1.1885,1.1454,1.1203,1.1137,1.1056,1.0645,0.9879,0.9642,0.8601,0.7071,0.6549,0.6114,0.4991,0.4727,0.4627,0.4522,0.444,0.4379,0.4348,0.4371,0.4431,0.4504,0.4521,0.455,0.4608,0.4619,0.4648,0.4679,0.4701,0.4701,0.4701,0.4701,0.4701,0.4701,0.4701,0.4701,0.4701,0.4701,0.4701,0.4701,0.4701,0.4701,0.4701,0.4701,0.4701,0.4701,0.4701,0.4701,0.4701,0.4701,0.4701,0.4701,0.4701,0.4701,0.4701,0.4701,0.4701,0.4701,0.4701,0.4701,1.688,1.688,1.6638,1.6567,1.6532,1.6289,1.6223,1.6223,1.6223,1.6223,1.6223,1.6223,1.6223,1.6223,1.6223,1.6223,1.6223,1.6223,1.6223,1.6223,1.6223,1.6223,1.6223,1.6223,1.6223,1.6223,1.6223,1.6223,1.6223,1.6223,1.6223,1.6223,1.6183,1.616,1.6167,1.6131,1.6114,1.5972,1.611,1.6093,1.6058,1.6133,1.619,1.611,1.5646,1.5495,1.5544,1.5078,1.4722,1.4617,1.4218,1.3527,1.2994,1.2687,1.2232,1.1723,1.1516,1.1416,1.1235,1.0635,1.0039,0.9582,0.8734,0.7855,0.6629,0.6309,0.5822,0.4972,0.4616,0.4531,0.4407,0.4353,0.4326,0.433,0.4397,0.4465,0.4486,0.4561,0.4615,0.4657,0.4677,0.4686,0.4697,0.4701,0.4701,0.4701,0.4701,0.4701,0.4701,0.4701,0.4701,0.4701,0.4701,0.4701,0.4701,0.4701,0.4701,0.4701,0.4701,0.4701,0.4701,0.4701,0.4701,0.4701,0.4701,0.4701,0.4701,0.4701,0.4701,0.4701,0.4701,0.4701,0.4701,0.4701,0.4718,1.6223,1.6223,1.6223,1.6223,1.6223,1.6223,1.6223,1.6223,1.6223,1.6223,1.6223,1.6223,1.6223,1.6223,1.6223,1.6223,1.6223,1.6223,1.6223,1.6223,1.6223,1.6223,1.6223,1.6223,1.6223,1.6223,1.6223,1.6223,1.6223,1.6223,1.6223,1.6223,1.6223,1.6183,1.6223,1.6223,1.6162,1.6095,1.6148,1.6152,1.6086,1.6043,1.6001,1.5909,1.5498,1.5275,1.5055,1.4418,1.3898,1.3488,1.3017,1.2672,1.2354,1.2235,1.1878,1.1574,1.1453,1.1125,1.0616,1.0066,0.9308,0.8284,0.7529,0.6667,0.5879,0.5556,0.534,0.4818,0.4574,0.4479,0.4361,0.4319,0.4311,0.4327,0.4413,0.4477,0.4496,0.4596,0.4662,0.4693,0.4697,0.4699,0.4701,0.4701,0.4701,0.4701,0.4701,0.4701,0.4701,0.4701,0.4701,0.4701,0.4701,0.4701,0.4701,0.4701,0.4701,0.4701,0.4701,0.4701,0.4701,0.4701,0.4701,0.4701,0.4701,0.4701,0.4701,0.4701,0.4701,0.4701,0.4701,0.4701,0.4711,0.473,0.4749,1.6223,1.6223,1.6223,1.6223,1.6223,1.6223,1.6223,1.6223,1.6223,1.6223,1.6223,1.6223,1.6223,1.6223,1.6223,1.6223,1.6223,1.6223,1.6223,1.6223,1.6223,1.6223,1.6223,1.6223,1.6223,1.6223,1.6223,1.6223,1.6223,1.6223,1.6223,1.6223,1.6223,1.6223,1.6223,1.6223,1.6209,1.6195,1.6204,1.6167,1.6133,1.5985,1.5862,1.5375,1.5103,1.4714,1.4155,1.3521,1.2931,1.2277,1.1761,1.1761,1.1816,1.1745,1.1211,1.1147,1.0996,1.0499,0.9604,0.9095,0.8169,0.6295,0.6017,0.5618,0.4939,0.4758,0.4716,0.4651,0.4496,0.4436,0.4388,0.4338,0.4309,0.4328,0.4413,0.4473,0.4503,0.4626,0.4688,0.4699,0.4701,0.4701,0.4701,0.4701,0.4701,0.4701,0.4701,0.4701,0.4701,0.4701,0.4701,0.4701,0.4701,0.4701,0.4701,0.4701,0.4701,0.4701,0.4701,0.4701,0.4701,0.4701,0.4701,0.4701,0.4701,0.4703,0.4703,0.4701,0.4701,0.4701,0.4705,0.4708,0.473,0.4759,0.4789,1.6223,1.6223,1.6223,1.6223,1.6223,1.6223,1.6223,1.6223,1.6223,1.6223,1.6223,1.6223,1.6223,1.6223,1.6223,1.6223,1.6223,1.6223,1.6223,1.6223,1.6223,1.6223,1.6223,1.6223,1.6223,1.6223,1.6223,1.6223,1.6223,1.6223,1.6223,1.6223,1.6223,1.6223,1.6223,1.6223,1.6223,1.6223,1.6219,1.6148,1.6058,1.592,1.5536,1.4792,1.4257,1.3663,1.3152,1.2586,1.2131,1.1925,1.1914,1.1591,1.1252,1.1263,1.0772,1.015,1.0003,0.9606,0.8491,0.7528,0.6958,0.6239,0.5581,0.5046,0.4695,0.4601,0.4574,0.4526,0.4446,0.4391,0.4328,0.4313,0.4309,0.4334,0.4398,0.4476,0.4539,0.4612,0.4693,0.47,0.47,0.4701,0.4701,0.4701,0.4701,0.4701,0.4701,0.4701,0.4701,0.4701,0.4701,0.4701,0.4701,0.4701,0.4701,0.4701,0.4701,0.4701,0.4701,0.4701,0.4701,0.4701,0.4703,0.4716,0.4712,0.4705,0.4705,0.471,0.4714,0.4722,0.4721,0.4722,0.4756,0.4797,0.4816,1.6223,1.6223,1.6223,1.6223,1.6223,1.6223,1.6223,1.6223,1.6223,1.6223,1.6223,1.6223,1.6223,1.6223,1.6223,1.6223,1.6223,1.6223,1.6223,1.6223,1.6223,1.6223,1.6183,1.6183,1.6223,1.6223,1.6223,1.6148,1.6223,1.6223,1.6148,1.6223,1.6223,1.6223,1.6223,1.6223,1.6183,1.6183,1.6174,1.6131,1.5955,1.5647,1.4877,1.4241,1.3465,1.2857,1.2342,1.2094,1.1355,1.0662,1.052,1.0304,0.9988,0.9704,0.9625,0.9239,0.9041,0.8466,0.7453,0.662,0.6219,0.5533,0.4953,0.4707,0.4619,0.4575,0.4521,0.442,0.4414,0.4373,0.4318,0.4308,0.4307,0.432,0.4388,0.4446,0.4493,0.4604,0.4655,0.4693,0.47,0.4701,0.4701,0.4701,0.4701,0.4701,0.4701,0.4701,0.4701,0.4701,0.4701,0.4701,0.4701,0.4701,0.4701,0.4701,0.4701,0.4701,0.4704,0.4704,0.4711,0.4715,0.4733,0.4752,0.474,0.473,0.4743,0.476,0.4752,0.4754,0.4743,0.4764,0.4808,0.484,0.486,1.6223,1.6223,1.6223,1.6223,1.6223,1.6223,1.6223,1.6223,1.6223,1.6223,1.6223,1.6223,1.6223,1.6223,1.6223,1.6223,1.6223,1.6223,1.6223,1.6148,1.5966,1.5931,1.5931,1.5789,1.5612,1.547,1.5541,1.5824,1.5855,1.586,1.586,1.5576,1.5687,1.5758,1.5612,1.5718,1.5895,1.6001,1.6148,1.6169,1.5712,1.4841,1.3992,1.3562,1.291,1.2177,1.1247,1.1092,1.0263,0.9343,0.887,0.8753,0.8322,0.7867,0.7863,0.8182,0.7919,0.7197,0.6402,0.6005,0.5569,0.4955,0.4724,0.4649,0.4586,0.4478,0.4407,0.4338,0.4342,0.4361,0.4316,0.4307,0.4307,0.432,0.4362,0.4421,0.448,0.4544,0.4642,0.4674,0.4693,0.4701,0.4701,0.4701,0.4701,0.4701,0.4701,0.4701,0.4701,0.4701,0.4701,0.4701,0.4701,0.4701,0.4701,0.4701,0.4701,0.4701,0.4707,0.4711,0.4723,0.4734,0.4764,0.4804,0.4754,0.4748,0.4762,0.4811,0.4774,0.4786,0.4783,0.4803,0.4846,0.4864,0.4909,1.6223,1.6183,1.6183,1.6223,1.6148,1.6112,1.6148,1.6112,1.6077,1.6223,1.6006,1.6112,1.6077,1.6042,1.6042,1.6112,1.6112,1.6006,1.5935,1.5824,1.539,1.5141,1.5035,1.4435,1.447,1.4506,1.4363,1.4573,1.4924,1.5106,1.4857,1.447,1.4435,1.4256,1.4541,1.5075,1.5141,1.5279,1.5784,1.5727,1.488,1.3857,1.3027,1.2409,1.1881,1.1075,0.9782,0.9516,0.8881,0.7951,0.7694,0.7429,0.6917,0.6515,0.5902,0.5776,0.586,0.6114,0.5244,0.51,0.5064,0.4727,0.4659,0.4594,0.4527,0.4414,0.4348,0.4318,0.432,0.4322,0.4312,0.4307,0.4307,0.4322,0.4353,0.4414,0.4474,0.4512,0.4611,0.4674,0.4699,0.4701,0.4701,0.4701,0.4701,0.4701,0.4701,0.4701,0.4701,0.4701,0.4701,0.4701,0.4701,0.4701,0.4701,0.4701,0.4716,0.4712,0.4722,0.4696,0.4728,0.4758,0.4798,0.4824,0.4812,0.4781,0.4843,0.4812,0.4803,0.4812,0.4837,0.486,0.488,0.4902,0.4919,1.5532,1.5492,1.5496,1.5252,1.4937,1.4897,1.4901,1.4897,1.4897,1.4897,1.4897,1.4897,1.4897,1.4972,1.4901,1.4861,1.4897,1.4968,1.4897,1.4933,1.4573,1.4395,1.4328,1.4078,1.39,1.3793,1.3829,1.3757,1.3999,1.4177,1.4145,1.3936,1.3864,1.3971,1.3793,1.4604,1.4644,1.4578,1.4599,1.444,1.3779,1.2978,1.2037,1.1043,1.0578,0.9519,0.8581,0.8148,0.7648,0.6813,0.6615,0.6191,0.5565,0.5256,0.4983,0.4849,0.5117,0.517,0.4809,0.4701,0.47,0.4685,0.4638,0.4572,0.4451,0.439,0.4337,0.4309,0.4307,0.4307,0.4307,0.4307,0.4307,0.4318,0.4338,0.4401,0.4455,0.4528,0.4578,0.4644,0.4701,0.4701,0.4701,0.4701,0.4701,0.4701,0.4701,0.4701,0.4701,0.4701,0.4701,0.4701,0.4701,0.4701,0.4701,0.4703,0.474,0.4747,0.4764,0.4747,0.4754,0.4791,0.4858,0.4886,0.485,0.4864,0.4889,0.488,0.4861,0.4871,0.4885,0.4902,0.4919,0.4939,0.4954,1.4604,1.4462,1.464,1.4395,1.39,1.39,1.3936,1.39,1.3936,1.3936,1.39,1.3936,1.3936,1.39,1.4011,1.4078,1.3936,1.39,1.39,1.3864,1.3722,1.365,1.3507,1.3436,1.3225,1.3368,1.3118,1.2936,1.2828,1.2971,1.3222,1.3329,1.3082,1.319,1.3472,1.3896,1.4106,1.4066,1.372,1.3381,1.2824,1.1935,1.0947,1.0008,0.9114,0.8182,0.7281,0.708,0.6579,0.5744,0.5512,0.5179,0.4669,0.4609,0.4636,0.46,0.4796,0.4789,0.4729,0.47,0.4693,0.466,0.4601,0.4474,0.4397,0.4375,0.4364,0.4309,0.4307,0.4307,0.4307,0.4307,0.4307,0.4307,0.4313,0.4377,0.4472,0.4512,0.4559,0.4623,0.4675,0.4701,0.4701,0.4701,0.4701,0.4701,0.4701,0.4701,0.4701,0.4701,0.4701,0.4701,0.4701,0.4711,0.4732,0.4737,0.4764,0.4788,0.4806,0.4804,0.4814,0.4835,0.4854,0.488,0.491,0.4925,0.4937,0.4927,0.4921,0.4926,0.4933,0.4938,0.4992,0.501,0.5018,1.3579,1.3003,1.3686,1.39,1.3793,1.39,1.3864,1.3686,1.3757,1.3761,1.365,1.3793,1.3686,1.3757,1.3615,1.365,1.3797,1.3864,1.3686,1.3472,1.3257,1.2936,1.2721,1.2366,1.1975,1.1939,1.2119,1.2011,1.176,1.2008,1.1975,1.1799,1.2155,1.1903,1.2115,1.2792,1.3412,1.3325,1.2972,1.2422,1.1717,1.0752,0.956,0.8993,0.8115,0.7114,0.6111,0.6012,0.5677,0.4676,0.4641,0.4662,0.4443,0.4406,0.4465,0.4574,0.4618,0.4653,0.4686,0.4697,0.4668,0.4604,0.4493,0.4414,0.4341,0.432,0.4309,0.4309,0.4307,0.4307,0.4307,0.4307,0.4307,0.4307,0.4313,0.4352,0.4412,0.4463,0.4512,0.4572,0.4653,0.4689,0.4701,0.4701,0.4701,0.4701,0.4701,0.4701,0.4701,0.4701,0.4701,0.4701,0.4701,0.4723,0.477,0.4795,0.4822,0.4807,0.4824,0.4868,0.488,0.4892,0.4899,0.4923,0.4954,0.5008,0.5016,0.4961,0.4954,0.4969,0.5014,0.5006,0.5004,0.5015,0.5021,1.2796,1.2119,1.237,1.2477,1.2474,1.2474,1.2474,1.2474,1.2477,1.2477,1.251,1.2474,1.2474,1.251,1.2474,1.2474,1.2477,1.251,1.2545,1.2442,1.2191,1.2079,1.1903,1.1832,1.1616,1.158,1.158,1.158,1.1616,1.158,1.158,1.1616,1.158,1.1616,1.1796,1.1965,1.2426,1.2388,1.166,1.073,1.0204,0.9123,0.7933,0.7098,0.6913,0.5945,0.5111,0.4943,0.4642,0.4407,0.4307,0.4326,0.4349,0.4375,0.4436,0.4549,0.4583,0.4637,0.4683,0.4693,0.4657,0.4568,0.4505,0.4407,0.4318,0.4307,0.4307,0.4307,0.4307,0.4307,0.4307,0.4307,0.4307,0.4307,0.4319,0.4343,0.4386,0.444,0.4496,0.4589,0.4648,0.4697,0.4701,0.4701,0.4701,0.4701,0.4701,0.4701,0.4701,0.4701,0.4701,0.4701,0.4701,0.4721,0.4767,0.4819,0.4837,0.4864,0.4845,0.4884,0.4927,0.4946,0.4956,0.5018,0.5022,0.5021,0.5019,0.5021,0.5021,0.5021,0.5021,0.5019,0.5021,0.5022,0.5022,1.2115,1.1619,1.158,1.158,1.158,1.158,1.158,1.158,1.1655,1.158,1.158,1.158,1.158,1.158,1.1616,1.1652,1.1724,1.1724,1.1652,1.1688,1.1688,1.158,1.158,1.158,1.158,1.158,1.158,1.158,1.158,1.158,1.158,1.158,1.158,1.158,1.158,1.1609,1.1666,1.1266,1.0563,0.9279,0.8892,0.7733,0.6877,0.6024,0.5713,0.5176,0.4607,0.4475,0.4407,0.434,0.4307,0.4307,0.4323,0.4352,0.4407,0.447,0.4526,0.4619,0.4673,0.4652,0.4611,0.4535,0.4468,0.4379,0.4331,0.4307,0.4307,0.4307,0.4307,0.4307,0.4307,0.4307,0.4307,0.4307,0.4307,0.4328,0.4372,0.4422,0.4477,0.457,0.4634,0.4701,0.4701,0.4701,0.4701,0.4701,0.4701,0.4701,0.4701,0.4701,0.4701,0.4701,0.4701,0.4727,0.4722,0.4779,0.4843,0.4933,0.4914,0.493,0.4961,0.4977,0.5022,0.5022,0.5022,0.5022,0.5022,0.5022,0.5022,0.5022,0.5022,0.5022,0.5022,0.5022,0.5022,1.1655,1.158,1.158,1.158,1.158,1.158,1.158,1.158,1.158,1.158,1.158,1.158,1.158,1.158,1.158,1.158,1.158,1.158,1.158,1.158,1.158,1.158,1.158,1.158,1.158,1.158,1.14,1.1293,1.1436,1.1002,1.1145,1.1181,1.093,1.1181,1.1508,1.1512,1.0998,1.0105,0.9732,0.8792,0.7856,0.6683,0.5955,0.558,0.4981,0.4475,0.4374,0.4307,0.4307,0.4307,0.4307,0.4311,0.4327,0.4328,0.4387,0.452,0.4528,0.4587,0.4675,0.4583,0.4534,0.4504,0.4406,0.4342,0.4316,0.4307,0.4307,0.4307,0.4307,0.4307,0.4307,0.4307,0.4307,0.4307,0.4307,0.4315,0.4357,0.4421,0.448,0.456,0.4637,0.4701,0.4701,0.4701,0.4701,0.4701,0.4701,0.4701,0.4701,0.4701,0.4701,0.4701,0.4704,0.4741,0.4737,0.4783,0.4852,0.4915,0.4971,0.4971,0.4973,0.5018,0.5022,0.5022,0.5022,0.5022,0.5022,0.5022,0.5022,0.5022,0.5022,0.5022,0.5022,0.5022,0.5022,1.158,1.158,1.158,1.158,1.158,1.158,1.158,1.158,1.158,1.158,1.158,1.158,1.158,1.158,1.1544,1.1508,1.1548,1.158,1.158,1.1548,1.1436,1.158,1.1508,1.1329,1.1436,1.1364,1.1002,1.0458,1.0422,0.9951,0.9405,0.926,0.9552,0.9771,0.9987,0.9843,0.8971,0.859,0.7969,0.7177,0.6714,0.5662,0.5001,0.4938,0.4497,0.4308,0.4307,0.4307,0.4307,0.4308,0.4309,0.4328,0.4354,0.4364,0.4457,0.4548,0.4576,0.4591,0.4618,0.4561,0.4502,0.4462,0.439,0.4338,0.4316,0.4308,0.4307,0.4307,0.4307,0.4307,0.4307,0.4307,0.4307,0.4307,0.4307,0.4307,0.4343,0.4425,0.4493,0.456,0.4619,0.4679,0.4701,0.4701,0.4701,0.4701,0.4701,0.4701,0.4701,0.4701,0.4701,0.4701,0.471,0.4751,0.4758,0.4835,0.4877,0.4912,0.4962,0.4979,0.5021,0.5022,0.5022,0.5022,0.5022,0.5022,0.5022,0.5022,0.5022,0.5022,0.5022,0.5022,0.5022,0.5022,0.5022,1.158,1.158,1.158,1.1368,1.1113,1.144,1.158,1.158,1.158,1.158,1.158,1.158,1.1329,1.1109,1.1002,1.1002,1.0966,1.0494,1.0858,1.0822,1.0494,1.0239,1.0242,1.0458,1.0098,1.0167,0.9807,0.9263,0.9263,0.8502,0.8283,0.821,0.7706,0.7996,0.8321,0.8213,0.7993,0.7571,0.6863,0.6277,0.5662,0.4961,0.4468,0.4446,0.4346,0.4307,0.4307,0.4307,0.4308,0.4312,0.4331,0.4356,0.4392,0.4431,0.4509,0.4579,0.4631,0.4627,0.4604,0.4554,0.4495,0.4407,0.4384,0.435,0.4316,0.4308,0.4307,0.4307,0.4307,0.4307,0.4307,0.4307,0.4307,0.4307,0.4307,0.4307,0.4357,0.444,0.4501,0.4568,0.4619,0.467,0.4701,0.4701,0.4701,0.4701,0.4701,0.4701,0.4701,0.4701,0.471,0.4721,0.4748,0.4764,0.4835,0.4922,0.4955,0.4925,0.4991,0.5019,0.5022,0.5022,0.5022,0.5022,0.5022,0.5022,0.5022,0.5022,0.5022,0.5022,0.5022,0.5022,0.5022,0.5022,0.5022,1.1548,1.1544,1.1512,1.0786,1.0098,1.0822,1.1293,1.14,1.14,1.1329,1.1364,1.1181,1.0639,0.9948,0.984,0.9843,0.9735,0.883,0.9155,0.9371,0.908,0.8685,0.8502,0.8499,0.8791,0.843,0.8104,0.8068,0.8032,0.7487,0.7487,0.7487,0.6692,0.662,0.6801,0.7018,0.6946,0.638,0.6096,0.5563,0.4999,0.4628,0.4437,0.4406,0.4362,0.4324,0.4312,0.4307,0.4313,0.4331,0.4364,0.4391,0.4457,0.4493,0.4549,0.4609,0.467,0.4652,0.4609,0.455,0.4493,0.4402,0.4346,0.4318,0.4308,0.4307,0.4307,0.4307,0.4307,0.4307,0.4307,0.4307,0.4307,0.4307,0.4307,0.4337,0.4386,0.4448,0.4506,0.4593,0.4653,0.4694,0.47,0.4701,0.4701,0.4701,0.4701,0.4701,0.4701,0.4701,0.4716,0.4754,0.4793,0.4826,0.4899,0.4961,0.4995,0.4992,0.5,0.5022,0.5022,0.5022,0.5022,0.5022,0.5022,0.5022,0.5022,0.5022,0.5022,0.5022,0.5022,0.5022,0.5022,0.5022,0.5022,1.0386,1.0275,0.9482,0.8899,0.8683,0.8974,0.9116,0.9119,0.9119,0.9119,0.9116,0.9116,0.9044,0.8646,0.861,0.861,0.8466,0.836,0.8357,0.8285,0.8032,0.8066,0.7993,0.7885,0.803,0.774,0.7344,0.6873,0.6692,0.6293,0.5823,0.5498,0.5571,0.5354,0.5426,0.5569,0.5498,0.5419,0.5323,0.5064,0.4794,0.4585,0.4534,0.4447,0.4395,0.4353,0.4316,0.4308,0.4322,0.4371,0.4387,0.4422,0.4561,0.4576,0.4609,0.4666,0.4688,0.4673,0.4612,0.4516,0.4461,0.4406,0.4345,0.4315,0.4307,0.4307,0.4307,0.4307,0.4307,0.4307,0.4307,0.4307,0.4307,0.4307,0.4312,0.4345,0.4395,0.4452,0.4512,0.4618,0.4678,0.4696,0.4701,0.4701,0.4701,0.4701,0.4701,0.4701,0.4701,0.4701,0.4723,0.4762,0.4788,0.4853,0.4894,0.4912,0.4991,0.5019,0.5022,0.5022,0.5022,0.5022,0.5022,0.5022,0.5022,0.5022,0.5022,0.5022,0.5022,0.5022,0.5022,0.5022,0.5022,0.5022,0.5022,0.9624,0.9119,0.843,0.7851,0.7381,0.6946,0.6765,0.691,0.7706,0.8102,0.8102,0.8138,0.7851,0.7453,0.7417,0.7417,0.7381,0.6803,0.6839,0.7308,0.7053,0.6656,0.6692,0.6837,0.6583,0.6475,0.6223,0.5716,0.5571,0.5245,0.4774,0.4847,0.4701,0.4701,0.481,0.4918,0.4847,0.481,0.4735,0.4701,0.4678,0.4641,0.4581,0.4486,0.4428,0.4372,0.4319,0.4311,0.4342,0.4395,0.441,0.4474,0.4601,0.4627,0.4651,0.4696,0.4697,0.4685,0.4644,0.4563,0.451,0.4422,0.436,0.4316,0.4307,0.4307,0.4307,0.4307,0.4307,0.4307,0.4307,0.4307,0.4307,0.4307,0.4326,0.4346,0.4401,0.4458,0.4526,0.4598,0.4673,0.4693,0.4701,0.4701,0.4701,0.4701,0.4701,0.4701,0.4701,0.4701,0.4729,0.4767,0.4801,0.4873,0.4872,0.491,0.4991,0.5022,0.5022,0.5022,0.5022,0.5022,0.5022,0.5022,0.5022,0.5022,0.5022,0.5022,0.5022,0.5022,0.5022,0.5022,0.5022,0.5022,0.5022,0.9046,0.796,0.7885,0.7127,0.6185,0.5244,0.4845,0.4918,0.6837,0.7776,0.7668,0.7743,0.7091,0.6368,0.6259,0.6259,0.6078,0.5571,0.568,0.6259,0.5606,0.5244,0.5173,0.481,0.5317,0.4955,0.481,0.5027,0.4847,0.4701,0.4701,0.4701,0.4701,0.4701,0.4701,0.4701,0.4701,0.4701,0.4701,0.4701,0.4686,0.4644,0.4585,0.4486,0.4435,0.4383,0.4337,0.4327,0.4345,0.4407,0.4462,0.4557,0.4618,0.4662,0.469,0.4699,0.4701,0.4697,0.4664,0.4594,0.4514,0.4458,0.4391,0.436,0.4354,0.4318,0.4308,0.4307,0.4307,0.4307,0.4307,0.4307,0.4307,0.4316,0.4335,0.4377,0.4439,0.4537,0.4609,0.4667,0.4683,0.4701,0.4701,0.4701,0.4701,0.4701,0.4701,0.4701,0.4701,0.4701,0.4736,0.4775,0.4805,0.4837,0.4888,0.4925,0.4961,0.5022,0.5022,0.5022,0.5022,0.5022,0.5022,0.5022,0.5022,0.5022,0.5022,0.5022,0.5022,0.5022,0.5022,0.5022,0.5022,0.5022,0.5022,0.7851,0.6728,0.5898,0.5317,0.51,0.481,0.4701,0.4738,0.5209,0.5607,0.5535,0.5535,0.5498,0.5318,0.5245,0.5245,0.5064,0.4991,0.4918,0.5136,0.4773,0.4701,0.4701,0.4701,0.4701,0.4701,0.4701,0.4701,0.4701,0.4701,0.4701,0.4701,0.4701,0.4701,0.4701,0.4701,0.4701,0.4701,0.4701,0.4701,0.4694,0.4678,0.4635,0.4557,0.4491,0.4432,0.4395,0.4379,0.444,0.4514,0.4537,0.462,0.4677,0.4692,0.4699,0.4701,0.4701,0.4701,0.4679,0.4629,0.4586,0.4527,0.4482,0.4457,0.4416,0.4348,0.4312,0.4312,0.4307,0.4307,0.4308,0.4308,0.4315,0.433,0.4352,0.4416,0.4481,0.4586,0.4659,0.4681,0.4697,0.4701,0.4701,0.4701,0.4701,0.4701,0.4701,0.4701,0.4701,0.4705,0.4747,0.4752,0.4768,0.483,0.4887,0.4937,0.4971,0.5022,0.5022,0.5022,0.5022,0.5022,0.5022,0.5022,0.5022,0.5022,0.5022,0.5022,0.5022,0.5022,0.5022,0.5022,0.5022,0.5022,0.5022,0.6694,0.5607,0.4955,0.4701,0.4701,0.4701,0.4701,0.4701,0.4701,0.4701,0.4701,0.4701,0.4701,0.4701,0.4701,0.4701,0.4701,0.4701,0.4774,0.4738,0.4701,0.4701,0.4701,0.4701,0.4701,0.4701,0.4701,0.4701,0.4701,0.4701,0.4701,0.4701,0.4701,0.4701,0.4701,0.4701,0.4701,0.4701,0.4701,0.4701,0.4701,0.4689,0.4657,0.4582,0.4549,0.4488,0.4457,0.4439,0.4489,0.4559,0.4629,0.4656,0.469,0.4699,0.4701,0.4701,0.4701,0.4701,0.4683,0.4653,0.4615,0.4596,0.4521,0.4473,0.4473,0.4414,0.4361,0.4353,0.4319,0.4309,0.4323,0.4326,0.4349,0.4368,0.441,0.4466,0.4564,0.463,0.4673,0.4692,0.4701,0.4701,0.4701,0.4701,0.4701,0.4701,0.4701,0.4701,0.4701,0.4711,0.4752,0.4766,0.478,0.4833,0.4888,0.4935,0.5015,0.5022,0.5022,0.5022,0.5022,0.5022,0.5022,0.5022,0.5022,0.5022,0.5022,0.5022,0.5022,0.5022,0.5022,0.5022,0.5022,0.5022,0.5022,0.5787,0.4774,0.4701,0.4701,0.4701,0.4701,0.4701,0.4701,0.4701,0.4701,0.4701,0.4701,0.4701,0.4701,0.4701,0.4701,0.4701,0.4701,0.4701,0.4701,0.4701,0.4701,0.4701,0.4701,0.4701,0.4701,0.4701,0.4701,0.4701,0.4701,0.4701,0.4701,0.4701,0.4701,0.4701,0.4701,0.4701,0.4701,0.4701,0.4701,0.4701,0.4699,0.4659,0.4629,0.4605,0.4581,0.4545,0.4503,0.4565,0.4612,0.4667,0.4685,0.4697,0.4701,0.4701,0.4701,0.4701,0.4701,0.4692,0.466,0.4637,0.4575,0.456,0.451,0.4515,0.45,0.4481,0.4444,0.4376,0.4346,0.436,0.4368,0.4394,0.442,0.4469,0.4552,0.4613,0.4666,0.4683,0.4701,0.4701,0.4701,0.4701,0.4701,0.4701,0.4701,0.4701,0.4701,0.4705,0.4722,0.4749,0.4771,0.4792,0.4844,0.4902,0.4938,0.5021,0.5022,0.5022,0.5022,0.5022,0.5022,0.5022,0.5022,0.5022,0.5022,0.5022,0.5022,0.5022,0.5022,0.5022,0.5022,0.5022,0.5022,0.5022,0.5752,0.4701,0.4701,0.4701,0.4701,0.4701,0.4701,0.4701,0.4701,0.4701,0.4701,0.4701,0.4701,0.4701,0.4701,0.4701,0.4701,0.4701,0.4701,0.4701,0.4701,0.4701,0.4701,0.4701,0.4701,0.4701,0.4701,0.4701,0.4701,0.4701,0.4701,0.4701,0.4701,0.4701,0.4701,0.4701,0.4701,0.4701,0.4701,0.4701,0.4701,0.469,0.4663,0.4634,0.4608,0.4602,0.4593,0.4593,0.4629,0.4667,0.469,0.4699,0.4701,0.4701,0.4701,0.4701,0.4701,0.4701,0.4689,0.4679,0.4667,0.4668,0.4638,0.4642,0.4634,0.4608,0.4557,0.4546,0.4493,0.4461,0.4462,0.4454,0.4469,0.4526,0.4564,0.4613,0.4668,0.4685,0.4696,0.4701,0.4701,0.4701,0.4701,0.4701,0.4701,0.4701,0.4701,0.4704,0.4718,0.4734,0.4717,0.4785,0.4814,0.4879,0.4945,0.4954,0.5022,0.5022,0.5022,0.5022,0.5022,0.5022,0.5022,0.5022,0.5022,0.5022,0.5022,0.5022,0.5022,0.5022,0.5022,0.5022,0.5022,0.5022,0.5022]},{"header":{"parameterUnit":"m.s-1","parameterCategory":1,"la1":31.0,"la2":29.5877,"lo1":-88.7671,"lo2":-86.6584,"dx":0.0162,"dy":0.0185,"nx":115,"ny":88,"refTime":"2022-11-21T06:00:00:Z","depth":0,"parameterNumber":3,"parameterNumberName":"V-component_of_WINDS"},"data":[0.0,0.0,0.0,0.0,0.0,0.0,0.0,0.0,0.0,0.0,0.0,0.0,0.0,0.0,0.0,0.0,0.0,0.0,0.0,0.0,0.0,0.0,0.0,0.0,0.0,0.0,0.0,0.0,0.0,0.0,0.0,0.0,0.0,0.0,0.0,0.0,0.0,0.0,0.0,0.0,0.0,0.0,0.0,0.0,0.0,0.0,0.0,0.0,0.0,0.0,0.0,0.0,0.0,0.0,0.0,0.0,0.0,0.0,0.0,0.0,0.0,0.0,0.0,0.0,0.0,0.0,0.0,0.0,0.0,0.0,0.0,0.0,0.0,0.0,0.0,0.0,0.0,0.0,0.0,0.0,0.0,0.0,0.0,0.0,0.0,0.0,0.0,0.0,0.0,0.0,0.0,0.0,0.0,0.0,0.0,0.0,0.0,0.0,0.0,0.0,0.0,0.0,0.0,0.0,0.0,0.0,0.0,0.0,0.0,0.0,0.0,0.0,0.0,0.0,0.0,0.0,0.0,0.0,0.0,0.0,0.0,0.0,0.0,0.0,0.0,0.0,0.0,0.0,0.0,0.0,0.0,0.0,0.0,0.0,0.0,0.0,0.0,0.0,0.0,0.0,0.0,0.0,0.0,0.0,0.0,0.0,0.0,0.0,0.0,0.0,0.0,0.0,0.0,0.0,0.0,0.0,0.0,0.0,0.0,0.0,0.0,0.0,0.0,0.0,0.0,0.0,0.0,0.0,0.0,0.0,0.0,0.0,0.0,0.0,0.0,0.0,0.0,0.0,0.0,0.0,0.0,0.0,0.0,0.0,0.0,0.0,0.0,0.0,0.0,0.0,0.0,0.0,0.0,0.0,0.0,0.0,0.0,0.0,0.0,0.0,0.0,0.0,0.0,0.0,0.0,0.0,0.0,0.0,0.0,0.0,0.0,0.0,0.0,0.0,0.0,0.0,0.0,0.0,0.0,0.0,0.0,0.0,0.0,0.0,0.0,0.0,0.0,0.0,0.0,0.0,0.0,0.0,0.0,0.0,0.0,0.0,0.0,0.0,0.0,0.0,0.0,0.0,0.0,0.0,0.0,0.0,0.0,0.0,0.0,0.0,0.0,0.0,0.0,0.0,0.0,0.0,0.0,0.0,0.0,0.0,0.0,0.0,0.0,0.0,0.0,0.0,0.0,0.0,0.0,0.0,0.0,0.0,0.0,0.0,0.0,0.0,0.0,0.0,0.0,0.0,0.0,0.0,0.0,0.0,0.0,0.0,0.0,0.0,0.0,0.0,0.0,0.0,0.0,0.0,0.0,0.0,0.0,0.0,0.0,0.0,0.0,0.0,0.0,0.0,0.0,0.0,0.0,0.0,0.0,0.0,0.0,0.0,0.0,0.0,0.0,0.0,0.0,0.0,0.0,0.0,0.0,0.0,0.0,0.0,0.0,0.0,0.0,0.0,0.0,0.0,0.0,0.0,0.0,0.0,0.0,0.0,0.0,0.0,0.0,0.0,0.0,0.0,0.0,0.0,0.0,0.0,0.0,0.0,0.0,0.0,0.0,0.0,0.0,0.0,0.0,0.0,0.0,0.0,0.0,0.0,0.0,0.0,0.0,0.0,0.0,0.0,0.0,0.0,0.0,0.0,0.0,0.0,0.0,0.0,0.0,0.0,0.0,0.0,0.0,0.0,0.0,0.0,0.0,0.0,0.0,0.0,0.0,0.0,0.0,0.0,0.0,0.0,0.0,0.0,0.0,0.0,0.0,0.0,0.0,0.0,0.0,0.0,0.0,0.0,0.0,0.0,0.0,0.0,0.0,0.0,0.0,0.0,0.0,0.0,0.0,0.0,0.0,0.0,0.0,0.0,0.0,0.0,0.0,0.0,0.0,0.0,0.0,0.0,0.0,0.0,0.0,0.0,0.0,0.0,0.0,0.0,0.0,0.0,0.0,0.0,0.0,0.0,0.0,0.0,0.0,0.0,0.0,0.0,0.0,0.0,0.0,0.0,0.0,0.0,0.0,0.0,0.0,0.0,0.0,0.0,0.0,0.0,0.0,0.0,0.0,0.0,0.0,0.0,0.0,0.0,0.0,0.0,0.0,0.0,0.0,0.0,0.0,0.0,0.0,0.0,0.0,0.0,0.0,0.0,0.0,0.0,0.0,0.0,0.0,0.0,0.0,0.0,0.0,0.0,0.0,0.0,0.0,0.0,0.0,0.0,0.0,0.0,0.0,0.0,0.0,0.0,0.0,0.0,0.0,0.0,0.0,0.0,0.0,0.0,0.0,0.0,0.0,0.0,0.0,0.0,0.0,0.0,0.0,0.0,0.0,0.0,0.0,0.0,0.0,0.0,0.0,0.0,0.0,0.0,0.0,0.0,0.0,0.0,0.0,0.0,0.0,0.0,0.0,0.0,0.0,0.0,0.0,0.0,0.0,0.0,0.0,0.0,0.0,0.0,0.0,0.0,0.0,0.0,0.0,0.0,0.0,0.0,0.0,0.0,0.0,0.0,0.0,0.0,0.0,0.0,0.0,0.0,0.0,0.0,0.0,0.0,0.0,0.0,0.0,0.0,0.0,0.0,0.0,0.0,0.0,0.0,0.0,0.0,0.0,0.0,0.0,0.0,0.0,0.0,0.0,0.0,0.0,0.0,0.0,0.0,0.0,0.0,0.0,0.0,0.0,0.0,0.0,0.0,0.0,0.0,0.0,0.0,0.0,0.0,0.0,0.0,0.0,0.0,0.0,0.0,0.0,0.0,0.0,0.0,0.0,0.0,0.0,0.0,0.0,0.0,0.0,0.0,0.0,0.0,0.0,0.0,0.0,0.0,0.0,0.0,0.0,0.0,0.0,0.0,0.0,0.0,0.0,0.0,0.0,0.0,0.0,0.0,0.0,0.0,0.0,0.0,0.0,0.0,0.0,0.0,0.0,0.0,0.0,0.0,0.0,0.0,0.0,0.0,0.0,0.0,0.0,0.0,0.0,0.0,0.0,0.0,0.0,0.0,0.0,0.0,0.0,0.0,0.0,0.0,0.0,0.0,0.0,0.0,0.0,0.0,0.0,0.0,0.0,0.0,0.0,0.0,0.0,0.0,0.0,0.0,0.0,0.0,0.0,0.0,0.0,0.0,0.0,0.0,0.0,0.0,0.0,0.0,0.0,0.0,0.0,0.0,0.0,0.0,0.0,0.0,0.0,0.0,0.0,0.0,0.0,0.0,0.0,0.0,0.0,0.0,0.0,0.0,0.0,0.0,0.0,0.0,0.0,0.0,0.0,0.0,0.0,0.0,0.0,0.0,0.0,0.0,0.0,0.0,0.0,0.0,0.0,0.0,0.0,0.0,0.0,0.0,0.0,0.0,0.0,0.0,0.0,0.0,0.0,0.0,0.0,0.0,0.0,0.0,0.0,0.0,0.0,0.0,0.0,0.0,0.0,0.0,0.0,0.0,0.0,0.0,0.0,0.0,0.0,0.0,0.0,0.0,0.0,0.0,0.0,0.0,0.0,0.0,0.0,0.0,0.0,0.0,0.0,0.0,0.0,0.0,0.0,0.0,0.0,0.0,0.0,0.0,0.0,0.0,0.0,0.0,0.0,0.0,0.0,0.0,0.0,0.0,0.0,0.0,0.0,0.0,0.0,0.0,0.0,0.0,0.0,0.0,0.0,0.0,0.0,0.0,0.0,0.0,0.0,0.0,0.0,0.0,0.0,0.0,0.0,0.0,0.0,0.0,0.0,0.0,0.0,0.0,0.0,0.0,0.0,0.0,0.0,0.0,0.0,0.0,0.0,0.0,0.0,0.0,0.0,0.0,0.0,0.0,0.0,0.0,0.0,0.0,0.0,0.0,0.0,0.0,0.0,0.0,0.0,0.0,0.0,0.0,0.0,0.0,0.0,0.0,0.0,0.0,0.0,0.0,0.0,0.0,0.0,0.0,0.0,0.0,0.0,0.0,0.0,0.0,0.0,0.0,0.0,0.0,0.0,0.0,0.0,0.0,0.0,0.0,0.0,0.0,0.0,0.0,0.0,0.0,0.0,0.0,0.0,0.0,0.0,0.0,0.0,0.0,0.0,0.0,0.0,0.0,0.0,0.0,0.0,0.0,0.0,0.0,0.0,0.0,0.0,0.0,0.0,0.0,0.0,0.0,0.0,0.0,0.0,0.0,0.0,0.0,0.0,0.0,0.0,0.0,0.0,0.0,0.0,0.0,0.0,0.0,0.0,0.0,0.0,0.0,0.0,0.0,0.0,0.0,0.0,0.0,1.1423,0.0,0.0,0.0,0.9606,0.0,0.0,0.0,0.0,0.0,0.0,0.0,0.0,0.0,0.0,0.0,0.0,0.0,0.0,0.0,0.0,0.0,0.0,0.0,0.0,0.0,0.0,0.0,0.0,0.0,0.0,0.0,0.0,0.0,0.0,0.0,0.0,0.0,0.0,0.0,0.0,0.0,0.0,0.0,0.0,0.0,0.0,0.0,0.0,0.0,0.0,0.0,0.0,0.0,0.0,0.0,0.0,0.0,0.0,0.0,0.0,0.0,0.0,0.0,0.0,0.0,0.0,0.0,0.0,0.0,0.0,0.0,0.0,0.0,0.0,0.0,0.0,0.0,0.0,0.0,0.0,0.0,0.0,0.0,0.0,0.0,0.0,0.0,0.0,0.0,0.0,0.0,0.0,0.0,0.0,0.0,0.0,0.0,0.0,0.0,0.0,0.0,0.0,0.0,0.0,0.0,0.0,0.0,0.0,0.0,0.0,0.0,0.0,0.0,0.0,1.1423,0.9066,1.2969,1.3189,0.912,0.0,0.0,0.0,0.0,0.0,0.0,0.0,0.0,0.0,0.0,0.0,0.0,0.0,0.0,0.0,0.0,0.0,0.0,0.0,0.0,0.0,0.0,0.0,0.0,0.0,0.0,0.0,0.0,0.0,0.0,0.0,0.0,0.0,0.0,0.0,0.0,0.0,0.0,0.0,0.0,0.0,0.0,0.0,0.0,0.0,0.0,0.0,0.0,0.0,0.0,0.0,0.0,0.0,0.0,0.0,0.0,0.0,0.0,0.0,0.0,0.0,0.0,0.0,0.0,0.0,0.0,0.0,0.0,0.0,0.0,0.0,0.0,0.0,0.0,0.0,0.0,0.0,0.0,0.0,0.0,0.0,0.0,0.0,0.0,0.0,0.0,0.0,0.0,0.0,0.0,0.0,0.0,0.0,0.0,0.0,0.0,0.0,0.0,0.0,0.0,0.0,0.0,0.0,0.0,0.0,0.0,0.0,0.0,0.0,0.0,0.0,0.0,1.3609,1.3877,1.0214,0.0,0.0,0.0,0.0,0.0,0.0,0.0,0.0,0.0,0.0,0.0,0.0,0.0,0.0,0.0,0.0,0.0,0.0,0.0,0.0,0.0,0.0,0.0,0.0,0.0,0.0,0.0,0.0,0.0,0.0,0.0,0.0,0.0,0.0,0.0,0.0,0.0,0.0,0.0,0.0,0.0,0.0,0.0,0.0,0.0,0.0,0.0,0.0,0.0,0.0,0.0,0.0,0.0,0.0,0.0,0.0,0.0,0.0,0.0,0.0,0.0,0.0,0.0,0.0,0.0,0.0,0.0,0.0,0.0,0.0,0.0,0.0,0.0,0.0,0.0,0.0,0.0,0.0,0.0,0.0,0.0,0.0,0.0,0.0,0.0,0.0,0.0,0.0,0.0,0.0,0.0,0.0,0.0,0.0,0.0,0.0,0.0,0.0,0.0,0.0,0.0,0.0,0.0,0.0,0.0,0.0,0.0,0.0,0.0,0.0,1.0421,1.2905,1.3597,0.0,1.3245,0.0,0.0,0.0,0.0,0.0,0.0,0.0,0.0,0.0,0.0,0.0,0.0,0.0,0.0,0.0,0.0,0.0,0.0,0.0,0.0,0.0,0.0,0.0,0.0,0.0,0.0,0.0,0.0,0.0,0.0,0.0,0.0,0.0,0.0,0.0,0.0,0.0,0.0,0.0,0.0,0.0,0.0,0.0,0.0,0.0,0.0,0.0,0.0,0.0,0.0,0.0,0.0,0.0,0.0,0.0,0.0,0.0,0.0,0.0,0.0,0.0,0.0,0.0,0.0,0.0,0.0,0.0,0.0,0.0,0.0,0.0,0.0,0.0,0.0,0.0,0.0,0.0,0.0,0.0,0.0,0.0,0.0,0.0,0.0,0.0,0.0,0.0,0.0,0.0,0.0,0.0,0.0,0.0,0.0,0.0,0.0,0.0,0.0,0.0,0.0,0.0,0.0,0.0,0.0,0.0,0.0,0.0,0.0,0.0,0.0,1.1768,1.354,1.3655,1.3432,0.0,0.0,0.0,0.0,0.0,0.0,0.0,0.0,0.0,0.0,0.0,0.0,0.0,0.0,0.0,0.0,0.0,0.0,0.0,0.0,0.0,0.0,0.0,0.0,0.0,0.0,0.0,0.0,0.0,0.0,0.0,0.0,0.0,0.0,0.0,0.0,0.0,0.0,0.0,0.0,0.0,0.0,0.0,0.0,0.0,0.0,0.0,0.0,0.0,0.0,0.0,0.0,0.0,0.0,0.0,0.0,0.0,0.0,0.0,0.0,0.0,0.0,0.0,0.0,0.0,0.0,0.0,0.0,0.0,0.0,0.0,0.0,0.0,0.0,0.0,0.0,0.0,0.0,0.0,0.0,0.0,0.0,0.0,0.0,0.0,0.0,0.0,0.0,0.0,0.0,0.0,0.0,0.0,0.0,0.0,0.0,0.0,0.0,0.0,0.0,0.0,0.0,0.0,0.0,0.0,0.0,0.0,0.0,0.0,0.0,1.1985,1.3238,1.4893,1.4326,1.3532,1.2711,0.0,0.0,0.0,0.0,0.0,0.0,0.0,0.0,0.0,0.0,0.0,0.0,0.0,0.0,0.0,0.0,0.0,0.0,0.0,0.0,0.0,0.0,0.0,0.0,0.0,0.0,0.0,0.0,0.0,0.0,0.0,0.0,0.0,0.0,0.0,0.0,0.0,0.0,0.0,0.0,0.0,0.0,0.0,0.0,0.0,0.0,0.0,0.0,0.0,0.0,0.0,0.0,0.0,0.0,0.0,0.0,0.0,0.0,0.0,0.0,0.0,0.0,0.0,0.0,0.0,0.0,0.0,0.0,0.0,0.0,0.0,0.0,0.0,0.0,0.0,0.0,0.0,0.0,0.0,0.0,0.0,0.0,0.0,0.0,0.0,0.0,0.0,0.0,0.0,0.0,0.0,0.0,0.0,0.0,0.0,0.0,0.0,0.0,0.0,0.0,0.0,0.0,0.0,0.0,0.0,0.0,0.0,0.0,1.6202,1.3974,1.4453,1.8117,1.583,1.4187,0.0,0.0,0.0,0.0,0.0,0.0,0.0,0.0,0.0,0.0,0.0,0.0,0.0,0.0,0.0,0.0,0.0,0.0,0.0,0.0,0.0,0.0,0.0,0.0,0.0,0.0,0.0,0.0,0.0,0.0,0.0,0.0,0.0,0.0,0.0,0.0,0.0,0.0,0.0,0.0,0.0,0.0,0.0,0.0,0.0,0.0,0.0,0.0,0.0,0.0,0.0,0.0,0.0,0.0,0.0,0.0,0.0,0.0,0.0,0.0,0.0,0.0,0.0,0.0,0.0,0.0,0.0,0.0,0.0,0.0,0.0,0.0,0.0,0.0,0.0,0.0,0.0,0.0,0.0,0.0,0.0,0.0,0.0,0.0,0.0,0.0,0.0,0.0,0.0,0.0,0.0,0.0,0.0,0.0,0.0,0.0,0.0,0.0,0.0,0.0,0.0,0.0,0.0,0.0,0.0,0.0,0.0,0.0,0.0,1.045,1.2914,1.5791,1.8805,1.6385,1.5022,0.0,0.0,0.0,0.0,0.0,0.0,0.0,0.0,0.0,0.0,0.0,0.0,0.0,0.0,0.0,0.0,0.0,0.0,0.0,0.0,0.0,0.0,0.0,0.0,0.0,0.0,0.0,0.0,0.0,0.0,0.0,0.0,0.0,0.0,0.0,0.0,0.0,0.0,0.0,0.0,0.0,0.0,0.0,0.0,0.0,0.0,0.0,0.0,0.0,0.0,0.0,0.0,0.0,0.0,0.0,0.0,0.0,0.0,0.0,0.0,0.0,0.0,0.0,0.0,0.0,0.0,0.0,0.0,0.0,0.0,0.0,0.0,0.0,0.0,0.0,0.0,0.0,0.0,0.0,0.0,0.0,0.0,0.0,0.0,0.0,0.0,0.0,0.0,0.0,0.0,0.0,0.0,0.0,0.0,0.0,0.0,0.0,0.0,0.0,0.0,0.0,0.0,0.0,0.0,0.0,0.0,0.0,0.0,0.0,0.9898,1.5078,1.8512,1.9671,1.6747,1.4798,0.0,0.0,0.0,0.0,0.0,0.0,0.0,0.0,0.0,0.0,0.0,0.0,0.0,0.0,0.0,0.0,0.0,0.0,0.0,0.0,0.0,0.0,0.0,0.0,0.0,0.0,0.0,0.0,0.0,0.0,0.0,0.0,0.0,0.0,0.0,0.0,0.0,0.0,0.0,0.0,0.0,0.0,0.0,0.0,0.0,0.0,0.0,0.0,0.0,0.0,0.0,0.0,0.0,0.0,0.0,0.0,0.0,0.0,0.0,0.0,0.0,0.0,0.0,0.0,0.0,0.0,0.0,0.0,0.0,0.0,0.0,0.0,0.0,0.0,0.0,0.0,0.0,0.0,0.0,0.0,0.0,0.0,0.0,0.0,0.0,0.0,0.0,0.0,0.0,0.0,0.0,0.0,0.0,0.0,0.0,0.0,0.0,0.0,0.0,0.0,0.0,0.0,0.0,0.0,0.0,0.0,0.0,0.0,0.9895,1.5919,2.0651,2.2322,2.1061,1.705,1.3498,0.0,0.0,0.0,0.0,0.0,0.0,0.0,0.0,0.0,0.0,0.0,0.0,0.0,0.0,0.0,0.0,0.0,0.0,0.0,0.0,0.0,0.0,0.0,0.0,0.0,0.0,0.0,0.0,0.0,0.0,0.0,0.0,0.0,0.0,0.0,0.0,0.0,0.0,0.0,0.0,0.0,0.0,0.0,0.0,0.0,0.0,0.0,0.0,0.0,0.0,0.0,0.0,0.0,0.0,0.0,0.0,0.0,0.0,0.0,0.0,0.0,0.0,0.0,0.0,0.0,0.0,0.0,0.0,0.0,0.0,0.0,0.0,0.0,0.0,0.0,0.0,0.0,0.0,0.0,0.0,0.0,0.0,0.0,0.0,0.0,0.0,0.0,0.0,0.0,0.0,0.0,0.0,0.0,0.0,0.0,0.0,0.0,0.0,0.0,0.0,0.0,0.0,0.0,0.0,0.0,0.0,0.0,0.0,0.0,1.2341,1.8528,2.1635,2.1013,1.7697,1.5649,0.0,0.0,0.0,0.0,0.0,0.0,0.0,0.0,0.0,0.0,0.0,0.0,0.0,0.0,0.0,0.0,0.0,0.0,0.0,0.0,0.0,0.0,0.0,0.0,0.0,0.0,0.0,0.0,0.0,0.0,0.0,0.0,0.0,0.0,0.0,0.0,0.0,0.0,0.0,0.0,0.0,0.0,0.0,0.0,0.0,0.0,0.0,0.0,0.0,0.0,0.0,0.0,0.0,0.0,0.0,0.0,0.0,0.0,0.0,0.0,0.0,0.0,0.0,0.0,0.0,0.0,0.0,0.0,0.0,0.0,0.0,0.0,0.0,0.0,0.0,0.0,0.0,0.0,0.0,0.0,0.0,0.0,0.0,0.0,0.0,0.0,0.0,0.0,0.0,0.0,0.0,0.0,0.0,0.0,0.0,0.0,0.0,0.0,0.0,0.0,0.0,0.0,0.0,0.0,0.0,0.0,0.0,0.0,0.0,1.597,2.1526,2.4379,2.379,1.9484,1.7095,1.6865,0.0,0.0,0.0,0.0,0.0,0.0,0.0,0.0,0.0,0.0,0.0,0.0,0.0,0.0,0.0,0.0,0.0,0.0,0.0,0.0,0.0,0.0,0.0,0.0,0.0,0.0,0.0,0.0,0.0,0.0,0.0,0.0,0.0,0.0,0.0,0.0,0.0,0.0,0.0,0.0,0.0,0.0,0.0,0.0,0.0,0.0,0.0,0.0,0.0,0.0,0.0,0.0,0.0,0.0,0.0,0.0,0.0,0.0,0.0,0.0,0.0,0.0,0.0,0.0,0.0,0.0,0.0,0.0,0.0,0.0,0.0,0.0,0.0,0.0,0.0,0.0,0.0,0.0,0.0,0.0,0.0,0.0,0.0,0.0,0.0,0.0,0.0,0.0,0.0,0.0,0.0,0.0,0.0,0.0,0.0,0.0,0.0,0.0,0.0,0.0,0.0,0.0,0.0,0.0,0.0,0.0,0.0,0.0,2.4757,2.8613,2.9794,2.8181,2.2097,1.806,0.0,0.0,0.0,0.0,0.0,0.0,0.0,0.0,0.0,0.0,0.0,0.0,0.0,0.0,0.0,0.0,0.0,0.0,0.0,0.0,0.0,0.0,0.0,0.0,0.0,0.0,0.0,0.0,0.0,0.0,0.0,0.0,0.0,0.0,0.0,0.0,0.0,0.0,0.0,0.0,0.0,0.0,0.0,0.0,0.0,0.0,0.0,0.0,0.0,0.0,0.0,0.0,0.0,0.0,0.0,0.0,0.0,0.0,0.0,0.0,0.0,0.0,0.0,0.0,0.0,0.0,0.0,0.0,0.0,0.0,0.0,0.0,0.0,0.0,0.0,0.0,0.0,0.0,0.0,0.0,0.0,0.0,0.0,0.0,0.0,0.0,0.0,0.0,0.0,0.0,0.0,0.0,0.0,0.0,0.0,0.0,0.0,0.0,0.0,0.0,0.0,0.0,0.0,0.0,0.0,0.0,0.0,0.0,0.0,2.7027,3.0492,3.0982,2.8245,2.3596,2.0128,0.0,0.0,0.0,0.0,0.0,0.0,0.0,0.0,0.0,0.0,0.0,0.0,0.0,0.0,0.0,0.0,0.0,0.0,0.0,0.0,0.0,0.0,0.0,0.0,0.0,0.0,0.0,0.0,0.0,0.0,0.0,0.0,0.0,0.0,0.0,0.0,0.0,0.0,0.0,0.0,0.0,0.0,0.0,0.0,0.0,0.0,0.0,0.0,0.0,0.0,0.0,0.0,0.0,0.0,0.0,0.0,0.0,0.0,0.0,0.0,0.0,0.0,0.0,0.0,0.0,0.0,0.0,0.0,0.0,0.0,0.0,0.0,0.0,0.0,0.0,0.0,0.0,0.0,0.0,0.0,0.0,0.0,0.0,0.0,0.0,0.0,0.0,0.0,0.0,0.0,0.0,0.0,0.0,0.0,0.0,0.0,0.0,0.0,0.0,0.0,0.0,0.0,0.0,0.0,0.0,0.0,0.0,0.0,2.4986,3.0442,3.2075,3.1857,2.9736,2.604,2.2652,0.0,0.0,0.0,0.0,0.0,0.0,0.0,0.0,0.0,0.0,0.0,0.0,0.0,0.0,0.0,0.0,0.0,0.0,0.0,0.0,0.0,0.0,0.0,0.0,0.0,0.0,0.0,0.0,0.0,0.0,0.0,0.0,0.0,0.0,0.0,0.0,0.0,0.0,0.0,0.0,0.0,0.0,0.0,0.0,0.0,0.0,0.0,0.0,0.0,0.0,0.0,0.0,0.0,0.0,0.0,0.0,0.0,0.0,0.0,0.0,0.0,0.0,0.0,0.0,0.0,0.0,0.0,0.0,0.0,0.0,0.0,0.0,0.0,0.0,0.0,0.0,0.0,0.0,0.0,0.0,0.0,0.0,0.0,0.0,0.0,0.0,0.0,0.0,0.0,0.0,0.0,0.0,0.0,0.0,0.0,0.0,0.0,0.0,0.0,0.0,0.0,0.0,0.0,0.0,0.0,0.0,0.0,0.0,2.7585,3.3986,3.3379,3.2638,3.1828,2.8717,2.5074,0.0,0.0,0.0,0.0,0.0,0.0,0.0,0.0,0.0,0.0,0.0,0.0,0.0,0.0,0.0,0.0,0.0,0.0,0.0,0.0,0.0,0.0,0.0,0.0,0.0,0.0,0.0,0.0,0.0,0.0,0.0,0.0,0.0,0.0,0.0,0.0,0.0,0.0,0.0,0.0,0.0,0.0,0.0,0.0,0.0,0.0,0.0,0.0,0.0,0.0,0.0,0.0,0.0,0.0,0.0,0.0,0.0,0.0,0.0,0.0,0.0,0.0,0.0,0.0,0.0,0.0,0.0,0.0,0.0,0.0,0.0,0.0,0.0,0.0,0.0,0.0,0.0,0.0,0.0,0.0,0.0,0.0,0.0,0.0,0.0,0.0,0.0,0.0,0.0,0.0,0.0,0.0,0.0,0.0,0.0,0.0,0.0,0.0,0.0,0.0,0.0,0.0,0.0,0.0,0.0,0.0,0.0,0.0,2.8554,3.442,3.3873,3.3369,3.3193,2.9665,2.5591,0.0,0.0,0.0,0.0,0.0,0.0,0.0,0.0,0.0,0.0,0.0,0.0,0.0,0.0,0.0,0.0,0.0,0.0,0.0,0.0,0.0,0.0,0.0,0.0,0.0,0.0,0.0,0.0,0.0,0.0,0.0,0.0,0.0,0.0,0.0,0.0,0.0,0.0,0.0,0.0,0.0,0.0,0.0,0.0,0.0,0.0,0.0,0.0,1.4228,0.0,0.0,0.0,0.0,0.0,0.0,0.0,0.0,0.0,0.0,0.0,0.0,0.0,0.0,0.0,0.0,0.0,0.0,0.0,0.0,0.0,0.0,0.0,0.0,0.0,0.0,0.0,0.0,0.0,0.0,0.0,0.0,0.0,0.0,0.0,0.0,0.0,0.0,0.0,0.0,0.0,0.0,0.0,0.0,0.0,0.0,0.0,0.0,0.0,0.0,0.0,0.0,0.0,0.0,0.0,0.0,0.0,0.0,0.0,2.9767,3.4748,3.4242,3.3835,3.3764,3.2232,2.8216,0.0,0.0,0.0,0.0,0.0,0.0,0.0,0.0,0.0,0.0,0.0,0.0,0.0,0.0,0.0,0.0,0.0,0.0,0.0,0.0,0.0,0.0,0.0,0.0,0.0,0.0,0.0,0.0,0.0,0.0,0.0,0.0,0.0,0.0,0.0,0.0,0.0,0.0,0.0,0.0,0.0,0.0,0.0,0.0,0.0,0.0,0.0,0.0,0.0,0.0,0.0,0.0,0.0,0.0,0.0,0.0,0.0,0.0,0.0,0.0,0.0,0.0,0.0,0.0,0.0,0.0,0.0,0.0,0.0,0.0,0.0,0.0,0.0,0.0,0.0,0.0,0.0,0.0,0.0,0.0,0.0,0.0,0.0,0.0,0.0,0.0,0.0,0.0,0.0,0.0,0.0,0.0,0.0,0.0,0.0,0.0,0.0,0.0,0.0,0.0,0.0,0.0,0.0,0.0,0.0,0.0,0.0,2.6776,3.0941,3.5243,3.4834,3.4399,3.4236,3.4982,3.124,2.2588,0.0,0.0,0.0,0.0,0.0,0.0,0.0,0.0,0.0,0.0,0.0,0.0,0.0,0.0,0.0,0.0,0.0,0.0,0.0,0.0,0.0,0.0,0.0,0.0,0.0,0.0,0.0,0.0,0.0,0.0,0.0,0.0,0.0,0.0,0.0,0.0,0.0,0.0,1.1442,1.5449,0.0,0.0,0.0,0.0,0.0,0.0,0.0,0.0,1.7659,0.0,0.0,0.0,0.0,0.0,0.0,0.0,0.0,0.0,0.0,0.0,0.0,0.0,0.0,0.0,0.0,0.0,0.0,0.0,0.0,0.0,0.0,0.0,0.0,0.0,0.0,0.0,0.0,0.0,0.0,0.0,0.0,0.0,0.0,0.0,0.0,0.0,0.0,0.0,0.0,0.0,0.0,0.0,0.0,0.0,0.0,0.0,0.0,0.0,0.0,0.0,0.0,0.0,0.0,0.0,0.0,2.6669,2.8208,3.1509,3.6617,3.6393,3.5715,3.4764,3.5679,3.2032,2.3539,0.0,0.0,0.0,0.0,0.0,0.0,0.0,0.0,0.0,0.0,0.0,0.0,0.0,0.0,0.0,0.0,0.0,0.0,0.0,0.0,0.0,0.0,0.0,0.0,0.0,0.0,0.0,0.0,0.0,0.0,0.0,0.0,0.0,0.0,0.0,0.0,0.0,0.0,0.0,2.1427,2.3383,0.0,0.0,0.0,0.0,0.0,0.0,0.0,0.0,1.8146,0.0,0.0,0.0,0.0,0.0,0.0,0.0,0.0,0.0,0.0,0.0,0.0,0.0,0.0,0.0,0.0,0.0,0.0,0.0,0.0,0.0,0.0,0.0,0.0,0.0,0.0,0.0,0.0,0.0,0.0,0.0,0.0,0.0,0.0,0.0,0.0,0.0,0.0,0.0,0.0,0.0,0.0,0.0,0.0,0.0,0.0,0.0,0.0,0.0,0.0,0.0,0.0,0.0,0.0,0.0,2.5595,3.0222,3.4235,3.752,3.6895,3.6424,3.6272,3.6755,3.2833,0.0,0.0,0.0,0.0,0.0,0.0,0.0,0.0,0.0,0.0,0.0,0.0,0.0,0.0,0.0,0.0,0.0,0.0,0.0,0.0,0.0,0.0,0.0,0.0,0.0,0.0,0.0,0.0,0.0,0.0,0.0,0.0,0.0,0.0,0.0,0.0,0.0,0.0,0.0,0.0,2.3445,2.5627,2.7716,0.0,0.0,0.0,0.0,0.0,0.0,2.0771,1.9177,0.0,0.0,0.0,0.0,0.0,0.0,0.0,0.0,0.0,0.0,0.0,0.0,0.0,0.0,0.0,0.0,0.0,0.0,0.0,0.0,0.0,0.0,0.0,0.0,0.0,0.0,0.0,0.0,0.0,0.0,0.0,0.0,0.0,0.0,0.0,0.0,0.0,0.0,0.0,0.0,0.0,0.0,0.0,0.0,0.0,0.0,0.0,0.0,0.0,0.0,0.0,0.0,0.0,0.0,0.0,2.4098,3.132,3.6181,3.8174,3.7312,3.7032,3.7595,3.7595,3.3347,0.0,0.0,0.0,0.0,0.0,0.0,0.0,0.0,0.0,0.0,0.0,0.0,0.0,0.0,0.0,0.0,0.0,0.0,0.0,0.0,0.0,0.0,0.0,0.0,0.0,0.0,0.0,0.0,0.0,0.0,0.0,0.0,0.0,0.0,0.0,0.0,0.0,0.0,0.0,0.0,0.0,2.7494,2.9766,2.7197,0.0,0.0,0.0,0.0,2.5773,2.4117,0.0,0.0,0.0,0.0,0.0,0.0,0.0,0.0,0.0,0.0,0.0,0.0,0.0,0.0,0.0,0.0,0.0,0.0,0.0,0.0,0.0,0.0,0.0,0.0,0.0,0.0,0.0,0.0,0.0,0.0,0.0,0.0,0.0,0.0,0.0,0.0,0.0,0.0,0.0,0.0,0.0,0.0,0.0,0.0,0.0,0.0,0.0,0.0,0.0,0.0,0.0,0.0,0.0,0.0,0.0,0.0,2.4341,2.9796,3.4595,3.8464,3.8243,3.7873,3.7621,3.7595,3.3106,0.0,0.0,0.0,0.0,0.0,0.0,0.0,0.0,0.0,0.0,0.0,0.0,0.0,0.0,0.0,0.0,0.0,0.0,0.0,0.0,0.0,0.0,0.0,0.0,0.0,0.0,0.0,0.0,0.0,0.0,0.0,0.0,0.0,0.0,0.0,0.0,0.0,0.0,0.0,0.0,0.0,3.0399,2.9383,2.815,2.8076,0.0,0.0,0.0,3.2574,3.2375,0.0,0.0,0.0,0.0,0.0,0.0,0.0,0.0,0.0,0.0,0.0,0.0,0.0,0.0,0.0,0.0,0.0,0.0,0.0,0.0,0.0,0.0,0.0,0.0,0.0,0.0,0.0,0.0,0.0,0.0,0.0,0.0,0.0,0.0,0.0,0.0,0.0,0.0,0.0,0.0,0.0,0.0,0.0,0.0,0.0,0.0,0.0,0.0,0.0,0.0,0.0,0.0,0.0,0.0,0.0,2.2218,2.5474,3.234,3.719,3.9699,3.9384,3.9082,3.8888,3.8504,3.3739,0.0,0.0,0.0,0.0,0.0,0.0,0.0,0.0,0.0,0.0,0.0,0.0,0.0,0.0,0.0,0.0,0.0,0.0,0.0,0.0,0.0,0.0,0.0,0.0,0.0,0.0,0.0,0.0,0.0,0.0,0.0,0.0,0.0,0.0,0.0,0.0,0.0,0.0,0.0,0.0,0.0,0.0,3.3009,3.1698,0.0,0.0,0.0,3.2434,3.2798,0.0,0.0,0.0,0.0,0.0,0.0,0.0,0.0,0.0,0.0,0.0,0.0,0.0,0.0,0.0,0.0,0.0,0.0,0.0,0.0,0.0,0.0,0.0,0.0,0.0,0.0,0.0,0.0,0.0,0.0,0.0,0.0,0.0,0.0,0.0,0.0,0.0,0.0,0.0,0.0,0.0,0.0,0.0,0.0,0.0,0.0,0.0,0.0,0.0,0.0,0.0,0.0,0.0,0.0,0.0,0.0,0.0,2.6365,3.4535,3.952,4.0947,4.0303,4.0002,4.0172,3.9298,0.0,0.0,0.0,0.0,0.0,0.0,0.0,0.0,0.0,0.0,0.0,0.0,0.0,0.0,0.0,0.0,0.0,0.0,0.0,0.0,0.0,0.0,0.0,0.0,0.0,0.0,0.0,0.6198,0.0,0.0,0.0,0.0,0.0,0.0,0.0,0.0,0.0,0.0,0.0,0.0,0.0,0.0,3.2107,3.6027,3.4915,3.454,0.0,0.0,3.5875,3.4834,3.6461,3.6431,0.0,0.0,0.0,0.0,0.0,0.0,0.0,0.0,0.0,0.0,0.0,0.0,0.0,0.0,0.0,0.0,0.0,0.0,0.0,0.0,0.0,0.0,0.0,0.0,0.0,0.0,0.0,0.0,0.0,0.0,0.0,0.0,0.0,0.0,0.0,0.0,0.0,0.0,0.0,0.0,0.0,0.0,0.0,0.0,0.0,0.0,0.0,0.0,0.0,0.0,0.0,0.0,0.0,0.0,0.0,2.6841,3.4674,3.9904,4.2035,4.0689,4.0261,4.0967,3.9593,3.3987,0.0,0.0,0.0,0.0,0.0,0.0,0.0,0.0,0.0,0.0,0.0,0.0,0.0,0.0,0.0,0.0,0.0,0.0,0.0,0.0,0.0,0.0,0.0,0.0,0.0,0.0,0.0,0.0,0.0,0.0,0.0,0.0,0.0,0.0,0.0,0.0,0.0,0.0,0.0,0.0,0.0,3.3022,3.6557,3.6713,3.7986,0.0,0.0,3.9101,4.221,4.2829,4.1611,3.7529,0.0,0.0,0.0,0.0,0.0,0.0,0.0,0.0,0.0,0.0,0.0,0.0,0.0,0.0,0.0,0.0,0.0,0.0,0.0,0.0,0.0,0.0,0.0,0.0,0.0,0.0,0.0,0.0,0.0,0.0,0.0,0.0,0.0,0.0,0.0,0.0,0.0,0.0,0.0,0.0,0.0,0.0,0.0,0.0,0.0,0.0,0.0,0.0,0.0,0.0,0.0,0.0,0.0,2.5094,2.7422,3.5865,4.0895,4.2208,4.1698,4.152,4.1833,4.0788,3.6747,0.0,0.0,0.0,0.0,0.0,0.0,0.0,0.0,0.0,0.0,0.0,0.0,0.0,0.0,0.0,0.0,0.0,0.0,0.0,0.0,0.0,0.0,0.0,0.0,0.0,0.0,0.0,0.0,1.7386,1.792,1.5427,0.0,0.0,0.0,0.0,0.0,0.0,0.0,0.0,0.0,0.0,3.7714,3.9073,4.0002,0.0,0.0,4.2894,4.2408,4.3572,4.4032,4.3237,4.0345,3.9924,0.0,0.0,0.0,0.0,0.0,0.0,0.0,0.0,0.0,0.0,0.0,0.0,0.0,0.0,0.0,0.0,0.0,0.0,0.0,0.0,0.0,0.0,0.0,0.0,0.0,0.0,0.0,0.0,0.0,0.0,0.0,0.0,0.0,0.0,0.0,0.0,0.0,0.0,0.0,0.0,0.0,0.0,0.0,0.0,0.0,0.0,0.0,0.0,0.0,0.0,0.0,0.0,2.5628,2.8137,3.6932,4.1948,4.2965,4.2983,4.2886,4.2654,4.1877,3.8744,0.0,0.0,0.0,0.0,0.0,0.0,0.0,0.0,0.0,0.0,0.0,0.0,0.0,0.0,0.0,0.0,0.0,0.0,0.0,0.0,0.0,0.0,0.0,0.0,0.0,0.0,0.0,0.0,1.9406,1.9376,1.7017,0.0,0.0,0.0,0.0,0.0,0.0,0.0,0.0,0.0,0.0,4.1112,4.1935,4.3166,4.4218,4.4866,4.4913,4.4618,4.398,4.4601,4.4271,4.1609,0.0,0.0,0.0,0.0,0.0,0.0,0.0,0.0,0.0,0.0,0.0,0.0,0.0,0.0,0.0,0.0,0.0,0.0,0.0,0.0,0.0,0.0,0.0,0.0,0.0,0.0,0.0,0.0,0.0,0.0,0.0,0.0,0.0,0.0,0.0,0.0,0.0,0.0,0.0,0.0,0.0,0.0,0.0,0.0,0.0,0.0,0.0,0.0,0.0,0.0,0.0,0.0,0.0,2.5906,2.8936,3.7714,4.3001,4.4442,4.4542,4.4185,4.3508,4.2697,3.9314,3.3011,0.0,0.0,0.0,0.0,0.0,0.0,0.0,0.0,0.0,0.0,0.0,0.0,0.0,0.0,0.0,0.0,0.0,0.0,0.0,0.0,0.0,0.0,0.0,0.0,0.0,0.0,1.2304,1.4451,1.6991,0.0,0.0,0.0,0.0,0.0,0.0,0.0,0.0,0.0,0.0,4.0698,4.2323,4.5024,4.5884,4.6286,4.634,4.6099,4.5422,4.4136,4.523,4.4994,0.0,0.0,0.0,0.0,0.0,0.0,0.0,0.0,0.0,0.0,0.0,0.0,0.0,0.0,0.0,0.0,0.0,0.0,0.0,0.0,0.0,0.0,0.0,0.0,0.0,0.0,0.0,1.3428,1.2498,0.0,0.0,0.0,0.0,0.0,0.0,0.0,0.0,0.0,0.0,0.0,3.2257,3.3213,0.0,0.0,0.0,0.0,0.0,0.0,0.0,0.0,0.0,0.0,0.0,0.0,2.6922,3.0637,3.8788,4.359,4.4549,4.4585,4.4738,4.5006,4.3775,4.0089,3.374,0.0,0.0,0.0,0.0,0.0,0.0,0.0,0.0,0.0,0.0,0.0,0.0,0.0,0.0,0.0,0.0,0.0,0.0,0.0,0.0,0.0,0.0,0.0,0.0,0.0,2.0654,0.0,0.0,0.0,0.0,0.0,0.0,0.0,0.0,0.0,0.0,0.0,3.7137,4.0631,4.374,4.623,4.7746,4.8578,4.921,0.0,0.0,0.0,0.0,0.0,0.0,0.0,0.0,0.0,0.0,0.0,0.0,0.0,0.0,3.958,3.6162,3.5186,3.4908,3.4908,0.0,0.0,0.0,0.0,0.0,0.0,0.0,0.0,0.0,0.0,0.0,0.0,0.0,0.0,0.0,0.0,1.7561,0.0,0.0,0.0,0.0,0.0,0.0,0.0,0.0,3.1131,3.465,3.681,3.7731,3.7288,0.0,3.644,3.3319,0.0,0.0,0.0,0.0,0.0,0.0,0.0,0.0,2.9983,3.3856,4.0702,4.466,4.5398,4.572,4.598,4.6177,4.4703,4.1782,3.7369,3.5273,3.2382,0.0,0.0,0.0,0.0,0.0,0.0,0.0,0.0,0.0,0.0,0.0,0.0,0.0,0.0,0.0,0.0,0.0,0.0,0.0,0.0,0.0,0.0,0.0,2.5063,0.0,0.0,0.0,0.0,0.0,0.0,0.0,0.0,0.0,3.1323,3.6913,4.1835,4.3678,4.6555,4.8831,4.9757,0.0,0.0,0.0,0.0,0.0,0.0,0.0,4.7849,4.7001,4.7012,4.6765,4.5685,4.6497,4.7089,4.6361,0.0,0.0,4.3213,4.2033,4.1762,4.1781,4.1279,4.1136,4.2042,4.2424,4.2727,0.0,0.0,0.0,0.0,0.0,0.0,0.0,0.0,2.3683,2.4001,0.0,2.3497,0.0,0.0,0.0,0.0,0.0,0.0,0.0,0.0,3.7797,4.0287,4.1064,4.0412,4.0037,4.0091,4.0796,4.0206,3.818,3.2374,0.0,0.0,0.0,0.0,0.0,0.0,3.4841,3.8438,4.3301,4.6195,4.6955,4.7788,4.7841,4.705,4.5574,4.4396,4.3493,3.9107,3.5794,3.4007,2.4531,0.0,0.0,0.0,0.0,0.0,0.0,0.0,0.0,0.0,0.0,0.0,0.0,0.0,0.0,0.0,0.0,0.0,0.0,0.0,0.0,2.5645,0.0,0.0,0.0,0.0,0.0,0.0,0.0,0.0,0.0,0.0,3.8263,4.0962,4.4377,4.7786,0.0,0.0,0.0,0.0,5.2055,5.2131,5.1204,5.0333,4.9774,5.029,5.0334,4.9037,0.0,0.0,5.0288,5.1309,5.1497,4.9263,5.0684,5.1369,4.806,4.6222,4.5223,4.5166,4.5179,4.5426,4.6316,4.7978,4.9526,2.9635,0.0,0.0,0.0,0.0,2.5526,2.7641,3.1257,3.0722,3.0034,2.924,2.8944,0.0,0.0,0.0,0.0,0.0,0.0,3.0698,3.6336,3.7589,4.0066,4.3561,4.3354,4.3258,4.3276,4.349,4.3315,4.2771,4.1007,3.5972,2.8078,0.0,0.0,0.0,0.0,3.6638,3.9402,4.4146,4.6766,4.7009,4.83,4.8715,4.8086,4.7814,4.7298,4.6504,4.471,4.1829,3.7685,3.3748,0.0,0.0,0.0,0.0,0.0,0.0,0.0,0.0,0.0,0.0,0.0,0.0,0.0,0.0,0.0,0.0,0.0,0.0,0.0,2.7024,3.1737,3.3186,0.0,0.0,0.0,0.0,0.0,0.0,0.0,0.0,0.0,4.5143,4.6599,4.7906,0.0,0.0,5.106,5.1931,5.2721,5.3422,5.3989,0.0,0.0,0.0,5.17,5.1154,5.1305,5.1938,5.2248,5.1795,5.2103,5.2172,5.1428,5.1895,5.1938,5.0763,5.0365,5.0081,4.9797,4.9967,5.0308,5.0637,5.1237,5.1679,3.7196,3.2481,2.991,2.9842,3.1419,3.154,3.3679,3.7113,3.6981,3.6603,3.6057,3.5592,3.3503,3.0176,2.8579,0.0,0.0,0.0,3.5474,4.0732,4.107,4.2607,4.5006,4.5398,4.5559,4.557,4.557,4.5731,4.6034,4.6034,4.3022,3.722,0.0,0.0,3.4958,3.7735,4.0459,4.3013,4.6018,4.7862,4.8383,4.9287,4.9621,4.9303,4.9147,4.8723,4.8056,4.7648,4.578,4.2123,3.9633,3.6419,0.0,0.0,0.0,0.0,0.0,0.0,0.0,0.0,0.0,0.0,0.0,1.9152,0.0,0.0,0.0,0.0,2.9269,3.1325,3.4245,3.7731,0.0,0.0,0.0,0.0,0.0,0.0,0.0,4.3833,4.637,4.8405,4.9723,5.0948,5.143,5.0782,5.1547,5.2487,5.3283,0.0,5.4352,5.4844,5.4503,5.4174,5.4162,5.334,5.2828,5.3302,5.3397,5.3397,5.3397,5.3397,5.3397,5.3397,5.3378,5.3283,5.2961,5.3188,5.3131,5.2393,5.2298,5.2393,5.2393,5.2677,5.2885,4.3784,4.329,3.7802,3.5994,3.6801,3.7547,3.9216,4.1413,4.2144,4.2912,4.3504,4.2562,4.0652,3.7953,3.4235,0.0,0.0,4.0002,4.232,4.6076,4.6795,4.673,4.6141,4.6848,4.7199,4.7222,4.7199,4.7592,4.8258,4.8282,4.811,4.7645,4.4529,4.3279,4.388,4.4012,4.5483,4.8233,4.8582,4.9348,5.0592,5.0675,5.067,5.0682,4.9984,4.9392,4.8906,4.8809,4.8211,4.6881,4.3319,4.0626,3.9102,0.0,0.0,0.0,0.0,0.0,0.0,0.0,0.0,0.0,0.0,0.0,0.0,0.0,0.0,0.0,4.027,0.0,4.3515,4.2985,0.0,0.0,0.0,4.0648,4.3099,4.3624,4.5052,4.8272,0.0,0.0,0.0,0.0,5.4553,5.3897,5.3795,5.4048,5.4704,5.4806,5.4901,5.4901,5.4901,5.4901,5.4825,5.4723,5.4685,5.4731,5.4901,5.4799,5.4799,5.4799,5.4856,5.4787,5.4882,5.4844,5.4882,5.4769,5.4572,5.351,5.298,5.2639,5.2753,5.3283,5.3707,4.6163,4.6039,4.462,4.3321,4.2244,4.2679,4.3216,4.3775,4.3971,4.415,4.4353,4.468,4.4798,4.4663,4.3704,4.4238,4.5905,4.5466,4.6411,4.8377,4.808,4.8104,4.8485,4.8663,4.8858,4.9032,4.8846,4.8965,4.932,4.9144,4.9299,4.9704,4.8359,4.7299,4.6647,4.7686,4.8611,4.9325,5.0188,5.1056,5.1926,5.2136,5.2257,5.2239,5.2273,5.2211,5.2075,5.1501,5.0929,5.0385,4.8881,4.7808,4.7218,3.9179,0.0,0.0,0.0,0.0,0.0,0.0,0.0,0.0,0.0,3.1065,3.0139,0.0,3.7483,0.0,4.5938,4.6762,4.2133,4.3829,0.0,0.0,4.3604,4.4395,4.7827,4.8157,4.9221,5.2071,5.2224,5.2658,5.4143,5.4124,5.4143,5.4534,5.4628,5.4458,5.4086,5.4522,5.4901,5.4901,5.4901,5.4901,5.4939,5.4901,5.4939,5.4901,5.492,5.4901,5.492,5.4901,5.4901,5.4901,5.4901,5.4901,5.4932,5.4901,5.4837,5.4553,5.4382,5.4306,5.4306,5.4484,5.4598,4.8032,4.8015,4.8032,4.6908,4.5188,4.5888,4.6212,4.623,4.654,4.6689,4.6707,4.7153,4.7593,4.8021,4.8015,4.8461,4.9168,4.8758,4.9281,5.0516,5.0486,5.0504,5.0581,5.1389,5.1365,5.0611,5.0922,5.0904,5.0611,5.0431,5.0694,5.1323,5.0815,5.0304,4.9858,4.9637,4.9577,4.9711,5.1087,5.2037,5.2574,5.2597,5.2638,5.262,5.2772,5.2901,5.3009,5.2607,5.2003,5.1297,5.1169,5.0887,5.0352,4.5675,4.4044,0.0,0.0,0.0,0.0,0.0,0.0,0.0,0.0,0.0,0.0,0.0,4.2102,0.0,4.8161,0.0,4.5254,4.7249,4.8659,4.8345,4.8047,4.8841,5.1343,5.1159,5.1716,5.3958,5.3499,5.3454,5.4704,5.4515,5.4382,5.4844,5.4901,5.4742,5.4371,5.4628,5.4901,5.4901,5.4901,5.5072,5.5413,5.5537,5.5692,5.5955,5.608,5.6083,5.6034,5.6019,5.6019,5.6019,5.6019,5.5925,5.5735,5.5887,5.6076,5.6285,5.6171,5.5887,5.5564,5.5754,5.6019,4.9656,4.9656,4.9692,4.8699,4.7251,4.8306,4.8317,4.7642,4.8277,4.8752,4.9102,4.9478,4.971,4.9829,4.9943,5.0396,5.1051,5.1057,5.1562,5.2474,5.3044,5.293,5.233,5.3773,5.3531,5.1819,5.2801,5.2819,5.1963,5.2053,5.2323,5.2699,5.254,5.2592,5.2826,5.098,5.0074,5.0154,5.1674,5.2586,5.2846,5.2597,5.2483,5.2488,5.2488,5.2608,5.2828,5.2857,5.2316,5.1204,5.1785,5.183,5.1141,5.1361,5.0278,0.0,4.691,0.0,0.0,0.0,0.0,0.0,0.0,0.0,0.0,4.6103,4.6883,4.5214,4.9012,5.1167,5.0241,5.1357,5.2405,5.3002,5.2798,5.2885,5.3556,5.3094,5.3283,5.475,5.4295,5.4136,5.4787,5.4901,5.4901,5.5091,5.5158,5.523,5.5253,5.52,5.5136,5.5094,5.5219,5.5771,5.6303,5.653,5.6775,5.7305,5.7411,5.7562,5.7377,5.7248,5.7251,5.7346,5.7365,5.727,5.6804,5.7043,5.7497,5.7801,5.7657,5.7251,5.6607,5.6815,5.7365,5.1562,5.1587,5.1741,5.1601,5.1284,5.1522,4.884,4.4406,4.4546,4.585,4.8089,5.0503,5.194,5.2599,5.3454,5.3917,5.4062,5.4062,5.4177,5.4351,5.3634,5.323,5.3056,5.2548,5.22,5.2077,5.2887,5.3285,5.3249,5.3954,5.4345,5.443,5.4375,5.4085,0.0,0.0,0.0,0.0,5.266,5.285,5.3111,5.2868,5.2828,5.3039,5.3031,0.0,5.3114,5.3132,5.2996,5.2774,5.2884,0.0,0.0,0.0,0.0,0.0,0.0,0.0,0.0,0.0,0.0,0.0,4.6815,4.6876,4.588,4.8754,5.0279,4.9351,5.1793,5.3222,5.2607,5.2787,5.2845,5.2608,5.3091,5.3518,5.3707,5.4117,5.4572,5.4837,5.4742,5.4712,5.4909,5.4901,5.5185,5.5879,5.6051,5.6371,5.6953,5.6402,5.6011,5.6128,5.668,5.7296,5.7558,5.7604,5.7657,5.778,5.7682,5.7658,5.7648,5.7199,5.7009,5.7396,5.7763,5.7903,5.738,5.7335,5.7559,5.7573,5.8055,5.8188,5.7354,5.7289,5.7403,5.1975,0.0,5.2198,5.1758,0.0,5.0959,4.8947,4.5752,4.7684,4.952,5.1298,5.2804,5.3719,5.4044,5.3386,5.3071,5.3035,5.1835,5.2211,5.3808,5.3311,5.3687,5.4834,5.4816,5.4363,5.3526,5.44,5.4635,5.4278,5.4677,5.4936,5.5049,5.5037,5.4908,5.4663,5.5035,5.4697,5.3602,5.3602,5.3463,5.3203,5.306,5.306,5.3196,0.0,0.0,0.0,0.0,0.0,0.0,0.0,0.0,0.0,0.0,0.0,5.1171,4.9457,4.8568,4.8955,4.887,4.9342,5.0596,5.0949,5.0823,5.0094,5.1744,5.2607,5.2214,5.3448,5.4129,5.3887,5.3951,5.3944,5.3685,5.4029,5.4295,5.4333,5.4628,5.4901,5.4901,5.4901,5.5064,5.5569,5.5634,5.6038,5.6863,5.7075,5.7289,5.7612,5.7346,5.7066,5.7097,5.7194,5.7683,5.8419,5.8519,5.874,5.9091,5.927,5.9234,5.914,5.8787,5.8635,5.896,5.9145,5.9098,5.8999,5.8873,5.8801,5.8783,5.9083,5.9241,5.8723,5.8642,5.8624,5.2268,5.2654,5.2708,5.1878,5.0574,5.0574,5.0147,4.9572,0.0,0.0,0.0,5.4931,5.5166,5.5039,5.3223,5.24,5.2273,5.0344,5.0998,5.3664,5.3528,5.4483,5.6385,5.7133,5.6554,5.4991,5.592,5.5987,5.5184,5.5329,5.5514,5.5695,5.5701,5.5823,5.6014,5.6007,5.5537,5.4609,5.4558,5.4246,5.3636,5.3439,5.3373,5.3398,5.3251,5.3196,5.3196,5.3196,5.2894,5.2252,5.2215,5.2228,5.2289,5.2281,5.2596,5.3291,5.3543,5.3681,5.3681,5.3934,5.4114,5.4148,5.3743,5.3647,5.4077,5.3991,5.3998,5.4148,5.4391,5.456,5.4579,5.4761,5.4901,5.4901,5.4901,5.4901,5.492,5.5045,5.5166,5.5148,5.5348,5.5673,5.6476,5.6647,5.7026,5.7867,5.8138,5.8304,5.8406,5.8317,5.822,5.8425,5.8285,5.8228,5.9225,5.9593,5.9833,6.0533,6.0809,6.0925,6.0802,6.068,6.064,6.0484,6.0468,6.0393,6.0474,6.0316,6.0338,6.0232,6.0223,6.0165,6.0014,5.9967,5.9884,5.3879,5.479,5.5014,5.4964,5.4745,5.4726,5.5052,5.5327,5.3188,5.2294,5.2564,5.5081,5.6198,5.621,5.6786,5.7043,5.7024,5.6694,5.6809,0.0,5.6314,5.6081,5.6355,5.5667,5.5196,5.4991,5.592,5.6325,5.6295,5.7085,5.7567,5.7584,5.762,5.7613,5.7648,5.7666,5.7409,5.6821,5.5665,5.5142,5.5244,5.4378,5.4001,5.4205,5.3573,5.3196,5.3196,5.3214,5.3159,5.3031,5.3031,5.313,5.3357,5.3387,5.3531,5.3851,5.3934,5.3943,5.3962,5.4238,5.4527,5.4734,5.4701,5.459,5.4432,5.4009,5.402,5.4663,5.4818,5.4849,5.4849,5.4917,5.5015,5.4977,5.4939,5.492,5.5015,5.561,5.6034,5.6034,5.6735,5.7203,5.7435,5.7608,5.8009,5.8743,5.9168,5.9575,6.0157,5.9766,5.954,6.0167,6.0315,6.0448,6.0692,6.0961,6.0965,6.1098,6.1081,6.1039,6.0986,6.0972,6.091,6.073,6.0785,6.0814,6.0724,6.066,6.0707,6.0692,6.0725,6.0669,6.0491,6.0408,6.0251,5.465,5.5192,5.5332,5.5474,5.564,5.6069,5.6455,5.6715,5.5728,5.526,5.5392,5.6698,5.7266,5.7186,5.641,5.6051,5.5996,5.4693,5.4803,5.5967,5.5536,5.6022,5.7145,5.6814,5.6584,5.6632,5.7055,5.7278,5.7315,5.7767,5.7978,5.8015,5.8419,5.8859,5.9281,5.93,5.9216,5.8935,5.724,5.6193,5.5876,5.5546,5.5259,5.5074,5.4979,5.4916,5.4769,5.4906,5.4997,5.4997,5.4987,5.5047,5.5183,5.5164,5.523,5.5342,5.5533,5.5613,5.5632,5.5906,5.6111,5.6231,5.6266,5.6201,5.6071,5.5023,5.4496,5.4882,5.5299,5.5602,5.5621,5.5981,5.6247,5.6247,5.6247,5.6247,5.6311,5.6641,5.6971,5.7004,5.7439,5.7968,5.8559,5.8711,5.9142,6.0041,6.037,6.0652,6.1115,6.074,6.0475,6.0925,6.1022,6.1097,6.1275,6.1402,6.1455,6.1431,6.1383,6.1324,6.132,6.1344,6.1308,6.1204,6.1205,6.1143,6.1106,6.1438,6.1572,6.1582,6.1954,6.2053,6.1901,6.1691,6.1164,5.5478,5.5839,5.5839,5.593,5.6191,5.6792,5.7068,5.7123,5.771,5.7978,5.7978,5.7978,5.7978,5.7795,5.6014,5.5225,5.495,5.328,5.3463,5.5078,5.5207,5.6198,5.785,5.7978,5.8107,5.8253,5.8272,5.8364,5.8529,5.8529,5.8529,5.8621,5.9171,5.9783,6.037,6.0389,6.0381,6.0262,5.8767,5.7655,5.7093,5.6887,5.6613,5.6318,5.6389,5.6415,5.6219,5.6396,5.6491,5.6491,5.6491,5.6519,5.6621,5.6621,5.6639,5.673,5.6933,5.709,5.7098,5.7281,5.7403,5.7403,5.7403,5.7403,5.7289,5.6114,5.5337,5.5508,5.5981,5.6304,5.6493,5.6975,5.7403,5.7411,5.7423,5.7351,5.7434,5.774,5.7923,5.7963,5.8282,5.8935,5.9576,5.9858,6.0239,6.0955,6.1244,6.1252,6.1275,6.1286,6.1286,6.1275,6.1244,6.1264,6.1405,6.1523,6.1578,6.1588,6.1795,6.1899,6.196,6.2029,6.217,6.2223,6.2099,6.2112,6.2079,6.2441,6.2738,6.2726,6.3114,6.3373,6.2899,6.2704,6.2215,5.6837,5.7657,5.765,5.7746,5.774,5.785,5.7886,5.7905,5.8008,5.7978,5.8056,5.799,5.8001,5.796,5.7714,5.7572,5.7572,5.7421,5.7377,5.7579,5.7666,5.7795,5.807,5.8045,5.8382,5.9013,5.9104,5.9416,6.0015,6.0089,6.0132,6.0181,6.0242,6.0339,6.0413,6.0431,6.0349,6.0234,6.0043,5.9977,5.9906,5.8419,5.7782,5.8219,5.7102,5.6482,5.6584,5.65,5.6519,5.6491,5.6566,5.6676,5.6946,5.7,5.7083,5.7327,5.7393,5.7371,5.739,5.7376,5.7479,5.7403,5.7479,5.7497,5.746,5.6872,5.6664,5.7012,5.6823,5.6823,5.7213,5.7429,5.7581,5.7661,5.7685,5.7565,5.7777,5.8394,5.8968,5.8968,5.9777,6.058,6.0604,6.0784,6.107,6.1327,6.1383,6.1405,6.1487,6.1501,6.1581,6.1548,6.1411,6.1403,6.159,6.16,6.1783,6.1783,6.2309,6.2698,6.2932,6.3302,6.3848,6.3534,6.3721,6.3647,6.363,6.3923,6.3912,6.3889,6.3955,6.3878,6.3066,6.301,6.2784,5.7604,5.7978,5.7978,5.7978,5.8033,5.851,5.8701,5.8724,5.8923,5.9013,5.8954,5.8725,5.8481,5.8305,5.8294,5.8403,5.8588,5.8598,5.8741,5.898,5.9013,5.9152,5.9403,5.9428,5.9612,5.9893,5.9912,6.0059,6.0346,6.0389,6.049,6.0709,6.0943,6.1074,6.1033,6.1264,6.1233,6.0905,6.06,6.0602,6.0803,5.9693,5.8924,5.8793,5.8596,5.8419,5.8266,5.8391,5.8506,5.8506,5.8515,5.8557,5.8696,5.8704,5.8765,5.8873,5.8862,5.8889,5.887,5.887,5.887,5.8881,5.887,5.8889,5.887,5.868,5.8674,5.8836,5.811,5.7725,5.8139,5.8605,5.8902,5.8976,5.9053,5.9108,5.9209,5.9709,6.0109,6.0152,6.062,6.1073,6.1164,6.1319,6.1452,6.1515,6.1518,6.1534,6.1583,6.1588,6.1822,6.2243,6.2402,6.2396,6.2416,6.2525,6.2698,6.303,6.3361,6.3653,6.4043,6.3672,6.3792,6.4493,6.4649,6.451,6.4057,6.4605,6.4859,6.4912,6.5311,6.5359,6.4904,6.4767,6.4602,5.8657,5.8657,5.8657,5.8568,5.8513,5.909,5.9258,5.9168,5.9414,5.9491,5.9486,5.9146,5.8897,5.8764,5.8671,5.8793,5.8975,5.8994,5.9163,5.9494,5.951,5.9734,6.0174,6.0206,6.0404,6.0688,6.0731,6.0841,6.1,6.0894,6.0997,6.1247,6.144,6.1481,6.1429,6.1751,6.1675,6.1186,6.0774,6.0736,6.0858,6.028,5.9743,5.9497,5.9717,5.9776,5.955,5.9767,5.9912,5.9893,5.9912,5.9912,5.9912,5.9912,5.9912,5.9912,5.9912,5.9912,5.9912,5.9912,5.9912,5.9912,5.9934,5.9958,5.995,5.9918,5.9971,6.0041,5.9375,5.9024,5.9144,5.9668,6.0045,6.0132,6.0213,6.0405,6.075,6.0931,6.099,6.1228,6.1244,6.132,6.1421,6.1526,6.1581,6.1583,6.1585,6.1588,6.1646,6.1802,6.2211,6.2815,6.3224,6.3417,6.3283,6.3536,6.3906,6.4004,6.4177,6.4608,6.5095,6.4432,6.4335,6.5562,6.5484,6.5446,6.529,6.5579,6.5696,6.5817,6.61,6.6406,6.6148,6.6166,6.5957,6.0297,6.0254,6.0272,5.9932,5.9615,5.9645,5.942,5.9109,5.9086,5.9087,5.9143,5.9061,5.913,5.9317,5.9092,5.8994,5.9014,5.9043,5.9098,5.918,5.9143,5.9316,5.9693,5.9737,6.0365,6.1366,6.1409,6.1789,6.2445,6.2144,6.2029,6.1974,6.1597,6.1386,6.1348,6.1373,6.1169,6.0698,6.0575,6.041,6.006,5.9945,6.0093,6.0329,6.0114,5.9885,5.9869,5.9896,5.9912,5.9912,5.9912,5.9912,5.9912,5.9912,5.9912,5.9912,5.9912,5.9912,5.9958,5.9985,6.0031,6.0029,6.0242,6.016,6.0312,6.0086,6.0129,6.0335,6.0591,6.0527,6.0368,6.027,6.0284,6.0321,6.0577,6.1074,6.183,6.1384,6.1598,6.1999,6.1724,6.1479,6.1568,6.1585,6.1588,6.1607,6.1607,6.1666,6.1841,6.2348,6.2854,6.3166,6.3634,6.406,6.4101,6.4354,6.4493,6.4725,6.5112,6.5368,6.5657,6.593,6.6261,6.6476,6.6378,6.6398,6.6534,6.6573,6.6515,6.6496,6.6395,6.653,6.6561,6.6438,6.6264,6.0389,6.037,6.0077,5.9852,5.9726,5.991,5.9909,5.9788,5.9956,6.0041,5.9985,5.9717,5.964,5.9725,5.9631,5.9588,5.9579,5.9569,5.9727,5.9985,6.0013,6.0299,6.0752,6.0776,6.0965,6.1396,6.1467,6.1615,6.1838,6.1717,6.1477,6.1248,6.1309,6.1106,6.0603,6.0736,6.0642,6.0193,6.0152,6.0051,5.9934,5.9912,5.9988,6.0112,6.0007,5.9912,5.9912,5.9912,5.9912,5.9912,5.9912,5.9912,5.9912,5.9912,5.9912,5.9912,5.9912,6.0188,6.0748,6.0866,6.1141,6.1755,6.1865,6.1845,6.1718,6.0993,6.0759,6.1726,6.1908,6.1962,6.2024,6.116,6.039,6.0602,6.0746,6.1041,6.1355,6.1403,6.1458,6.1705,6.1605,6.1578,6.1576,6.1588,6.1588,6.1646,6.2075,6.2387,6.2542,6.3127,6.3806,6.4352,6.4742,6.5151,6.5755,6.5368,6.529,6.5735,6.6105,6.6164,6.6378,6.6359,6.6592,6.6592,6.669,6.6709,6.6651,6.6651,6.6709,6.6702,6.6618,6.6621,6.6685,6.6575,6.6475,6.1178,6.111,6.0676,6.0381,6.0269,6.0311,6.0236,6.0135,6.0282,6.0371,6.0321,6.0038,5.9912,5.9912,5.9912,5.9912,5.9912,5.9912,6.007,6.0343,6.0371,6.0642,6.1078,6.1141,6.1231,6.1373,6.14,6.1512,6.1738,6.1644,6.1382,6.1093,6.1243,6.0847,6.0106,6.0222,6.0202,5.9945,5.9912,6.0007,6.0197,6.0026,6.0045,6.0197,6.0026,5.9912,5.9912,5.9912,5.9912,5.9912,5.9912,5.9912,5.9912,5.9912,5.9912,5.9912,5.9912,6.0202,6.0894,6.1237,6.1705,6.2414,6.2796,6.2978,6.2889,6.2162,6.2311,6.2906,6.3247,6.3337,6.3171,6.2228,6.1432,6.1415,6.1384,6.1479,6.1656,6.183,6.1747,6.1567,6.157,6.1583,6.1627,6.188,6.2016,6.2036,6.2737,6.3263,6.338,6.4001,6.4664,6.529,6.5618,6.5989,6.632,6.6086,6.593,6.63,6.6417,6.6631,6.6709,6.6709,6.6709,6.6709,6.6709,6.6709,6.6709,6.6709,6.6709,6.6709,6.6702,6.6674,6.6709,6.6709,6.6615,6.2738,6.2616,6.2271,6.1744,6.1315,6.0933,6.0398,6.0171,6.0126,6.0242,6.0328,6.0056,6.0197,6.0064,6.0216,6.0045,6.014,6.0178,6.0086,6.0004,6.0107,6.0343,6.0707,6.0848,6.1111,6.1494,6.1441,6.1825,6.2429,6.2097,6.1874,6.1788,6.1428,6.0947,6.0007,6.0202,6.0077,6.0026,6.0026,6.0329,6.0898,6.0367,6.0348,6.086,6.0367,5.9969,5.9912,5.9912,5.9912,5.9912,5.9912,5.9912,5.9912,5.9912,5.9912,5.991,5.991,6.0001,6.0308,6.1077,6.1682,6.219,6.2703,6.3397,6.3513,6.3694,6.3813,6.3747,6.4034,6.4271,6.384,6.3631,6.3307,6.2671,6.2575,6.2641,6.2633,6.2744,6.254,6.1795,6.1685,6.1646,6.1802,6.2387,6.2854,6.301,6.3575,6.4118,6.4196,6.4859,6.5346,6.5599,6.6008,6.6495,6.6631,6.669,6.667,6.669,6.6651,6.6709,6.6709,6.6709,6.6709,6.6709,6.6709,6.6709,6.6709,6.6709,6.6709,6.6709,6.6709,6.6709,6.6709,6.6709,6.6709,6.2811,6.2788,6.2558,6.2369,6.2193,6.1929,6.1742,6.162,6.162,6.162,6.162,6.162,6.161,6.161,6.1629,6.1601,6.162,6.1583,6.1022,6.0291,6.106,6.1322,6.1112,6.1549,6.1912,6.2067,6.2087,6.22,6.2398,6.2328,6.2249,6.2199,6.2071,6.1867,6.1526,6.1601,6.1382,6.0803,6.0746,6.0879,6.1088,6.086,6.086,6.1031,6.0841,6.0481,5.9931,5.9912,5.9912,5.9912,5.9912,5.9912,5.9912,5.9912,5.9942,6.0007,6.0041,6.0456,6.126,6.2054,6.2837,6.359,6.4449,6.4975,6.4955,6.4744,6.4811,6.5013,6.5054,6.4952,6.5362,6.5052,6.4399,6.3606,6.356,6.3378,6.2919,6.2369,6.1936,6.1783,6.2133,6.2445,6.264,6.3224,6.3709,6.3809,6.4449,6.4995,6.5112,6.5677,6.6261,6.6359,6.667,6.6709,6.6709,6.6709,6.6709,6.6709,6.6709,6.6709,6.6709,6.6709,6.6709,6.6709,6.6709,6.6709,6.6709,6.6709,6.6709,6.6709,6.6709,6.6709,6.6709,6.6709,6.6709,6.2811,6.2788,6.265,6.2587,6.2595,6.2454,6.2416,6.2416,6.2416,6.2416,6.2397,6.2397,6.2416,6.2416,6.2416,6.2416,6.2435,6.2682,6.2113,6.1098,6.181,6.2075,6.1648,6.2113,6.2416,6.2416,6.2416,6.2568,6.2852,6.2852,6.2852,6.2843,6.2852,6.2454,6.2056,6.2208,6.1989,6.1269,6.1401,6.1724,6.1894,6.1743,6.1724,6.1932,6.1743,6.1182,6.0443,6.0643,6.053,6.0045,5.9912,5.9912,5.9921,5.995,6.001,6.0076,6.0204,6.064,6.1709,6.2534,6.3361,6.4154,6.5205,6.571,6.5559,6.5222,6.561,6.5954,6.5834,6.5833,6.6222,6.5771,6.5067,6.4603,6.4509,6.4162,6.3409,6.2309,6.1899,6.2094,6.2562,6.2991,6.34,6.4043,6.4547,6.4705,6.5326,6.5891,6.5989,6.632,6.6573,6.669,6.6709,6.6709,6.6709,6.6709,6.6709,6.6709,6.6709,6.6709,6.6709,6.6709,6.6709,6.6709,6.6709,6.6709,6.6709,6.6709,6.6709,6.6709,6.6709,6.6709,6.6709,6.6709,6.6709,6.2867,6.2843,6.2769,6.277,6.2778,6.2717,6.2738,6.2644,6.2663,6.2719,6.2682,6.2795,6.27,6.2625,6.2814,6.2814,6.2719,6.3345,6.3326,6.2719,6.2738,6.27,6.2719,6.2814,6.2852,6.2776,6.2738,6.3042,6.3648,6.3686,6.3686,6.3686,6.3629,6.2966,6.2178,6.2227,6.2246,6.1534,6.2065,6.2776,6.3269,6.2814,6.2738,6.3383,6.2776,6.2065,6.142,6.1772,6.1507,6.0235,6.0178,6.0262,6.0086,6.0147,6.0415,6.038,6.0371,6.0969,6.1818,6.2816,6.3393,6.3725,6.498,6.5631,6.5255,6.5654,6.6036,6.6264,6.6237,6.6266,6.6212,6.5639,6.5216,6.5265,6.4865,6.45,6.406,6.2659,6.2289,6.2776,6.303,6.3322,6.4138,6.4936,6.5365,6.5599,6.6125,6.6417,6.6554,6.6612,6.669,6.6709,6.6709,6.6709,6.6709,6.6709,6.6709,6.6709,6.6709,6.6709,6.6709,6.6709,6.6709,6.6709,6.6709,6.6709,6.6709,6.6709,6.6709,6.6709,6.6709,6.6709,6.6709,6.6709,6.6709,6.3606,6.3624,6.3823,6.3929,6.395,6.4131,6.4216,6.4235,6.4197,6.4122,6.4197,6.4235,6.4141,6.4235,6.4197,6.4254,6.4216,6.4406,6.4482,6.4292,6.4263,6.4235,6.4235,6.4235,6.4197,6.4159,6.4084,6.4349,6.4538,6.4482,6.4509,6.4557,6.4482,6.433,6.4017,6.3998,6.3429,6.2387,6.2871,6.306,6.289,6.3193,6.3383,6.3515,6.3393,6.2871,6.2151,6.2265,6.1943,6.0966,6.142,6.1487,6.1056,6.1469,6.1609,6.1388,6.1885,6.217,6.2298,6.3322,6.411,6.4327,6.5166,6.5849,6.5815,6.6046,6.6284,6.6318,6.6056,6.5717,6.5567,6.4924,6.4508,6.4371,6.4004,6.3809,6.3887,6.3263,6.2893,6.3653,6.4313,6.4703,6.5131,6.5716,6.6261,6.6339,6.6515,6.6709,6.6709,6.6709,6.6709,6.6709,6.6709,6.6709,6.6709,6.6709,6.6709,6.6709,6.6709,6.6709,6.6709,6.6709,6.6709,6.6709,6.6709,6.6709,6.6709,6.6709,6.6709,6.6709,6.6709,6.6709,6.6709,6.6709,6.6709,6.3907,6.392,6.4267,6.4395,6.4453,6.4763,6.4917,6.4917,6.4917,6.4917,6.4917,6.4917,6.4917,6.4917,6.4907,6.4898,6.4917,6.4917,6.488,6.488,6.4842,6.4842,6.4861,6.4898,6.4917,6.4917,6.4917,6.488,6.4888,6.4917,6.4917,6.488,6.4917,6.4718,6.4235,6.4709,6.4282,6.3288,6.3686,6.3875,6.3553,6.3875,6.4084,6.4141,6.4122,6.3856,6.3486,6.3194,6.2623,6.1993,6.214,6.2154,6.1526,6.1944,6.2101,6.1831,6.2369,6.2579,6.2802,6.357,6.4036,6.4268,6.4941,6.5448,6.5746,6.6079,6.6438,6.6507,6.6137,6.5808,6.5248,6.4332,6.3517,6.3088,6.2952,6.3205,6.4023,6.3692,6.3848,6.451,6.5073,6.5579,6.5872,6.6417,6.6631,6.669,6.6651,6.6709,6.6709,6.6709,6.6709,6.6709,6.6709,6.6709,6.6709,6.6709,6.6709,6.6709,6.6709,6.6709,6.6709,6.6709,6.6709,6.6709,6.6709,6.6709,6.6709,6.6709,6.6709,6.6709,6.6709,6.6709,6.6709,6.6709,6.6709,6.4002,6.4034,6.4345,6.4444,6.452,6.4753,6.4917,6.4917,6.4917,6.4917,6.4917,6.4917,6.4917,6.4917,6.4917,6.4917,6.4917,6.4917,6.4917,6.4917,6.4917,6.4917,6.4917,6.4917,6.4917,6.4917,6.4917,6.4917,6.4917,6.4917,6.4917,6.4917,6.4917,6.452,6.4273,6.4576,6.4396,6.3837,6.4311,6.4557,6.4425,6.4557,6.4709,6.4737,6.477,6.4517,6.4239,6.3953,6.3365,6.244,6.2707,6.2639,6.2018,6.208,6.2253,6.2414,6.2752,6.3135,6.3364,6.3716,6.3825,6.4185,6.4755,6.5059,6.5557,6.6122,6.6536,6.6669,6.6551,6.5657,6.4666,6.3497,6.262,6.2172,6.2503,6.3361,6.3904,6.4157,6.4566,6.5385,6.554,6.595,6.6398,6.6709,6.6709,6.6709,6.6709,6.6709,6.6709,6.6709,6.6709,6.6709,6.6709,6.6709,6.6709,6.6709,6.6709,6.6709,6.6709,6.6709,6.6709,6.6709,6.6709,6.6709,6.6709,6.6709,6.6709,6.6709,6.6709,6.6709,6.6709,6.6709,6.6709,6.6709,6.6709,6.4689,6.4689,6.4772,6.479,6.4799,6.4881,6.4917,6.4917,6.4917,6.4917,6.4917,6.4917,6.4917,6.4917,6.4917,6.4917,6.4917,6.4917,6.4917,6.4917,6.4917,6.4917,6.4917,6.4917,6.4917,6.4917,6.4917,6.4917,6.4917,6.4917,6.4917,6.4917,6.4907,6.4813,6.469,6.4699,6.4482,6.3913,6.4463,6.4547,6.4254,6.4557,6.4785,6.4765,6.4858,6.4232,6.3375,6.3568,6.3451,6.3155,6.3806,6.4156,6.3688,6.4148,6.4236,6.4033,6.4487,6.4743,6.4537,6.4856,6.5465,6.5336,6.5514,6.6058,6.6192,6.6282,6.6543,6.6416,6.5501,6.4294,6.303,6.225,6.1861,6.1919,6.2874,6.3848,6.416,6.4722,6.5482,6.6086,6.6359,6.6495,6.6651,6.6709,6.6709,6.6709,6.6709,6.6709,6.6709,6.6709,6.6709,6.6709,6.6709,6.6709,6.6709,6.6709,6.6709,6.6709,6.6709,6.6709,6.6709,6.6709,6.6709,6.6709,6.6709,6.6709,6.6709,6.6709,6.6709,6.6709,6.6709,6.6709,6.6709,6.6709,6.6943,6.4917,6.4917,6.4917,6.4917,6.4917,6.4917,6.4917,6.4917,6.4917,6.4917,6.4917,6.4917,6.4917,6.4917,6.4917,6.4917,6.4917,6.4917,6.4917,6.4917,6.4917,6.4917,6.4917,6.4917,6.4917,6.4917,6.4917,6.4917,6.4917,6.4917,6.4917,6.4917,6.4917,6.4907,6.4917,6.4917,6.4671,6.4406,6.4614,6.4633,6.4368,6.4197,6.4027,6.3808,6.3789,6.332,6.271,6.308,6.3177,6.3286,6.4161,6.4629,6.4114,6.4633,6.4878,6.4814,6.4955,6.517,6.4958,6.5164,6.5455,6.569,6.5762,6.5855,6.5949,6.5997,6.6015,6.58,6.4897,6.3553,6.2367,6.1763,6.1646,6.188,6.3107,6.4023,6.4296,6.5209,6.6144,6.6592,6.6651,6.667,6.6709,6.6709,6.6709,6.6709,6.6709,6.6709,6.6709,6.6709,6.6709,6.6709,6.6709,6.6709,6.6709,6.6709,6.6709,6.6709,6.6709,6.6709,6.6709,6.6709,6.6709,6.6709,6.6709,6.6709,6.6709,6.6709,6.6709,6.6709,6.6709,6.6709,6.6846,6.7119,6.7391,6.4917,6.4917,6.4917,6.4917,6.4917,6.4917,6.4917,6.4917,6.4917,6.4917,6.4917,6.4917,6.4917,6.4917,6.4917,6.4917,6.4917,6.4917,6.4917,6.4917,6.4917,6.4917,6.4917,6.4917,6.4917,6.4917,6.4917,6.4917,6.4917,6.4917,6.4917,6.4917,6.4917,6.4917,6.4917,6.4917,6.4861,6.4804,6.4842,6.469,6.4557,6.4111,6.3619,6.2834,6.2759,6.249,6.2239,6.2439,6.2684,6.2795,6.3649,6.3649,6.3559,6.4148,6.4819,6.4869,6.5054,6.5136,6.5234,6.5228,6.5351,6.5381,6.5486,6.5443,6.5497,6.5472,6.5396,6.499,6.4296,6.3439,6.2757,6.2036,6.1627,6.1899,6.3107,6.3965,6.4393,6.5638,6.6515,6.667,6.6709,6.6709,6.6709,6.6709,6.6709,6.6709,6.6709,6.6709,6.6709,6.6709,6.6709,6.6709,6.6709,6.6709,6.6709,6.6709,6.6709,6.6709,6.6709,6.6709,6.6709,6.6709,6.6709,6.6709,6.6709,6.6729,6.6729,6.6709,6.6709,6.6709,6.6768,6.6807,6.7119,6.7528,6.7956,6.4917,6.4917,6.4917,6.4917,6.4917,6.4917,6.4917,6.4917,6.4917,6.4917,6.4917,6.4917,6.4917,6.4917,6.4917,6.4917,6.4917,6.4917,6.4917,6.4917,6.4917,6.4917,6.4917,6.4917,6.4917,6.4917,6.4917,6.4917,6.4917,6.4917,6.4917,6.4917,6.4917,6.4917,6.4917,6.4917,6.4917,6.4917,6.4898,6.4614,6.4254,6.4148,6.3639,6.2512,6.2376,6.1949,6.122,6.1519,6.169,6.1173,6.1831,6.235,6.3007,6.4492,6.5467,6.5705,6.5708,6.5747,6.5881,6.6076,6.6198,6.6309,6.6289,6.5959,6.5594,6.5287,6.4897,6.4216,6.3575,6.2796,6.1899,6.1685,6.1627,6.1977,6.2893,6.4004,6.441,6.5443,6.6592,6.669,6.669,6.6709,6.6709,6.6709,6.6709,6.6709,6.6709,6.6709,6.6709,6.6709,6.6709,6.6709,6.6709,6.6709,6.6709,6.6709,6.6709,6.6709,6.6709,6.6709,6.6709,6.6709,6.6729,6.6924,6.6865,6.6768,6.6768,6.6826,6.6885,6.7002,6.6982,6.7002,6.7489,6.8073,6.8875,6.4917,6.4917,6.4917,6.4917,6.4917,6.4917,6.4917,6.4917,6.4917,6.4917,6.4917,6.4917,6.4917,6.4917,6.4917,6.4917,6.4917,6.4917,6.4917,6.4917,6.4917,6.4917,6.4907,6.4907,6.4917,6.4917,6.4917,6.4916,6.4917,6.4917,6.4916,6.4917,6.4917,6.4917,6.4917,6.4917,6.4907,6.4907,6.4869,6.4699,6.4139,6.4094,6.2873,6.1838,6.1532,6.1143,6.0831,6.0801,6.1082,6.1049,6.1628,6.2199,6.3061,6.4212,6.5626,6.5997,6.6162,6.6258,6.638,6.6468,6.6487,6.6587,6.6652,6.6278,6.554,6.4917,6.4157,6.3205,6.3127,6.2542,6.1744,6.1607,6.1588,6.1783,6.2757,6.3575,6.4257,6.5326,6.6047,6.6592,6.669,6.6709,6.6709,6.6709,6.6709,6.6709,6.6709,6.6709,6.6709,6.6709,6.6709,6.6709,6.6709,6.6709,6.6709,6.6709,6.6709,6.6709,6.6748,6.6748,6.6846,6.6904,6.7157,6.743,6.7255,6.7119,6.7294,6.7547,6.743,6.745,6.7823,6.8134,6.8229,6.8677,6.9498,6.4917,6.4917,6.4917,6.4917,6.4917,6.4917,6.4917,6.4917,6.4917,6.4917,6.4917,6.4917,6.4917,6.4917,6.4917,6.4917,6.4917,6.4917,6.4917,6.4916,6.4941,6.495,6.495,6.4984,6.5027,6.5061,6.5044,6.4976,6.4948,6.4967,6.4967,6.5036,6.5029,6.5012,6.5027,6.5001,6.4958,6.4932,6.4916,6.485,6.436,6.3183,6.1835,6.055,6.0413,6.0525,6.0685,6.0773,6.0919,6.1146,6.165,6.2278,6.2948,6.4069,6.5211,6.6038,6.6286,6.6388,6.6489,6.6546,6.6584,6.6671,6.6512,6.5969,6.5073,6.4043,6.303,6.2036,6.2094,6.2367,6.1724,6.1588,6.1588,6.1783,6.2387,6.3224,6.4062,6.4978,6.5872,6.632,6.6592,6.6709,6.6709,6.6709,6.6709,6.6709,6.6709,6.6709,6.6709,6.6709,6.6709,6.6709,6.6709,6.6709,6.6709,6.6709,6.6709,6.6709,6.6787,6.6846,6.7021,6.7177,6.7606,6.8171,6.7978,6.79,6.8095,6.8268,6.8271,6.8446,6.8936,6.9228,6.9303,6.9557,7.02,6.4917,6.4907,6.4907,6.4917,6.4916,6.4925,6.4916,6.4925,6.4934,6.4917,6.4951,6.4925,6.4934,6.4942,6.4942,6.4925,6.4925,6.4951,6.4969,6.4976,6.504,6.5098,6.5123,6.5278,6.5271,6.5263,6.5294,6.5228,6.5128,6.5106,6.5164,6.5271,6.5278,6.5318,6.5255,6.5134,6.5098,6.5046,6.4965,6.4577,6.3815,6.2506,6.1786,6.1335,6.0942,6.0677,6.0899,6.0941,6.1017,6.1165,6.1277,6.1899,6.2843,6.3652,6.5006,6.6017,6.6559,6.6536,6.663,6.6661,6.6663,6.6551,6.6105,6.519,6.4235,6.3127,6.2172,6.1744,6.1783,6.1802,6.1666,6.1588,6.1588,6.1802,6.225,6.3127,6.3984,6.453,6.5424,6.632,6.667,6.6709,6.6709,6.6709,6.6709,6.6709,6.6709,6.6709,6.6709,6.6709,6.6709,6.6709,6.6709,6.6709,6.6709,6.6709,6.6924,6.6865,6.7002,6.716,6.7608,6.8037,6.8621,6.8992,6.8816,6.8916,6.9264,6.9364,6.9228,6.9364,6.9715,7.0046,7.0339,7.065,7.0904,6.5006,6.4996,6.5015,6.5092,6.5185,6.5174,6.5194,6.5174,6.5174,6.5174,6.5174,6.5174,6.5174,6.5177,6.5194,6.5183,6.5174,6.5158,6.5174,6.5166,6.5228,6.5267,6.5302,6.5356,6.5394,6.5417,6.5409,6.5425,6.5333,6.5295,6.5322,6.5387,6.5402,6.5379,6.5417,6.5201,6.5212,6.5086,6.4681,6.3816,6.2803,6.2056,6.1569,6.1259,6.0964,6.096,6.106,6.1119,6.1184,6.1282,6.1324,6.182,6.282,6.367,6.4671,6.5739,6.6405,6.6616,6.6682,6.6709,6.669,6.6476,6.5813,6.4878,6.3653,6.2776,6.2016,6.1627,6.1588,6.1588,6.1588,6.1588,6.1588,6.1744,6.2036,6.2932,6.3711,6.4255,6.4956,6.5891,6.6709,6.6709,6.6709,6.6709,6.6709,6.6709,6.6709,6.6709,6.6709,6.6709,6.6709,6.6709,6.6709,6.6709,6.6709,6.6729,6.7255,6.7352,6.7606,6.7881,6.8527,6.9053,6.9479,6.9868,6.991,7.0105,7.0475,7.0339,7.0066,7.0202,7.0417,7.065,7.0904,7.1196,7.141,6.5201,6.5232,6.5193,6.5267,6.5394,6.5394,6.5387,6.5394,6.5387,6.5387,6.5394,6.5387,6.5387,6.5394,6.5391,6.5356,6.5387,6.5394,6.5394,6.5402,6.5432,6.5447,6.5477,6.5491,6.5554,6.5525,6.5576,6.5592,6.5613,6.5585,6.5535,6.5513,6.5583,6.5561,6.5484,6.5375,6.531,6.5299,6.4894,6.3807,6.2507,6.2305,6.1692,6.1238,6.0983,6.1115,6.1229,6.1252,6.1308,6.1411,6.1452,6.1913,6.2834,6.3426,6.4286,6.5268,6.5998,6.6409,6.659,6.669,6.6592,6.6125,6.5287,6.3984,6.2874,6.2562,6.2406,6.1627,6.1588,6.1588,6.1588,6.1588,6.1588,6.1588,6.1685,6.2601,6.3456,6.4021,6.4683,6.5599,6.6339,6.6709,6.6709,6.6709,6.6709,6.6709,6.6709,6.6709,6.6709,6.6709,6.6709,6.6709,6.6709,6.6846,6.7138,6.7216,6.7606,6.7937,6.819,6.8699,6.9384,6.9696,6.9968,7.0339,7.0767,7.0982,7.1157,7.1021,7.0923,7.1001,7.1098,7.1176,7.1388,7.1641,7.1758,6.5462,6.5559,6.544,6.5394,6.5417,6.5394,6.5402,6.544,6.5425,6.5444,6.5447,6.5417,6.544,6.5425,6.5454,6.5447,6.5436,6.5402,6.544,6.5484,6.5528,6.5592,6.5634,6.5722,6.5814,6.582,6.5787,6.5807,6.5853,6.5788,6.5814,6.5865,6.5781,6.5827,6.5768,6.562,6.5376,6.5315,6.5027,6.4279,6.322,6.2777,6.2337,6.1317,6.1124,6.1248,6.1356,6.1386,6.1418,6.1561,6.1544,6.1817,6.2557,6.301,6.3848,6.4897,6.5521,6.6027,6.6495,6.6651,6.6242,6.5326,6.4257,6.3127,6.2075,6.1783,6.1627,6.1627,6.1588,6.1588,6.1588,6.1588,6.1588,6.1588,6.1685,6.2231,6.3088,6.3828,6.453,6.5387,6.6027,6.6534,6.6709,6.6709,6.6709,6.6709,6.6709,6.6709,6.6709,6.6709,6.6709,6.6709,6.6709,6.7021,6.7684,6.8034,6.8424,6.8738,6.8992,6.9615,7.0339,7.0514,7.0611,7.0962,7.141,7.1622,7.1739,7.1508,7.141,7.1625,7.17,7.1583,7.1563,7.1719,7.1797,6.5639,6.5787,6.5741,6.572,6.5701,6.5701,6.5701,6.5701,6.572,6.572,6.5694,6.5701,6.5701,6.5694,6.5701,6.5701,6.572,6.5694,6.5688,6.5727,6.5774,6.5775,6.5827,6.584,6.5878,6.5884,6.5884,6.5884,6.5878,6.5884,6.5884,6.5878,6.5884,6.5878,6.5846,6.5756,6.5452,6.4863,6.4481,6.3692,6.2869,6.2205,6.1817,6.1407,6.1271,6.1392,6.1507,6.152,6.1563,6.1581,6.1588,6.1861,6.2192,6.2562,6.3439,6.4547,6.5034,6.5794,6.6456,6.6592,6.6086,6.482,6.3923,6.303,6.1744,6.1588,6.1588,6.1588,6.1588,6.1588,6.1588,6.1588,6.1588,6.1588,6.1763,6.2114,6.2718,6.3497,6.4296,6.5112,6.595,6.6651,6.6709,6.6709,6.6709,6.6709,6.6709,6.6709,6.6709,6.6709,6.6709,6.6709,6.6709,6.6982,6.7645,6.8385,6.9167,6.9557,6.9832,7.0397,7.1021,7.1293,7.143,7.1758,7.1817,7.1797,7.1778,7.1797,7.1797,7.1797,7.1797,7.1778,7.1797,7.1817,7.1817,6.5768,6.5897,6.5884,6.5884,6.5884,6.5884,6.5884,6.5884,6.5891,6.5884,6.5884,6.5884,6.5884,6.5884,6.5878,6.5872,6.5859,6.5859,6.5872,6.5865,6.5865,6.5884,6.5884,6.5884,6.5884,6.5884,6.5884,6.5884,6.5884,6.5884,6.5884,6.5884,6.5884,6.5884,6.5884,6.584,6.5532,6.4928,6.4195,6.3505,6.2772,6.2138,6.155,6.1502,6.1434,6.1482,6.1546,6.1576,6.1581,6.1585,6.1588,6.1588,6.1822,6.2231,6.303,6.3926,6.4725,6.554,6.63,6.6008,6.5424,6.4352,6.3397,6.262,6.1938,6.1588,6.1588,6.1588,6.1588,6.1588,6.1588,6.1588,6.1588,6.1588,6.1588,6.1899,6.2523,6.3244,6.4023,6.4839,6.5755,6.6709,6.6709,6.6709,6.6709,6.6709,6.6709,6.6709,6.6709,6.6709,6.6709,6.6709,6.6709,6.708,6.753,6.8349,6.9264,7.055,7.0826,7.1059,7.1508,7.1741,7.1817,7.1817,7.1817,7.1817,7.1817,7.1817,7.1817,7.1817,7.1817,7.1817,7.1817,7.1817,7.1817,6.5891,6.5884,6.5884,6.5884,6.5884,6.5884,6.5884,6.5884,6.5884,6.5884,6.5884,6.5884,6.5884,6.5884,6.5884,6.5884,6.5884,6.5884,6.5884,6.5884,6.5884,6.5884,6.5884,6.5884,6.5884,6.5884,6.5916,6.5934,6.591,6.5964,6.594,6.5933,6.5976,6.5933,6.5897,6.5916,6.5944,6.589,6.5116,6.4343,6.3697,6.2927,6.2196,6.1838,6.1576,6.1576,6.1583,6.1588,6.1588,6.1588,6.1588,6.1646,6.188,6.1899,6.2737,6.4138,6.4255,6.5092,6.6339,6.5034,6.4332,6.3904,6.301,6.2094,6.1724,6.1588,6.1588,6.1588,6.1588,6.1588,6.1588,6.1588,6.1588,6.1588,6.1588,6.1705,6.2309,6.3224,6.4062,6.4703,6.5794,6.6709,6.6709,6.6709,6.6709,6.6709,6.6709,6.6709,6.6709,6.6709,6.6709,6.6709,6.6748,6.7274,6.7745,6.8407,6.9381,7.0845,7.1644,7.1644,7.1683,7.1758,7.1817,7.1817,7.1817,7.1817,7.1817,7.1817,7.1817,7.1817,7.1817,7.1817,7.1817,7.1817,7.1817,6.5884,6.5884,6.5884,6.5884,6.5884,6.5884,6.5884,6.5884,6.5884,6.5884,6.5884,6.5884,6.5884,6.5884,6.5891,6.5897,6.591,6.5884,6.5884,6.591,6.591,6.5884,6.5897,6.5928,6.591,6.5922,6.5964,6.6032,6.6038,6.6091,6.6131,6.6152,6.613,6.6118,6.6085,6.6107,6.6191,6.6084,6.5493,6.4878,6.4554,6.3518,6.2672,6.2305,6.1887,6.1607,6.1588,6.1588,6.1588,6.1607,6.1627,6.1899,6.227,6.2406,6.3241,6.4527,6.4936,6.5151,6.5521,6.4722,6.3884,6.3319,6.2776,6.2036,6.1724,6.1607,6.1588,6.1588,6.1588,6.1588,6.1588,6.1588,6.1588,6.1588,6.1588,6.1588,6.2114,6.3283,6.4257,6.4703,6.554,6.6398,6.6709,6.6709,6.6709,6.6709,6.6709,6.6709,6.6709,6.6709,6.6709,6.6709,6.6826,6.7411,6.8037,6.9147,6.9751,7.0806,7.1527,7.1761,7.1797,7.1817,7.1817,7.1817,7.1817,7.1817,7.1817,7.1817,7.1817,7.1817,7.1817,7.1817,7.1817,7.1817,7.1817,6.5884,6.5884,6.5884,6.5941,6.5965,6.5929,6.5884,6.5884,6.5884,6.5884,6.5884,6.5884,6.5928,6.5946,6.5964,6.5964,6.597,6.6027,6.5988,6.5993,6.6027,6.6047,6.6066,6.6032,6.6088,6.6058,6.6112,6.6171,6.6171,6.6253,6.6262,6.6271,6.6351,6.6316,6.6276,6.629,6.6297,6.613,6.5638,6.5187,6.4714,6.3929,6.2908,6.2596,6.2153,6.1588,6.1588,6.1588,6.1607,6.1666,6.1938,6.2289,6.2815,6.3361,6.3982,6.4975,6.5716,6.5657,6.5326,6.4625,6.3787,6.303,6.2698,6.2211,6.1724,6.1607,6.1588,6.1588,6.1588,6.1588,6.1588,6.1588,6.1588,6.1588,6.1588,6.1588,6.2309,6.3497,6.4374,6.482,6.554,6.6261,6.6709,6.6709,6.6709,6.6709,6.6709,6.6709,6.6709,6.6709,6.6826,6.6982,6.7372,6.8134,6.9147,7.0394,7.0862,7.0982,7.1369,7.1778,7.1817,7.1817,7.1817,7.1817,7.1817,7.1817,7.1817,7.1817,7.1817,7.1817,7.1817,7.1817,7.1817,7.1817,7.1817,6.591,6.5891,6.5916,6.5999,6.6088,6.5993,6.5934,6.5916,6.5916,6.5928,6.5922,6.5933,6.6003,6.6072,6.6088,6.6107,6.6123,6.623,6.6186,6.6156,6.6177,6.6249,6.6253,6.6234,6.6216,6.6263,6.6303,6.6308,6.6312,6.6356,6.6356,6.6356,6.6461,6.6468,6.645,6.6427,6.6435,6.6256,6.5949,6.5643,6.5336,6.4169,6.3458,6.301,6.2387,6.1841,6.1666,6.1588,6.1685,6.1938,6.2406,6.2796,6.3241,6.3748,6.4547,6.5404,6.6261,6.6008,6.5404,6.4566,6.3748,6.2952,6.2153,6.1744,6.1607,6.1588,6.1588,6.1588,6.1588,6.1588,6.1588,6.1588,6.1588,6.1588,6.1588,6.2016,6.2718,6.3614,6.4432,6.517,6.6027,6.6612,6.669,6.6709,6.6709,6.6709,6.6709,6.6709,6.6709,6.6709,6.6924,6.745,6.8015,6.9011,7.0063,7.094,7.1427,7.1388,7.1505,7.1817,7.1817,7.1817,7.1817,7.1817,7.1817,7.1817,7.1817,7.1817,7.1817,7.1817,7.1817,7.1817,7.1817,7.1817,7.1817,6.6044,6.6041,6.616,6.6201,6.623,6.6211,6.6172,6.6191,6.6191,6.6191,6.6172,6.6172,6.6182,6.6235,6.6239,6.6239,6.6258,6.6291,6.6272,6.6281,6.6312,6.6288,6.6297,6.631,6.6293,6.6327,6.6392,6.6442,6.6461,6.65,6.6562,6.6609,6.6603,6.6641,6.6615,6.6584,6.6609,6.6537,6.6251,6.6193,6.5978,6.5053,6.4332,6.3595,6.2854,6.225,6.1724,6.1607,6.1802,6.2503,6.2737,6.3244,6.4722,6.4936,6.5404,6.6203,6.6515,6.63,6.5443,6.4588,6.3789,6.301,6.2133,6.1705,6.1588,6.1588,6.1588,6.1588,6.1588,6.1588,6.1588,6.1588,6.1588,6.1588,6.1666,6.2133,6.2854,6.3672,6.453,6.5521,6.6378,6.6631,6.6709,6.6709,6.6709,6.6709,6.6709,6.6709,6.6709,6.6709,6.7021,6.7567,6.8465,6.9401,6.9985,7.0806,7.1369,7.1778,7.1817,7.1817,7.1817,7.1817,7.1817,7.1817,7.1817,7.1817,7.1817,7.1817,7.1817,7.1817,7.1817,7.1817,7.1817,7.1817,7.1817,6.612,6.6191,6.6263,6.6334,6.6388,6.6435,6.6453,6.6438,6.6351,6.6284,6.6284,6.6279,6.6334,6.638,6.6384,6.6384,6.6388,6.6469,6.6465,6.6396,6.6404,6.6464,6.6461,6.6446,6.6471,6.6482,6.6526,6.6591,6.6603,6.6649,6.6704,6.6699,6.6709,6.6709,6.6702,6.6674,6.6699,6.6702,6.6668,6.6709,6.6378,6.5852,6.4995,6.416,6.3322,6.2523,6.1763,6.1646,6.2094,6.2854,6.3069,6.3984,6.5287,6.5657,6.5989,6.6631,6.6651,6.6476,6.5891,6.4742,6.4001,6.3244,6.2348,6.1724,6.1588,6.1588,6.1588,6.1588,6.1588,6.1588,6.1588,6.1588,6.1588,6.1588,6.1861,6.2153,6.2932,6.375,6.4725,6.5757,6.63,6.6592,6.6709,6.6709,6.6709,6.6709,6.6709,6.6709,6.6709,6.6709,6.7099,6.7645,6.866,6.9693,7.0222,7.0767,7.1369,7.1817,7.1817,7.1817,7.1817,7.1817,7.1817,7.1817,7.1817,7.1817,7.1817,7.1817,7.1817,7.1817,7.1817,7.1817,7.1817,7.1817,7.1817,6.6201,6.6321,6.631,6.6415,6.651,6.663,6.6679,6.6674,6.6446,6.6323,6.6335,6.6346,6.6419,6.6512,6.6522,6.6522,6.6539,6.6603,6.6594,6.6522,6.6581,6.663,6.6655,6.6702,6.6624,6.6671,6.6702,6.6666,6.6699,6.6709,6.6709,6.6709,6.6709,6.6709,6.6709,6.6709,6.6709,6.6709,6.6709,6.6709,6.6495,6.5891,6.5053,6.416,6.3419,6.2679,6.2016,6.188,6.2133,6.303,6.3809,6.4664,6.5521,6.6144,6.6554,6.667,6.6709,6.6651,6.6183,6.519,6.4549,6.375,6.2796,6.2348,6.227,6.1744,6.1607,6.1588,6.1588,6.1588,6.1588,6.1588,6.1588,6.1724,6.1997,6.2601,6.3478,6.4371,6.5404,6.6222,6.6456,6.6709,6.6709,6.6709,6.6709,6.6709,6.6709,6.6709,6.6709,6.6709,6.7196,6.7761,6.8719,6.9715,7.0455,7.0982,7.1508,7.1817,7.1817,7.1817,7.1817,7.1817,7.1817,7.1817,7.1817,7.1817,7.1817,7.1817,7.1817,7.1817,7.1817,7.1817,7.1817,7.1817,7.1817,6.6334,6.6457,6.6575,6.6624,6.6661,6.6702,6.6709,6.6707,6.6652,6.66,6.6606,6.6606,6.6609,6.6643,6.6649,6.6649,6.6663,6.6669,6.6674,6.6658,6.6685,6.6709,6.6709,6.6709,6.6709,6.6709,6.6709,6.6709,6.6709,6.6709,6.6709,6.6709,6.6709,6.6709,6.6709,6.6709,6.6709,6.6709,6.6709,6.6709,6.6612,6.6378,6.5774,6.4664,6.3729,6.338,6.2854,6.262,6.3497,6.4549,6.488,6.556,6.6359,6.6573,6.667,6.6709,6.6709,6.6709,6.6398,6.5677,6.5073,6.4744,6.4101,6.3731,6.3146,6.2172,6.1666,6.1666,6.1588,6.1588,6.1607,6.1607,6.1705,6.1919,6.2231,6.3146,6.4082,6.5073,6.6105,6.6417,6.6651,6.6709,6.6709,6.6709,6.6709,6.6709,6.6709,6.6709,6.6709,6.6768,6.7352,6.7959,6.8721,6.9618,7.0436,7.1157,7.1644,7.1817,7.1817,7.1817,7.1817,7.1817,7.1817,7.1817,7.1817,7.1817,7.1817,7.1817,7.1817,7.1817,7.1817,7.1817,7.1817,7.1817,7.1817,6.648,6.66,6.6671,6.6709,6.6709,6.6709,6.6709,6.6709,6.6709,6.6709,6.6709,6.6709,6.6709,6.6709,6.6709,6.6709,6.6709,6.6709,6.6704,6.6707,6.6709,6.6709,6.6709,6.6709,6.6709,6.6709,6.6709,6.6709,6.6709,6.6709,6.6709,6.6709,6.6709,6.6709,6.6709,6.6709,6.6709,6.6709,6.6709,6.6709,6.6709,6.6534,6.6086,6.5014,6.4547,6.4179,6.3731,6.3478,6.4199,6.5192,6.5677,6.6066,6.6554,6.667,6.6709,6.6709,6.6709,6.6709,6.6456,6.6027,6.5482,6.5209,6.4647,6.3965,6.3965,6.3127,6.2857,6.274,6.1763,6.1627,6.1822,6.1861,6.2192,6.2465,6.3069,6.3867,6.4761,6.5696,6.63,6.6573,6.6709,6.6709,6.6709,6.6709,6.6709,6.6709,6.6709,6.6709,6.6709,6.6846,6.743,6.8154,6.8897,6.9657,7.0455,7.1137,7.1719,7.1817,7.1817,7.1817,7.1817,7.1817,7.1817,7.1817,7.1817,7.1817,7.1817,7.1817,7.1817,7.1817,7.1817,7.1817,7.1817,7.1817,7.1817,6.6565,6.6704,6.6709,6.6709,6.6709,6.6709,6.6709,6.6709,6.6709,6.6709,6.6709,6.6709,6.6709,6.6709,6.6709,6.6709,6.6709,6.6709,6.6709,6.6709,6.6709,6.6709,6.6709,6.6709,6.6709,6.6709,6.6709,6.6709,6.6709,6.6709,6.6709,6.6709,6.6709,6.6709,6.6709,6.6709,6.6709,6.6709,6.6709,6.6709,6.6709,6.667,6.6105,6.5677,6.5346,6.4995,6.4488,6.4393,6.4781,6.5443,6.6222,6.6476,6.6651,6.6709,6.6709,6.6709,6.6709,6.6709,6.6573,6.6125,6.5794,6.5426,6.4703,6.4491,6.4569,6.4354,6.4082,6.3556,6.2581,6.2153,6.2348,6.2465,6.2835,6.3205,6.3906,6.4586,6.5462,6.6203,6.6456,6.6709,6.6709,6.6709,6.6709,6.6709,6.6709,6.6709,6.6709,6.6709,6.6768,6.7002,6.7391,6.8232,6.9072,6.9812,7.065,7.1176,7.1797,7.1817,7.1817,7.1817,7.1817,7.1817,7.1817,7.1817,7.1817,7.1817,7.1817,7.1817,7.1817,7.1817,7.1817,7.1817,7.1817,7.1817,7.1817,6.6588,6.6709,6.6709,6.6709,6.6709,6.6709,6.6709,6.6709,6.6709,6.6709,6.6709,6.6709,6.6709,6.6709,6.6709,6.6709,6.6709,6.6709,6.6709,6.6709,6.6709,6.6709,6.6709,6.6709,6.6709,6.6709,6.6709,6.6709,6.6709,6.6709,6.6709,6.6709,6.6709,6.6709,6.6709,6.6709,6.6709,6.6709,6.6709,6.6709,6.6709,6.6554,6.6164,6.5755,6.5385,6.5307,6.517,6.517,6.5677,6.6222,6.6554,6.667,6.6709,6.6709,6.6709,6.6709,6.6709,6.6709,6.6534,6.6398,6.6222,6.6242,6.5813,6.5872,6.5755,6.5385,6.5173,6.5017,6.4257,6.3789,6.3809,6.3692,6.3906,6.4216,6.4761,6.5462,6.6242,6.6476,6.6631,6.6709,6.6709,6.6709,6.6709,6.6709,6.6709,6.6709,6.6709,6.6748,6.6943,6.7177,6.7452,6.8427,6.9384,7.0319,7.1274,7.141,7.1817,7.1817,7.1817,7.1817,7.1817,7.1817,7.1817,7.1817,7.1817,7.1817,7.1817,7.1817,7.1817,7.1817,7.1817,7.1817,7.1817,7.1817,7.1817]}]]